[[{"header":{"parameterUnit":"m.s-1","parameterCategory":1,"la1":30.6,"la2":28.766,"lo1":-90.7593,"lo2":-88.6598,"dy":0.0162,"dx":0.0183,"nx":116,"ny":114,"refTime":"2023-07-24T12:00:00:Z","depth":0,"parameterNumber":2,"parameterNumberName":"U-component_of_WINDS"},"data":[0.0,0.0,0.0,0.0,0.0,0.0,0.0,0.0,0.0,0.0,0.0,0.0,0.0,0.0,0.0,0.0,0.0,0.0,0.0,0.0,0.0,0.0,0.0,0.0,0.0,0.0,0.0,0.0,0.0,0.0,0.0,0.0,0.0,0.0,0.0,0.0,0.0,0.0,0.0,0.0,0.0,0.0,0.0,0.0,0.0,0.0,0.0,0.0,0.0,0.0,0.0,0.0,0.0,0.0,0.0,0.0,0.0,0.0,0.0,0.0,0.0,0.0,0.0,0.0,0.0,0.0,0.0,0.0,0.0,0.0,0.0,0.0,0.0,0.0,0.0,0.0,0.0,0.0,0.0,0.0,0.0,0.0,0.0,0.0,0.0,0.0,0.0,0.0,0.0,0.0,0.0,0.0,0.0,0.0,0.0,0.0,0.0,0.0,0.0,0.0,0.0,0.0,0.0,0.0,0.0,0.0,0.0,0.0,0.0,0.0,0.0,0.0,0.0,0.0,0.0,0.0,0.0,0.0,0.0,0.0,0.0,0.0,0.0,0.0,0.0,0.0,0.0,0.0,0.0,0.0,0.0,0.0,0.0,0.0,0.0,0.0,0.0,0.0,0.0,0.0,0.0,0.0,0.0,0.0,0.0,0.0,0.0,0.0,0.0,0.0,0.0,0.0,0.0,0.0,0.0,0.0,0.0,0.0,0.0,0.0,0.0,0.0,0.0,0.0,0.0,0.0,0.0,0.0,0.0,0.0,0.0,0.0,0.0,0.0,0.0,0.0,0.0,0.0,0.0,0.0,0.0,0.0,0.0,0.0,0.0,0.0,0.0,0.0,0.0,0.0,0.0,0.0,0.0,0.0,0.0,0.0,0.0,0.0,0.0,0.0,0.0,0.0,0.0,0.0,0.0,0.0,0.0,0.0,0.0,0.0,0.0,0.0,0.0,0.0,0.0,0.0,0.0,0.0,0.0,0.0,0.0,0.0,0.0,0.0,0.0,0.0,0.0,0.0,0.0,0.0,0.0,0.0,0.0,0.0,0.0,0.0,0.0,0.0,0.0,0.0,0.0,0.0,0.0,0.0,0.0,0.0,0.0,0.0,0.0,0.0,0.0,0.0,0.0,0.0,0.0,0.0,0.0,0.0,0.0,0.0,0.0,0.0,0.0,0.0,0.0,0.0,0.0,0.0,0.0,0.0,0.0,0.0,0.0,0.0,0.0,0.0,0.0,0.0,0.0,0.0,0.0,0.0,0.0,0.0,0.0,0.0,0.0,0.0,0.0,0.0,0.0,0.0,0.0,0.0,0.0,0.0,0.0,0.0,0.0,0.0,0.0,0.0,0.0,0.0,0.0,0.0,0.0,0.0,0.0,0.0,0.0,0.0,0.0,0.0,0.0,0.0,0.0,0.0,0.0,0.0,0.0,0.0,0.0,0.0,0.0,0.0,0.0,0.0,0.0,0.0,0.0,0.0,0.0,0.0,0.0,0.0,0.0,0.0,0.0,0.0,0.0,0.0,0.0,0.0,0.0,0.0,0.0,0.0,0.0,0.0,0.0,0.0,0.0,0.0,0.0,0.0,0.0,0.0,0.0,0.0,0.0,0.0,0.0,0.0,0.0,0.0,0.0,0.0,0.0,0.0,0.0,0.0,0.0,0.0,0.0,0.0,0.0,0.0,0.0,0.0,0.0,0.0,0.0,0.0,0.0,0.0,0.0,0.0,0.0,0.0,0.0,0.0,0.0,0.0,0.0,0.0,0.0,0.0,0.0,0.0,0.0,0.0,0.0,0.0,0.0,0.0,0.0,0.0,0.0,0.0,0.0,0.0,0.0,0.0,0.0,0.0,0.0,0.0,0.0,0.0,0.0,0.0,0.0,0.0,0.0,0.0,0.0,0.0,0.0,0.0,0.0,0.0,0.0,0.0,0.0,0.0,0.0,0.0,0.0,0.0,0.0,0.0,0.0,0.0,0.0,0.0,0.0,0.0,0.0,0.0,0.0,0.0,0.0,0.0,0.0,0.0,0.0,0.0,0.0,0.0,0.0,0.0,0.0,0.0,0.0,0.0,0.0,0.0,0.0,0.0,0.0,0.0,0.0,0.0,0.0,0.0,0.0,0.0,0.0,0.0,0.0,0.0,0.0,0.0,0.0,0.0,0.0,0.0,0.0,0.0,0.0,0.0,0.0,0.0,0.0,0.0,0.0,0.0,0.0,0.0,0.0,0.0,0.0,0.0,0.0,0.0,0.0,0.0,0.0,0.0,0.0,0.0,0.0,0.0,0.0,0.0,0.0,0.0,0.0,0.0,0.0,0.0,0.0,0.0,0.0,0.0,0.0,0.0,0.0,0.0,0.0,0.0,0.0,0.0,0.0,0.0,0.0,0.0,0.0,0.0,0.0,0.0,0.0,0.0,0.0,0.0,0.0,0.0,0.0,0.0,0.0,0.0,0.0,0.0,0.0,0.0,0.0,0.0,0.0,0.0,0.0,0.0,0.0,0.0,0.0,0.0,0.0,0.0,0.0,0.0,0.0,0.0,0.0,0.0,0.0,0.0,0.0,0.0,0.0,0.0,0.0,0.0,0.0,0.0,0.0,0.0,0.0,0.0,0.0,0.0,0.0,0.0,0.0,0.0,0.0,0.0,0.0,0.0,0.0,0.0,0.0,0.0,0.0,0.0,0.0,0.0,0.0,0.0,0.0,0.0,0.0,0.0,0.0,0.0,0.0,0.0,0.0,0.0,0.0,0.0,0.0,0.0,0.0,0.0,0.0,0.0,0.0,0.0,0.0,0.0,0.0,0.0,0.0,0.0,0.0,0.0,0.0,0.0,0.0,0.0,0.0,0.0,0.0,0.0,0.0,0.0,0.0,0.0,0.0,0.0,0.0,0.0,0.0,0.0,0.0,0.0,0.0,0.0,0.0,0.0,0.0,0.0,0.0,0.0,0.0,0.0,0.0,0.0,0.0,0.0,0.0,0.0,0.0,0.0,0.0,0.0,0.0,0.0,0.0,0.0,0.0,0.0,0.0,0.0,0.0,0.0,0.0,0.0,0.0,0.0,0.0,0.0,0.0,0.0,0.0,0.0,0.0,0.0,0.0,0.0,0.0,0.0,0.0,0.0,0.0,0.0,0.0,0.0,0.0,0.0,0.0,0.0,0.0,0.0,0.0,0.0,0.0,0.0,0.0,0.0,0.0,0.0,0.0,0.0,0.0,0.0,0.0,0.0,0.0,0.0,0.0,0.0,0.0,0.0,0.0,0.0,0.0,0.0,0.0,0.0,0.0,0.0,0.0,0.0,0.0,0.0,0.0,0.0,0.0,0.0,0.0,0.0,0.0,0.0,0.0,0.0,0.0,0.0,0.0,0.0,0.0,0.0,0.0,0.0,0.0,0.0,0.0,0.0,0.0,0.0,0.0,0.0,0.0,0.0,0.0,0.0,0.0,0.0,0.0,0.0,0.0,0.0,0.0,0.0,0.0,0.0,0.0,0.0,0.0,0.0,0.0,0.0,0.0,0.0,0.0,0.0,0.0,0.0,0.0,0.0,0.0,0.0,0.0,0.0,0.0,0.0,0.0,0.0,0.0,0.0,0.0,0.0,0.0,0.0,0.0,0.0,0.0,0.0,0.0,0.0,0.0,0.0,0.0,0.0,0.0,0.0,0.0,0.0,0.0,0.0,0.0,0.0,0.0,0.0,0.0,0.0,0.0,0.0,0.0,0.0,0.0,0.0,0.0,0.0,0.0,0.0,0.0,0.0,0.0,0.0,0.0,0.0,0.0,0.0,0.0,0.0,0.0,0.0,0.0,0.0,0.0,0.0,0.0,0.0,0.0,0.0,0.0,0.0,0.0,0.0,0.0,0.0,0.0,0.0,0.0,0.0,0.0,0.0,0.0,0.0,0.0,0.0,0.0,0.0,0.0,0.0,0.0,0.0,0.0,0.0,0.0,0.0,0.0,0.0,0.0,0.0,0.0,0.0,0.0,0.0,0.0,0.0,0.0,0.0,0.0,0.0,0.0,0.0,0.0,0.0,0.0,0.0,0.0,0.0,0.0,0.0,0.0,0.0,0.0,0.0,0.0,0.0,0.0,0.0,0.0,0.0,0.0,0.0,0.0,0.0,0.0,0.0,0.0,0.0,0.0,0.0,0.0,0.0,0.0,0.0,0.0,0.0,0.0,0.0,0.0,0.0,0.0,0.0,0.0,0.0,0.0,0.0,0.0,0.0,0.0,0.0,0.0,0.0,0.0,0.0,0.0,0.0,0.0,0.0,0.0,0.0,0.0,0.0,0.0,0.0,0.0,0.0,0.0,0.0,0.0,0.0,0.0,0.0,0.0,0.0,0.0,0.0,0.0,0.0,0.0,0.0,0.0,0.0,0.0,0.0,0.0,0.0,0.0,0.0,0.0,0.0,0.0,0.0,0.0,0.0,0.0,0.0,0.0,0.0,0.0,0.0,0.0,0.0,0.0,0.0,0.0,0.0,0.0,0.0,0.0,0.0,0.0,0.0,0.0,0.0,0.0,0.0,0.0,0.0,0.0,0.0,0.0,0.0,0.0,0.0,0.0,0.0,0.0,0.0,0.0,0.0,0.0,0.0,0.0,0.0,0.0,0.0,0.0,0.0,0.0,0.0,0.0,0.0,0.0,0.0,0.0,0.0,0.0,0.0,0.0,0.0,0.0,0.0,0.0,0.0,0.0,0.0,0.0,0.0,0.0,0.0,0.0,0.0,0.0,0.0,0.0,0.0,0.0,0.0,0.0,0.0,0.0,0.0,0.0,0.0,0.0,0.0,0.0,0.0,0.0,0.0,0.0,0.0,0.0,0.0,0.0,0.0,0.0,0.0,0.0,0.0,0.0,0.0,0.0,0.0,0.0,0.0,0.0,0.0,0.0,0.0,0.0,0.0,0.0,0.0,0.0,0.0,0.0,0.0,0.0,0.0,0.0,0.0,0.0,0.0,0.0,0.0,0.0,0.0,0.0,0.0,0.0,0.0,0.0,0.0,0.0,0.0,0.0,0.0,0.0,0.0,0.0,0.0,0.0,0.0,0.0,0.0,0.0,0.0,0.0,0.0,0.0,0.0,0.0,0.0,0.0,0.0,0.0,0.0,0.0,0.0,0.0,0.0,0.0,0.0,0.0,0.0,0.0,0.0,0.0,0.0,0.0,0.0,0.0,0.0,0.0,0.0,0.0,0.0,0.0,0.0,0.0,0.0,0.0,0.0,0.0,0.0,0.0,0.0,0.0,0.0,0.0,0.0,0.0,0.0,0.0,0.0,0.0,0.0,0.0,0.0,0.0,0.0,0.0,0.0,0.0,0.0,0.0,0.0,0.0,0.0,0.0,0.0,0.0,0.0,0.0,0.0,0.0,0.0,0.0,0.0,0.0,0.0,0.0,0.0,0.0,0.0,0.0,0.0,0.0,0.0,0.0,0.0,0.0,0.0,0.0,0.0,0.0,0.0,0.0,0.0,0.0,0.0,0.0,0.0,0.0,0.0,0.0,0.0,0.0,0.0,0.0,0.0,0.0,0.0,0.0,0.0,0.0,0.0,0.0,0.0,0.0,0.0,0.0,0.0,0.0,0.0,0.0,0.0,0.0,0.0,0.0,0.0,0.0,0.0,0.0,0.0,0.0,0.0,0.0,0.0,0.0,0.0,0.0,0.0,0.0,0.0,0.0,0.0,0.0,0.0,0.0,0.0,0.0,0.0,0.0,0.0,0.0,0.0,0.0,0.0,0.0,0.0,0.0,0.0,0.0,0.0,0.0,0.0,0.0,0.0,0.0,0.0,0.0,0.0,0.0,0.0,0.0,0.0,0.0,0.0,0.0,0.0,0.0,0.0,0.0,0.0,0.0,0.0,0.0,0.0,0.0,0.0,0.0,0.0,0.0,0.0,0.0,0.0,0.0,0.0,0.0,0.0,0.0,0.0,0.0,0.0,0.0,0.0,0.0,0.0,0.0,0.0,0.0,0.0,0.0,0.0,0.0,0.0,0.0,0.0,0.0,0.0,0.0,0.0,0.0,0.0,0.0,0.0,0.0,0.0,0.0,0.0,0.0,0.0,0.0,0.0,0.0,0.0,0.0,0.0,0.0,0.0,0.0,0.0,0.6145,0.0,0.0,0.0,0.0,0.0,0.0,0.0,0.0,0.0,0.0,0.0,0.0,0.0,0.0,0.0,0.0,0.0,0.0,0.0,0.0,0.0,0.0,0.0,0.0,0.0,0.0,0.0,0.0,0.0,0.0,0.0,0.0,0.0,0.0,0.0,0.0,0.0,0.0,0.0,0.0,0.0,0.0,0.0,0.0,0.0,0.0,0.0,0.0,0.0,0.0,0.0,0.0,0.0,0.0,0.0,0.0,0.0,0.0,0.0,0.0,0.0,0.0,0.0,0.0,0.0,0.0,0.0,0.0,0.0,0.0,0.0,0.0,0.0,0.0,0.0,0.0,0.0,0.0,0.0,0.0,0.0,0.0,0.0,0.0,0.0,0.0,0.0,0.0,0.0,0.0,0.0,0.0,0.0,0.0,0.0,0.0,0.0,0.0,0.0,0.0,0.0,0.0,0.0,0.0,0.0,0.0,0.0,0.0,0.0,0.0,0.0,0.0,0.0,0.0,0.0,0.0,0.8602,0.0,0.0,0.0,0.0,0.0,0.0,0.0,0.0,0.0,0.0,0.0,0.0,0.0,0.0,0.0,0.0,0.0,0.0,0.0,0.0,0.0,0.0,0.0,0.0,0.0,0.0,0.0,0.0,0.0,0.0,0.0,0.0,0.0,0.0,0.0,0.0,0.0,0.0,0.0,0.0,0.0,0.0,0.0,0.0,0.0,0.0,0.0,0.0,0.0,0.0,0.0,0.0,0.0,0.0,0.0,0.0,0.0,0.0,0.0,0.0,0.0,0.0,0.0,0.0,0.0,0.0,0.0,0.0,0.0,0.0,0.0,0.0,0.0,0.0,0.0,0.0,0.0,0.0,0.0,0.0,0.0,0.0,0.0,0.0,0.0,0.0,0.0,0.0,0.0,0.0,0.0,0.0,0.0,0.0,0.0,0.0,0.0,0.0,0.0,0.0,0.0,0.0,0.0,0.0,0.0,0.0,0.0,0.0,2.1857,2.1058,1.935,1.8145,1.7383,1.6697,1.2543,1.2177,1.4309,1.178,0.0,0.0,0.0,0.0,0.0,0.0,0.0,0.0,0.0,0.0,0.0,0.0,0.0,0.0,0.0,0.0,0.0,0.0,0.0,0.0,0.0,0.0,0.0,0.0,0.0,0.0,0.0,0.0,0.0,0.0,0.0,0.0,0.0,0.0,0.0,0.0,0.0,0.0,2.0964,2.1596,2.2259,2.2812,0.0,0.0,0.0,0.0,0.0,0.0,0.0,0.0,0.0,0.0,0.0,0.0,0.0,0.0,0.0,0.0,0.0,0.0,0.0,0.0,0.0,0.0,0.0,0.0,0.0,0.0,0.0,0.0,0.0,0.0,0.0,0.0,0.0,0.0,0.0,0.0,0.0,0.0,0.0,0.0,0.0,0.0,0.0,0.0,1.7922,2.4047,0.0,0.0,0.0,0.0,0.0,0.0,0.0,0.0,0.0,0.0,0.0,0.0,0.0,1.3927,1.6056,1.886,2.1843,2.4959,2.4659,2.3949,2.2916,2.2308,2.1815,2.1361,2.1064,0.0,1.7178,1.5048,0.0,0.0,0.0,0.0,0.0,0.0,0.0,0.0,0.0,0.0,0.0,0.0,0.0,0.0,0.0,0.0,0.0,0.0,0.0,0.0,0.0,0.0,0.0,0.0,0.0,0.0,0.0,0.0,0.0,0.0,0.0,0.0,0.0,0.0,0.0,0.0,1.8811,2.0021,2.058,2.1696,2.2015,2.1713,2.1635,2.083,1.9399,1.7248,0.0,0.0,0.0,0.0,0.0,0.0,0.0,0.0,0.0,0.0,0.0,0.0,0.0,0.0,0.0,0.0,0.0,0.0,0.0,0.0,0.0,0.0,0.0,0.0,0.0,0.0,0.0,0.0,0.0,0.0,0.0,0.0,0.0,0.0,0.0,0.0,0.0,0.0,0.0,2.0669,2.407,2.8047,2.8349,2.8135,0.0,0.0,0.0,0.0,0.0,0.0,0.0,0.0,0.0,2.2575,2.0194,1.9172,1.9756,2.2394,2.5163,2.8012,2.7277,2.6701,2.6275,2.6089,2.5697,2.5248,2.5457,2.4855,2.3482,1.9295,1.8169,1.9097,0.0,0.0,0.0,0.0,1.9817,2.1172,0.0,0.0,0.0,0.0,0.0,0.0,0.0,0.0,0.0,0.0,0.0,0.0,0.0,0.0,0.0,1.4186,0.0,0.0,0.0,0.0,0.0,0.0,0.0,0.0,0.0,0.0,0.0,0.0,1.8702,1.9562,1.9663,2.1107,2.1181,2.0202,2.0743,2.0615,1.975,1.7231,1.5149,0.0,0.0,0.0,0.0,0.0,0.0,0.0,0.0,0.0,0.0,0.0,0.0,0.0,0.0,0.0,0.0,0.0,0.0,0.0,0.0,0.0,0.0,0.0,0.0,0.0,0.0,0.0,0.0,0.0,0.0,0.0,0.0,0.0,0.0,0.0,0.0,0.0,0.0,2.7166,3.1036,3.209,3.0816,2.9577,0.0,0.0,0.0,0.0,0.0,0.0,2.9953,3.0111,2.9842,2.9142,2.6363,2.4543,2.3868,2.5728,2.8043,3.0776,3.0019,2.9627,2.9642,2.9477,2.921,2.8837,2.8976,2.8863,2.8169,2.3121,2.2232,2.405,2.4435,2.4133,2.3578,2.4427,2.4803,2.4892,0.0,0.0,0.0,0.0,0.0,0.0,0.0,0.0,0.0,0.0,0.0,0.0,0.0,0.0,1.4473,1.5493,1.5233,1.5349,0.0,0.0,0.0,0.0,0.0,0.0,0.0,0.0,0.0,1.5998,1.7239,1.7951,1.8227,1.9207,1.9648,1.9611,1.9306,1.9264,1.9333,1.7597,1.5647,1.3488,0.0,0.0,0.0,0.0,0.0,0.0,0.0,0.0,0.0,0.0,0.0,0.0,0.0,0.0,0.0,0.0,0.0,0.0,0.0,0.0,0.0,0.0,0.0,0.0,0.0,0.0,0.0,0.0,0.0,0.0,0.0,0.0,0.0,0.0,0.0,0.0,0.0,0.0,0.0,3.5554,3.2066,0.0,0.0,0.0,0.0,3.3624,3.1676,3.0621,3.0917,3.1778,3.2074,3.1631,3.1086,3.0379,2.948,2.9626,3.0858,3.314,3.3103,3.3035,3.3035,3.247,3.2182,3.2198,3.2754,3.1536,2.8854,2.592,2.6824,3.012,3.0578,2.8991,2.6707,2.8708,2.9592,2.9576,0.0,0.0,0.0,0.0,0.0,0.0,0.0,0.0,0.0,0.0,0.0,0.0,0.0,1.4395,1.546,1.6429,1.6826,1.7053,1.7205,0.0,0.0,0.0,0.0,0.0,0.0,0.0,1.524,1.6116,1.6733,1.7249,1.7655,1.8187,1.8496,1.8519,1.8657,1.8452,1.782,1.6581,1.5207,1.3617,1.0664,0.8736,0.0,0.0,0.0,0.0,0.0,0.0,0.0,0.0,0.0,0.0,0.0,0.0,0.0,0.0,0.0,0.0,0.0,0.0,0.0,0.0,0.0,0.0,0.0,0.0,0.0,0.0,0.0,0.0,0.0,0.0,0.0,0.0,0.0,0.0,0.0,0.0,0.0,3.4706,3.356,0.0,3.2022,3.2959,3.3868,3.4617,3.2662,3.156,3.1884,3.3529,3.4244,3.3816,3.3656,3.3297,3.2595,3.4424,3.576,3.6596,3.6596,3.6596,3.6541,3.5963,3.5676,3.5582,3.3975,3.293,3.2401,3.3665,3.2751,3.051,3.0878,2.9808,2.8212,2.9712,3.0699,3.1306,0.0,0.0,0.0,0.0,0.0,0.0,0.0,0.0,0.0,0.0,0.0,1.2647,1.3863,1.5393,1.6609,1.742,1.8043,1.8351,1.8218,0.0,0.0,0.0,0.0,0.0,0.0,1.5118,1.5323,1.5944,1.6095,1.6281,1.6514,1.6893,1.7071,1.708,1.75,1.7337,1.6728,1.593,1.4908,1.3658,1.1371,0.9818,0.8686,0.0,0.0,0.0,0.0,0.0,0.0,0.0,0.0,0.0,0.0,0.0,0.0,0.0,0.0,0.0,0.0,0.0,0.0,0.0,0.0,0.0,0.0,0.0,0.0,0.0,0.0,0.0,0.0,0.0,0.0,0.0,0.0,0.0,0.0,0.0,3.6704,3.6186,3.6245,3.6165,3.5922,3.5396,3.5714,3.7229,3.5365,3.3963,3.3485,3.5442,3.6505,3.6373,3.6174,3.592,3.5542,3.7452,3.8877,3.9833,3.9833,3.9331,3.8408,3.8008,3.7817,3.7722,3.584,3.5241,3.5756,3.8142,3.6868,3.3375,3.2627,3.1574,3.0616,3.1283,3.196,3.2723,0.0,0.0,0.0,0.0,0.0,0.0,0.0,0.0,0.0,0.0,1.2235,1.351,1.4909,1.666,1.7958,1.8508,1.8748,1.8953,1.9146,1.8315,0.0,0.0,0.0,0.0,1.6367,1.5992,1.5681,1.5443,1.5246,1.5031,1.4808,1.5196,1.5426,1.5453,1.568,1.5915,1.6182,1.5704,1.4884,1.3718,1.2263,1.0865,0.9631,0.0,0.0,0.0,0.0,0.0,0.0,0.0,0.0,0.0,0.0,0.0,0.0,0.0,0.0,0.0,0.0,0.0,0.0,0.0,0.0,0.0,0.0,0.0,0.0,0.0,0.0,0.0,0.0,0.0,0.0,0.0,0.0,0.0,2.8748,3.359,3.7929,4.0462,3.9936,3.97,4.0431,4.0122,4.0297,4.1459,3.9925,3.7972,3.5908,3.7535,3.8802,3.9404,3.8858,3.8537,3.8537,3.8537,3.9914,4.2634,4.2715,4.1274,3.8537,3.8537,3.8578,3.8578,3.8578,3.8578,3.8578,3.8841,3.9084,3.904,3.627,3.4705,3.4051,3.3736,3.3717,3.4209,0.0,0.0,0.0,0.0,0.0,0.0,0.0,0.0,0.0,0.0,1.3248,1.4763,1.628,1.7779,1.8966,1.9701,1.9193,1.9195,1.9907,0.0,0.0,0.0,0.0,0.0,1.7244,1.6496,1.6071,1.5984,1.5412,1.5253,1.5564,1.5545,1.5758,1.6051,1.6088,1.6063,1.599,1.5948,1.5553,1.4828,1.3451,1.2431,1.1708,0.0,0.0,0.0,0.0,0.0,0.0,0.0,0.0,0.0,0.0,0.0,0.0,0.0,0.0,0.0,0.0,0.0,0.0,0.0,0.0,0.0,0.0,0.0,0.0,0.0,0.0,0.0,0.0,0.0,0.0,0.0,0.0,3.0406,3.0779,3.5039,3.8385,3.8891,3.9985,4.0601,4.0353,4.1878,4.2226,4.0923,4.0797,4.0775,4.0655,4.1151,4.1529,4.171,4.1529,4.1468,4.1468,4.1468,4.2101,4.3344,4.5513,4.4751,4.1468,4.195,4.2202,4.2202,4.2202,4.2202,4.2127,4.1993,4.1386,4.0245,3.77,3.6237,3.5685,3.6346,3.6904,3.7456,0.0,0.0,0.0,0.0,0.0,0.0,0.0,0.0,0.0,0.0,1.4578,1.5952,1.7258,1.8712,1.9727,1.9947,1.9754,1.9757,2.0132,0.0,0.0,0.0,0.0,1.7955,1.7837,1.714,1.6619,1.6268,1.5662,1.5481,1.5641,1.5495,1.5688,1.5965,1.6106,1.6221,1.6203,1.6357,1.6179,1.5842,1.4853,1.4048,1.3525,1.3857,1.4166,1.4669,1.6133,1.7281,1.83,1.9522,0.0,0.0,0.0,0.0,0.0,0.0,0.0,0.0,0.0,0.0,0.0,0.0,0.0,0.0,0.0,0.0,0.0,0.0,0.0,0.0,0.0,0.0,0.0,0.0,3.0761,3.2753,3.3218,3.5961,3.8203,3.8896,3.9967,4.0762,4.1214,4.2097,4.2333,4.1711,4.1906,4.2454,4.3363,4.3751,4.4102,4.4415,4.3249,4.3201,4.4399,4.4415,4.4739,4.5483,4.7189,4.6913,4.4884,4.5263,4.545,4.545,4.545,4.4754,4.3618,4.3924,4.3072,0.0,0.0,0.0,0.0,0.0,3.901,3.956,0.0,0.0,0.0,0.0,0.0,0.0,0.0,0.0,0.0,0.0,0.0,1.7088,1.8089,1.9584,2.033,1.9961,2.0242,2.032,0.0,0.0,0.0,1.9552,1.8976,1.8462,1.8209,1.7838,1.7279,1.6558,1.6102,1.5824,1.5724,1.5588,1.5665,1.585,1.6248,1.6583,1.6885,1.6802,1.6778,1.675,1.6267,1.5683,1.513,1.5392,1.5855,1.6481,1.737,1.8672,1.9988,2.0429,0.0,0.0,0.0,0.0,0.0,0.0,0.0,0.0,0.0,0.0,0.0,0.0,0.0,0.0,0.0,0.0,0.0,0.0,0.0,0.0,0.0,0.0,0.0,0.0,3.2866,3.5048,3.5927,3.6764,3.8018,3.9898,4.0096,4.0689,4.2412,4.1638,4.1612,4.3016,4.288,4.3192,4.4358,0.0,0.0,0.0,0.0,4.451,4.686,4.6945,4.737,4.8001,4.8001,4.8066,4.8131,4.8001,4.8001,4.8001,4.8001,4.6527,4.4131,4.4749,4.4121,4.2585,4.0869,4.0242,4.0271,4.018,4.0392,4.0925,0.0,0.0,0.0,0.0,0.0,0.0,0.0,0.0,0.0,1.5976,1.6903,1.8028,1.9958,2.0769,2.1233,2.1203,2.0685,2.0259,0.0,0.0,1.9813,2.0163,1.9756,1.9315,1.8738,1.8326,1.7923,1.7645,1.7141,1.7141,1.7526,1.739,1.7588,1.8006,1.7649,1.7591,1.7788,1.7325,1.7371,1.7702,1.7368,1.6824,1.6374,1.6581,1.7476,1.8797,1.9793,2.065,2.1482,2.2498,2.3059,2.3518,2.4752,0.0,0.0,0.0,0.0,0.0,0.0,0.0,0.0,0.0,0.0,0.0,0.0,0.0,0.0,0.0,0.0,0.0,0.0,0.0,0.0,3.2444,3.4072,3.5937,3.7805,3.8714,3.9543,4.0463,4.1014,4.1709,4.2911,4.3184,4.3058,4.2383,4.2882,4.3311,4.3551,4.4343,4.5188,4.6008,4.7643,4.8004,4.6892,4.7504,4.7869,4.8001,0.0,0.0,4.8815,4.8261,4.8001,4.8001,4.8001,4.7686,4.6926,4.4217,4.341,4.3621,4.1704,4.1097,4.1328,4.1611,4.1933,4.2347,0.0,0.0,0.0,0.0,0.0,0.0,0.0,0.0,0.0,0.0,1.7751,1.8663,2.0217,2.0309,2.0277,2.0358,2.0336,0.0,0.0,2.0399,2.042,2.0359,2.0065,1.9723,1.9146,1.9177,1.913,1.9093,1.8969,1.9145,1.9615,1.9568,1.9514,1.962,1.9261,1.9086,1.9086,1.8489,1.84,1.8595,1.8097,1.7866,1.7871,1.7894,1.8428,1.9295,2.0496,2.1327,2.2103,2.3299,2.3936,2.4384,2.5456,2.6165,2.655,0.0,0.0,0.0,0.0,0.0,0.0,0.0,0.0,0.0,0.0,0.0,0.0,0.0,0.0,3.0534,0.0,0.0,3.3302,3.4452,3.5902,3.7363,3.8829,3.9752,4.0472,4.1174,4.163,4.2205,4.2959,4.314,4.3113,4.3079,4.284,4.3442,4.5161,4.6123,4.6998,4.7801,4.9205,4.9639,4.9046,4.9404,4.9826,5.0187,5.0187,5.0593,5.1251,5.0526,5.0187,5.0104,4.863,4.7787,4.7339,4.5487,4.5129,4.5537,4.4115,4.3372,4.3165,4.3528,4.3686,4.39,0.0,0.0,0.0,0.0,0.0,0.0,0.0,0.0,0.0,0.0,0.0,1.8951,2.004,1.9527,1.9114,0.0,0.0,0.0,0.0,2.0759,2.0805,2.043,2.0365,2.005,1.9558,2.0142,2.0468,2.0604,2.0955,2.1225,2.1616,2.1707,2.1499,2.1202,2.0992,2.0678,2.037,1.9736,1.9455,1.9332,1.8818,1.8799,1.9171,1.9227,1.9249,1.9437,2.0579,2.1384,2.2073,2.3451,2.4232,2.485,2.5992,2.6816,2.7417,2.7478,2.8097,0.0,0.0,0.0,0.0,0.0,0.0,0.0,0.0,0.0,3.2261,3.2587,3.2549,3.2804,3.3977,3.454,3.5186,3.6289,3.7622,3.8845,3.9708,4.0589,4.1462,4.2223,4.2445,4.2747,4.3412,4.331,4.3524,4.4167,4.3328,4.4144,4.7103,4.7964,4.8785,4.9597,4.9677,5.0073,5.094,5.1108,5.1631,5.2373,5.2373,5.2814,5.3501,5.2727,5.2373,5.2224,4.9141,4.7437,4.6876,4.703,4.7251,4.7321,4.6552,4.5782,4.5272,4.5384,4.531,4.5426,0.0,0.0,0.0,0.0,0.0,0.0,0.0,0.0,0.0,0.0,0.0,0.0,0.0,0.0,0.0,0.0,0.0,0.0,2.0505,2.067,2.0694,2.0657,2.0857,2.0832,2.0662,2.1358,2.1909,2.2274,2.2573,2.2961,2.3227,2.3516,2.3546,2.3118,2.256,2.1999,2.1429,2.0523,2.0118,2.0036,1.9925,1.9798,1.9654,2.0331,2.0473,2.0401,2.0758,2.0943,2.1329,2.3226,2.3741,2.3947,2.6209,2.7294,2.7783,2.8093,0.0,3.0164,2.8887,2.9069,3.0819,3.5681,3.6654,3.6488,0.0,0.0,3.5096,3.584,3.5771,3.5628,3.5675,3.6221,3.6944,3.7586,3.8596,3.9761,4.0853,4.192,4.3067,4.418,4.3875,4.4054,4.533,4.6062,4.6052,4.5087,4.5263,4.602,4.7193,4.7381,4.788,4.8702,4.8785,4.9178,4.9995,5.0788,5.1631,5.2373,5.2373,5.2814,5.3501,5.2727,5.2373,5.2208,4.856,4.6961,4.6961,4.7588,4.7869,4.7853,4.7489,4.7241,4.7078,4.6412,4.6406,4.6782,0.0,0.0,0.0,0.0,0.0,0.0,0.0,0.0,0.0,0.0,0.0,0.0,0.0,0.0,0.0,0.0,0.0,0.0,2.0481,2.1144,2.148,2.1434,2.1593,2.1679,2.1779,2.2511,2.3085,2.3577,2.4258,2.4777,2.5129,2.5162,2.5009,2.487,2.392,2.3322,2.3021,2.1872,2.1382,2.1293,2.0892,2.055,2.0261,2.0404,2.0273,2.0146,2.0715,2.0874,0.0,0.0,2.3991,2.4561,2.6621,2.7683,2.8226,2.9016,3.0313,0.0,3.2316,3.1246,3.1189,3.6637,3.8379,3.8567,3.8119,3.7558,3.731,3.7713,3.7544,3.7493,3.7938,3.8005,3.8305,0.0,4.0423,4.1376,4.2315,4.344,4.431,4.4867,4.5371,4.579,4.6056,4.6755,4.6956,4.6295,4.7384,4.8275,4.8649,4.9203,5.0019,5.1005,4.9451,4.9015,4.9916,5.1868,5.2506,5.1704,5.2158,5.2587,5.2867,5.2516,5.2373,5.2208,4.8921,4.854,4.9969,4.8563,4.8261,4.8564,4.8436,4.8244,4.7965,4.7161,4.6969,4.7233,0.0,0.0,0.0,0.0,0.0,0.0,0.0,0.0,0.0,0.0,0.0,0.0,0.0,0.0,0.0,0.0,0.0,0.0,0.0,2.1144,2.166,2.1688,2.171,2.1987,2.2364,2.3175,2.3852,2.4511,2.5325,2.5986,2.639,2.6174,2.6074,2.5861,2.4933,2.4408,2.4,2.3141,2.2565,2.227,2.1862,2.1375,2.0806,2.0528,2.0027,1.9571,2.0267,2.0508,0.0,0.0,2.3575,2.4444,2.6492,2.7557,2.8302,2.9418,3.0616,3.2148,3.4407,3.4249,3.4282,3.8075,3.9918,4.0478,3.8922,3.8725,3.8878,3.9224,3.9018,3.8961,3.9886,3.962,3.9743,4.1044,4.1855,4.2631,4.3633,4.4643,4.5413,4.5527,4.6654,4.7348,4.6926,4.7531,4.7852,4.7634,4.8855,4.9669,4.9669,5.0632,5.1494,5.2246,5.0601,5.0164,5.1069,5.3076,5.3643,5.2731,5.3329,5.3566,5.3549,5.2738,5.2516,5.2611,5.046,5.076,5.2561,5.0426,4.9787,5.0168,4.9323,4.8877,4.8589,4.7945,4.7692,4.7855,0.0,0.0,0.0,0.0,0.0,0.0,0.0,0.0,0.0,0.0,0.0,0.0,0.0,0.0,0.0,0.0,0.0,0.0,0.0,2.0214,2.0616,2.0997,2.0954,2.1242,2.1996,2.3054,2.4088,2.5203,2.5646,2.6088,2.6473,2.66,2.6205,2.5635,2.5908,2.5287,2.398,2.398,2.3484,2.2468,2.2857,2.2245,2.1146,2.0925,2.0128,1.9061,1.9434,0.0,0.0,0.0,2.1962,2.2837,2.5336,2.6802,0.0,2.903,2.9993,3.1131,3.3487,3.8116,4.1958,4.09,4.1169,4.1388,4.0522,3.9941,3.9906,4.0619,4.0357,4.0244,4.1054,4.1032,4.1201,4.2409,4.2743,4.3373,4.4542,4.5471,4.616,4.6737,4.757,4.8137,0.0,4.8951,4.912,4.8907,4.9401,4.9669,4.9669,5.0632,5.1214,5.1214,5.2078,5.302,5.3961,5.4055,5.495,5.6547,5.6564,5.6564,5.6465,5.3649,5.2797,5.3433,5.3332,5.3349,5.3433,5.3332,5.3365,5.3078,5.0152,4.9001,4.9001,4.8968,4.8968,4.8968,0.0,0.0,0.0,0.0,0.0,0.0,0.0,0.0,0.0,0.0,0.0,0.0,0.0,0.0,0.0,0.0,0.0,0.0,0.0,2.029,2.0843,2.1266,2.1304,2.1613,2.2029,2.2485,2.3063,2.3736,2.4373,2.4812,2.5184,2.5175,2.5233,2.5234,2.4889,2.4671,2.4593,2.425,2.3918,2.3823,2.3482,2.2673,2.1803,2.1025,1.9938,1.8731,0.0,0.0,0.0,0.0,2.1581,2.2726,2.5541,0.0,2.8668,3.2234,3.3517,3.4342,3.705,4.0742,4.3556,4.2024,4.204,4.2358,4.2195,4.1834,4.1716,4.2194,4.2147,4.2213,4.2627,4.2666,4.2821,4.3619,4.4286,4.4915,4.5438,4.6509,4.705,4.6835,4.8294,0.0,0.0,0.0,0.0,4.896,5.0173,5.1949,5.4243,5.3481,5.2586,5.174,5.2683,5.3481,5.4103,5.4665,5.5572,5.668,5.6987,5.7063,5.703,5.5837,5.4634,5.3501,5.3501,5.3501,5.3501,5.4014,5.3883,5.3263,5.07,4.9385,4.9001,4.9001,4.9001,4.9001,0.0,0.0,0.0,0.0,0.0,0.0,0.0,0.0,0.0,0.0,0.0,0.0,0.0,0.0,0.0,0.0,0.0,0.0,0.0,0.0,1.9852,2.0241,2.0246,2.04,2.0833,2.0849,2.1313,2.2136,2.2634,2.3255,2.3763,2.3825,2.3938,2.4276,2.3934,2.417,2.4444,2.3994,2.3941,2.4186,2.3474,2.2796,2.199,2.0836,1.9706,0.0,0.0,0.0,0.0,0.0,2.0834,2.2351,2.5009,2.7646,3.0494,3.4285,3.6826,3.8846,4.0781,4.253,4.3453,4.2548,4.2805,4.3409,4.3184,4.2973,4.2887,4.3139,4.3114,4.3297,4.3833,4.3791,4.3947,4.5092,4.547,4.5901,4.6662,4.7294,4.7643,4.7577,4.8977,4.9708,0.0,0.0,0.0,4.9663,5.088,5.3136,5.6342,5.4942,5.3812,5.3285,5.3214,5.3568,5.4359,5.518,5.5974,5.668,5.7063,5.7289,5.7514,5.7214,5.6342,5.5006,5.421,5.3883,5.3883,5.4321,5.4127,5.3382,5.1833,5.1003,5.049,4.9407,4.9001,4.8849,0.0,0.0,0.0,0.0,0.0,0.0,0.0,0.0,0.0,0.0,0.0,0.0,0.0,0.0,0.0,0.0,0.0,0.0,0.0,0.0,0.0,1.8188,1.7891,1.7945,1.8501,1.8448,1.9043,2.0365,2.0662,2.1285,2.209,2.2473,2.2623,2.263,2.3292,2.3484,2.3468,2.3448,2.3543,2.3406,2.307,2.2633,2.1903,2.0373,0.0,0.0,0.0,0.0,0.0,0.0,1.996,2.1993,2.4038,2.8328,3.2971,3.5221,3.9631,4.3889,4.4231,4.3347,4.2278,4.2594,4.3739,4.4631,4.3741,4.3562,4.3531,4.3478,4.3438,4.37,0.0,0.0,4.4554,4.6571,4.6269,4.6387,4.797,4.7965,4.8122,0.0,0.0,0.0,0.0,0.0,0.0,5.1136,0.0,5.3226,5.588,5.4986,5.4733,5.5454,5.3786,5.3487,5.4729,5.5685,5.6307,5.668,5.6927,5.7381,5.7881,5.7881,5.7881,5.7802,5.5649,5.4649,5.4512,5.4512,5.4127,5.3501,5.3501,5.3501,5.3129,5.0118,4.9001,4.8595,0.0,0.0,0.0,0.0,0.0,0.0,0.0,0.0,0.0,0.0,0.0,0.0,0.0,0.0,0.0,0.0,0.0,0.0,0.0,0.0,0.0,0.0,0.0,0.0,0.0,0.0,0.0,0.0,0.0,1.8917,1.9804,2.0441,2.0906,2.121,2.1758,2.2081,2.2289,2.2571,2.2931,2.3379,0.0,2.2683,2.2441,0.0,0.0,0.0,0.0,0.0,0.0,0.0,0.0,2.6178,2.8008,3.0814,3.4038,3.6971,3.9818,4.2032,4.2547,4.3176,4.3812,4.3885,4.5239,4.6395,4.5475,4.4994,4.4692,4.4687,4.4349,4.4197,0.0,0.0,0.0,4.6682,4.7479,0.0,4.8821,4.895,0.0,4.9707,0.0,5.1295,5.1452,5.2333,0.0,0.0,5.3455,5.4209,5.6097,5.5465,5.5275,5.5642,5.5115,5.4632,5.429,5.5588,5.6323,5.6463,5.6834,5.7139,5.7439,5.7735,5.7881,5.792,5.7861,5.6598,5.4512,5.4512,5.4127,5.3501,5.3501,5.3501,5.3129,5.0118,4.9001,4.8838,0.0,0.0,0.0,0.0,0.0,0.0,0.0,0.0,0.0,0.0,0.0,0.0,0.0,0.0,0.0,0.0,0.0,0.0,0.0,0.0,0.0,0.0,0.0,0.0,0.0,0.0,0.0,0.0,0.0,0.0,0.0,1.8476,1.9325,2.0104,2.0345,2.0838,2.1481,0.0,0.0,0.0,0.0,0.0,0.0,0.0,0.0,0.0,0.0,0.0,0.0,0.0,0.0,2.6849,3.0145,3.2956,3.5646,3.8769,4.1081,4.2764,4.3577,4.494,4.611,4.5815,4.6837,4.7663,4.676,4.6123,4.5566,4.4922,4.4664,4.4683,4.5106,4.5962,4.6733,0.0,0.0,0.0,4.9267,4.9598,4.9833,0.0,5.0968,0.0,5.1882,5.2876,5.3605,0.0,5.4124,5.484,5.6008,5.5929,5.5954,5.6416,5.5782,5.5155,5.4528,5.5426,5.5826,5.5752,5.62,5.6262,5.6096,5.6774,5.7183,5.7273,0.0,5.6833,5.4063,5.4063,5.3817,5.3501,5.3501,5.3297,5.2805,5.1128,4.9687,4.8564,0.0,0.0,0.0,0.0,0.0,0.0,0.0,0.0,0.0,0.0,0.0,0.0,0.0,0.0,0.0,0.0,0.0,0.0,0.0,0.0,0.0,0.0,0.0,0.0,0.0,0.0,0.0,0.0,0.0,0.0,0.0,0.0,0.0,0.0,0.0,0.0,0.0,0.0,0.0,0.0,0.0,0.0,0.0,0.0,0.0,0.0,0.0,0.0,0.0,0.0,2.5768,2.6491,3.1539,3.4914,3.7511,4.0386,4.2756,4.4659,4.5888,4.7324,4.828,4.7693,4.8212,4.8505,4.759,4.6873,4.6086,4.4941,4.4913,4.505,4.5296,4.6234,4.7267,4.7978,0.0,4.947,4.9858,5.0057,5.0211,5.061,5.1042,5.164,5.2179,5.2986,5.341,5.3515,5.423,5.5048,5.588,5.6274,5.67,5.7245,5.6092,5.5301,5.5031,5.5083,5.4988,5.4763,5.5133,5.4939,5.4403,5.5329,5.5967,5.6288,5.7222,5.5967,5.3365,5.3433,5.3433,5.3365,5.3365,5.2867,5.223,5.223,5.0449,4.8066,0.0,0.0,0.0,0.0,0.0,0.0,0.0,0.0,0.0,0.0,0.0,0.0,0.0,0.0,0.0,0.0,0.0,0.0,0.0,0.0,0.0,0.0,0.0,0.0,0.0,0.0,0.0,0.0,0.0,0.0,0.0,0.0,0.0,0.0,0.0,0.0,0.0,0.0,0.0,0.0,0.0,0.0,0.0,0.0,0.0,0.0,0.0,0.0,0.0,0.0,2.8695,3.056,3.4355,3.6926,3.9116,4.1339,4.3617,4.5608,4.6639,4.7512,4.8064,4.809,4.8456,4.8516,4.7488,4.686,0.0,4.5821,4.543,4.5131,4.5416,4.6551,4.753,4.7931,4.9203,5.0448,5.1334,5.1086,5.1044,0.0,5.1846,5.1892,5.2221,5.2787,0.0,0.0,5.4008,5.4728,5.5581,5.6176,5.6388,5.6372,5.575,5.5124,5.4497,5.4173,5.3761,5.3371,5.3607,5.3604,5.3551,5.388,5.4535,5.5375,5.5862,0.0,5.2657,5.3229,5.3161,5.2587,5.2587,5.2086,5.1408,5.1408,4.9943,4.8001,0.0,0.0,0.0,0.0,0.0,0.0,0.0,0.0,0.0,0.0,0.0,0.0,0.0,0.0,0.0,0.0,0.0,0.0,0.0,0.0,0.0,0.0,0.0,0.0,0.0,0.0,0.0,0.0,0.0,0.0,0.0,0.0,0.0,0.0,0.0,0.0,0.0,0.0,0.0,0.0,0.0,0.0,0.0,0.0,0.0,0.0,0.0,0.0,0.0,0.0,3.0134,3.2748,3.552,3.8235,4.0741,4.2474,4.4496,4.6403,4.7657,4.8629,4.9211,4.9148,4.9405,4.9473,4.8506,0.0,0.0,4.6965,4.6359,4.5984,4.6014,4.7045,4.794,4.8042,4.9186,5.0332,5.1113,5.1031,5.1113,5.1735,5.1641,5.1596,5.1815,5.2358,5.2666,5.2759,5.3077,5.3862,5.5265,5.5743,5.5555,5.4885,5.4729,5.434,5.3534,5.3286,5.274,5.1725,5.1598,5.1387,5.1019,5.0896,5.1376,5.2517,5.3296,5.3361,5.2937,5.2499,5.2053,5.1778,5.1778,5.1557,5.1258,5.1704,5.1196,5.0055,0.0,0.0,0.0,0.0,0.0,0.0,0.0,0.0,1.1972,1.2115,1.2103,1.184,1.1251,1.0695,0.0,0.0,0.0,0.0,0.0,0.0,0.0,0.0,0.0,0.0,0.0,0.0,0.0,1.3414,0.0,0.0,0.0,0.0,0.0,0.0,0.0,0.0,0.0,0.0,0.0,0.0,0.0,0.0,0.0,0.0,0.0,0.0,0.0,0.0,0.0,0.0,3.0834,3.3621,3.5823,3.8907,4.1848,4.3306,4.5283,4.7252,4.8457,4.9727,5.0638,5.042,5.0575,5.0602,4.9893,4.9222,0.0,4.8014,4.7471,4.712,4.6963,4.7643,4.8143,0.0,4.888,4.9926,5.0906,5.0793,5.0835,5.1418,5.1277,0.0,5.128,5.1565,0.0,5.1929,5.1866,5.266,5.4514,5.4745,5.4394,5.3469,5.3575,5.3106,5.213,5.1989,5.1209,4.9723,4.9405,4.8938,4.82,4.7898,4.8349,4.9548,5.0448,5.145,5.2362,5.1135,5.0618,5.0618,5.0864,5.1032,5.1258,5.1941,5.2158,5.1746,0.0,0.0,0.0,0.0,0.0,0.0,0.0,0.0,1.3436,1.3802,1.3315,1.2789,1.2522,1.1736,0.0,0.0,0.0,0.0,0.0,0.0,0.0,0.0,0.0,0.0,0.0,0.0,0.0,1.471,1.7236,0.0,0.0,0.0,0.0,0.0,0.0,2.2155,0.0,0.0,0.0,0.0,0.0,0.0,0.0,0.0,0.0,0.0,0.0,0.0,0.0,0.0,0.0,3.3008,3.5608,3.875,4.1785,4.3454,0.0,0.0,4.877,5.0354,5.1593,5.1375,5.1526,5.1544,5.1055,0.0,4.9662,4.8901,4.8432,4.8148,4.8029,4.806,4.7967,0.0,0.0,4.9866,5.1835,5.0947,5.0533,5.1619,0.0,0.0,5.0906,5.0738,5.0743,5.0958,5.079,5.1161,5.2549,5.2887,5.292,5.2691,5.2166,5.1289,5.0174,4.9596,4.8536,4.6932,4.7204,4.6823,4.6022,4.6108,4.6683,4.7558,4.7652,4.8215,0.0,4.8934,4.8852,4.8934,4.9677,5.0464,5.1183,5.1258,5.1333,5.1002,0.0,0.0,0.0,0.0,0.0,0.0,0.0,1.4414,1.4654,1.4694,1.4597,1.4218,1.326,1.301,0.0,0.0,0.0,0.0,0.0,0.0,0.0,0.0,0.0,0.0,0.0,0.0,0.0,1.6791,1.8885,0.0,0.0,0.0,0.0,0.0,0.0,2.2371,2.151,0.0,0.0,0.0,0.0,0.0,0.0,0.0,0.0,0.0,0.0,0.0,0.0,0.0,0.0,0.0,3.4607,3.7407,0.0,0.0,4.5522,4.773,4.9539,5.1225,5.2433,5.2909,5.2933,5.2758,5.2323,0.0,5.0729,4.9893,4.9164,4.8706,4.866,4.8415,4.8196,0.0,0.0,0.0,5.0175,4.9587,4.9334,5.0279,5.0102,0.0,0.0,0.0,4.9921,4.9079,4.8789,4.8799,4.9334,5.0572,5.1179,5.1017,5.057,4.9968,4.9269,4.8817,4.7947,4.6759,4.6152,4.5627,4.5274,4.4533,4.4414,4.4919,4.517,4.5976,0.0,4.7609,4.8133,4.8604,4.8934,4.8655,4.7972,4.8465,4.8592,4.8502,0.0,0.0,0.0,0.0,0.0,0.0,1.4794,1.5177,1.549,1.5468,1.55,1.5164,1.4114,1.3988,1.3476,1.2169,0.0,0.0,0.0,0.0,0.0,0.0,0.0,0.0,0.0,0.0,0.0,1.8026,2.0079,2.1671,0.0,0.0,2.3822,2.3747,0.0,0.0,0.0,0.0,0.0,0.0,0.0,0.0,0.0,0.0,0.0,0.0,0.0,0.0,0.0,0.0,0.0,0.0,0.0,0.0,0.0,0.0,4.531,4.7742,5.0079,5.2026,5.3585,5.4359,5.4419,5.4157,0.0,0.0,5.2082,5.0966,5.0196,4.9616,4.9321,4.8906,4.8584,0.0,0.0,4.8609,4.9135,4.8681,4.8546,4.9104,0.0,4.9419,0.0,4.9418,4.8763,4.7539,4.7081,4.6903,4.6887,4.8164,4.9094,4.9556,4.9062,4.858,4.8267,4.7731,4.6993,4.6094,4.5184,4.4655,4.4435,4.3304,4.2865,4.2945,4.3265,4.3915,0.0,4.6285,4.7452,4.8202,4.8537,4.7947,4.7098,4.7581,4.7394,4.6876,0.0,0.0,0.0,0.0,0.0,0.0,0.0,1.5538,1.5775,1.6341,1.58,1.5315,1.511,1.4595,1.4173,1.3905,0.0,0.0,0.0,0.0,0.0,0.0,0.0,0.0,0.0,0.0,0.0,0.0,0.0,2.2774,2.4461,2.4609,2.5069,2.5713,0.0,0.0,0.0,0.0,0.0,0.0,0.0,0.0,0.0,0.0,0.0,0.0,0.0,0.0,0.0,0.0,0.0,0.0,0.0,0.0,0.0,0.0,4.5253,4.8411,4.9941,5.2658,5.5098,5.5353,5.5632,5.5683,5.5215,5.4496,5.355,5.2245,5.1609,5.1026,5.0095,4.9579,4.9264,4.9304,0.0,0.0,4.9395,4.8647,4.8145,0.0,0.0,4.8695,4.8754,4.8131,4.743,4.6554,4.5955,0.0,4.6007,4.602,4.6846,4.8481,4.7598,4.7024,4.6981,4.6045,4.5096,4.4195,4.4181,4.3853,4.3238,4.261,4.2251,4.2092,4.2092,4.2107,0.0,4.485,4.6506,4.7381,4.8286,4.9097,4.9884,4.9884,4.8568,4.6876,0.0,0.0,0.0,0.0,0.0,0.0,0.0,0.0,1.6074,1.5825,1.5727,1.5495,1.5081,1.4833,1.4562,1.4287,0.0,0.0,0.0,0.0,0.0,0.0,0.0,0.0,0.0,0.0,0.0,0.0,0.0,0.0,0.0,0.0,2.3116,2.3287,2.2512,0.0,0.0,0.0,0.0,0.0,0.0,0.0,0.0,0.0,0.0,0.0,0.0,0.0,0.0,0.0,0.0,0.0,0.0,0.0,0.0,0.0,0.0,0.0,4.9834,5.2569,5.5039,5.5469,5.5634,5.5538,5.5266,5.4043,5.2871,5.2159,5.1304,5.0595,5.0257,4.9256,4.8565,4.8723,4.8253,0.0,0.0,0.0,0.0,4.8573,4.8978,4.9127,0.0,0.0,4.7304,4.624,4.5783,4.5602,4.5421,4.5595,4.6337,4.7596,4.6904,4.6462,4.6432,4.5912,4.5281,4.4578,4.4305,4.3867,4.3253,4.3227,4.2668,4.1662,4.1926,4.2407,4.3152,4.5776,4.6301,4.5654,4.7814,4.7642,4.6314,4.6878,4.6697,4.6207,0.0,0.0,0.0,0.0,0.0,0.0,0.0,0.0,1.63,1.5889,1.5696,1.5544,1.5396,1.498,1.4859,1.5123,0.0,0.0,0.0,0.0,0.0,0.0,0.0,0.0,0.0,0.0,0.0,0.0,0.0,0.0,0.0,0.0,0.0,0.0,0.0,0.0,0.0,0.0,0.0,0.0,0.0,0.0,2.5202,0.0,0.0,0.0,0.0,0.0,0.0,0.0,0.0,0.0,0.0,0.0,0.0,0.0,4.5235,4.8043,0.0,5.2515,5.4908,5.544,5.5556,0.0,5.4893,5.3958,5.2922,5.2075,5.1367,5.0859,5.0715,4.9457,4.8403,4.8392,4.7836,4.7396,0.0,0.0,0.0,4.8502,0.0,0.0,0.0,4.8006,4.7271,4.6225,4.5852,4.5472,4.4991,4.5287,4.6022,4.7097,4.6483,4.6059,4.5775,4.544,4.5029,4.4504,4.428,4.3976,4.3698,4.3724,4.324,4.241,4.2603,4.321,0.0,4.6025,4.593,4.4741,4.6434,4.6221,4.5114,4.5589,4.5807,4.588,0.0,0.0,0.0,0.0,0.0,0.0,0.0,0.0,0.0,0.0,0.0,1.5508,1.5918,1.5127,0.0,0.0,0.0,0.0,0.0,0.0,0.0,0.0,0.0,0.0,0.0,0.0,0.0,1.8395,1.9495,2.0638,2.1805,0.0,0.0,0.0,0.0,0.0,0.0,0.0,0.0,0.0,0.0,0.0,0.0,0.0,0.0,0.0,0.0,0.0,0.0,0.0,0.0,0.0,0.0,0.0,0.0,0.0,0.0,0.0,0.0,5.2549,5.4577,5.5195,5.543,5.5301,5.4295,5.3959,0.0,5.1942,5.1579,5.1534,5.1248,4.9914,4.876,4.8247,4.7476,4.6956,0.0,4.7448,0.0,0.0,4.8538,0.0,4.8273,4.7731,4.714,4.6525,4.599,4.5401,4.4761,4.5072,4.5741,4.68,4.6288,4.5751,4.523,4.4798,4.4456,4.3996,4.409,4.4143,4.4326,4.404,4.3901,0.0,4.3845,4.432,0.0,4.5716,4.5361,4.4603,4.471,4.5117,4.5735,4.5735,4.5735,4.588,0.0,0.0,0.0,0.0,0.0,0.0,0.0,0.0,0.0,0.0,0.0,1.5998,1.567,1.5315,0.0,0.0,0.0,0.0,0.0,0.0,0.0,0.0,0.0,0.0,0.0,0.0,0.0,1.8379,1.8916,1.979,2.0906,2.045,0.0,0.0,0.0,0.0,1.9874,0.0,0.0,0.0,0.0,0.0,0.0,0.0,0.0,0.0,3.0076,3.1561,0.0,0.0,0.0,0.0,0.0,0.0,0.0,0.0,4.4908,4.7098,4.9515,0.0,5.3736,5.4468,5.4834,5.4883,0.0,5.3445,5.247,5.1725,0.0,5.0643,5.0595,4.8934,4.7934,4.8789,4.8149,4.7695,4.8158,4.9064,0.0,5.0064,5.0019,4.9622,4.8952,4.8568,4.7814,4.6552,4.6355,4.5944,4.5125,4.5395,4.5769,4.6222,4.6282,4.6406,4.6476,4.5846,4.5197,4.4332,4.4635,4.4338,4.3722,4.4478,4.4181,4.3185,4.3313,4.4137,4.5289,4.5372,4.5257,4.5035,4.5449,4.534,4.4889,4.4889,4.5278,4.588,0.0,0.0,0.0,0.0,0.0,0.0,0.0,0.0,0.0,0.0,0.0,0.0,0.0,0.0,0.0,0.0,0.0,0.0,0.0,0.0,0.0,0.0,0.0,0.0,0.0,0.0,0.0,0.0,0.0,1.9277,0.0,0.0,0.0,0.0,0.0,0.0,1.9049,1.9162,1.9654,0.0,2.0736,0.0,0.0,0.0,0.0,0.0,3.06,3.2088,0.0,3.5449,3.6886,3.8057,0.0,0.0,0.0,0.0,4.5495,4.7446,5.0215,5.2144,5.3644,5.4507,5.4822,5.467,5.4194,0.0,0.0,0.0,0.0,5.045,5.0434,4.9168,4.8388,4.9228,4.8584,0.0,0.0,0.0,5.0434,5.0628,5.0422,5.002,0.0,4.8895,4.8074,4.6565,4.6473,4.6075,4.5017,4.5381,4.5822,4.6196,4.6393,4.6451,4.6269,4.6031,4.5454,4.4456,4.4761,4.4562,4.3919,4.4316,4.4105,4.3338,4.356,4.4074,4.4733,4.5054,4.517,4.5236,4.5692,4.5544,4.5002,4.4726,4.5114,4.588,0.0,0.0,0.0,0.0,0.0,0.0,0.0,0.0,0.0,0.0,0.0,0.0,0.0,0.0,0.0,0.0,0.0,0.0,0.0,0.0,0.0,0.0,0.0,0.0,0.0,0.0,0.0,0.0,0.0,0.0,0.0,0.0,1.9038,0.0,0.0,1.8347,1.853,1.8709,1.9121,1.9683,2.0633,0.0,0.0,0.0,0.0,0.0,0.0,0.0,0.0,3.63,3.7744,3.8782,4.0182,0.0,0.0,0.0,0.0,0.0,5.1134,5.2986,5.415,5.486,5.4895,5.4672,5.3823,0.0,0.0,0.0,0.0,0.0,0.0,5.0006,0.0,0.0,0.0,0.0,4.9954,5.0396,5.0666,5.1044,5.046,0.0,4.9562,4.8992,4.8057,4.6434,4.6342,4.5872,4.4787,4.5274,4.5822,4.6423,4.642,4.6102,4.5587,4.5792,4.5537,4.4594,4.483,4.4648,4.4303,4.3934,4.3687,4.365,0.0,0.0,4.3789,4.4457,4.4906,4.514,4.5535,4.5566,4.5361,4.4987,4.5151,4.588,0.0,0.0,0.0,0.0,0.0,0.0,0.0,0.0,0.0,0.0,0.0,0.0,0.0,0.0,0.0,0.0,0.0,0.0,0.0,0.0,0.0,0.0,0.0,0.0,0.0,0.0,0.0,0.0,0.0,0.0,1.8417,1.8092,1.7921,0.0,1.7429,1.7585,1.8022,1.8422,1.902,1.9711,2.0743,0.0,0.0,0.0,0.0,0.0,0.0,0.0,0.0,3.6238,3.8132,4.0102,3.9925,0.0,0.0,0.0,0.0,0.0,5.0817,5.3375,5.5051,5.4322,5.4661,5.4775,5.3615,0.0,0.0,0.0,0.0,0.0,0.0,5.0721,5.0458,0.0,0.0,5.081,0.0,0.0,5.1541,5.1607,0.0,5.0255,4.8983,4.8492,4.7675,4.5846,4.5754,4.5577,4.5112,4.5395,4.5742,4.6035,4.5813,4.5682,4.5587,4.5587,4.5438,4.5043,4.4549,4.4263,4.4007,4.3672,4.337,4.3027,0.0,4.2998,4.2382,4.3171,4.3823,4.4236,4.4466,4.4745,4.5175,4.5586,4.5494,4.5573,0.0,0.0,0.0,0.0,0.0,0.0,0.0,0.0,0.0,0.0,0.0,0.0,0.0,0.0,0.0,0.0,0.0,0.0,0.0,0.0,0.0,0.0,0.0,0.0,0.0,0.0,0.0,0.0,0.0,1.7594,1.7886,1.7302,1.7135,1.7191,1.6904,1.7299,1.825,1.8472,1.9215,2.032,0.0,0.0,0.0,0.0,0.0,0.0,0.0,0.0,0.0,0.0,3.8466,4.0235,4.0639,0.0,0.0,0.0,0.0,0.0,5.0709,5.2651,5.3954,5.4277,5.5199,5.5766,5.4552,0.0,0.0,0.0,0.0,0.0,0.0,0.0,5.1569,5.1741,0.0,5.2229,5.2441,5.234,5.201,0.0,0.0,5.0064,4.857,4.8101,4.7211,4.5689,4.5624,4.5485,4.522,4.5502,4.5702,4.6007,4.5782,4.5587,4.5587,4.4936,4.4575,4.4614,4.4523,4.4236,4.3776,4.3152,4.2838,4.2992,0.0,4.2195,4.2249,4.2975,4.351,4.3856,4.4542,4.4875,4.5054,4.5386,4.5794,4.6262,0.0,0.0,0.0,0.0,0.0,0.0,0.0,0.0,0.0,0.0,0.0,0.0,0.0,0.0,0.0,0.0,0.0,0.0,0.0,0.0,0.0,0.0,0.0,0.0,0.0,0.0,1.6784,1.7372,1.7423,1.7445,1.7346,1.6732,1.6689,0.0,1.6655,1.7256,1.8521,1.9064,1.9981,2.1167,0.0,0.0,0.0,0.0,0.0,0.0,0.0,0.0,0.0,0.0,0.0,0.0,0.0,0.0,0.0,4.5568,4.664,4.809,5.0929,5.2175,5.3021,5.4417,0.0,5.6433,5.5451,0.0,0.0,0.0,0.0,0.0,0.0,5.2168,0.0,5.2472,5.2758,5.288,5.2543,5.2574,5.2223,5.1279,5.0663,4.9647,4.8165,4.7484,4.6707,4.5454,4.5415,4.5328,4.5206,4.5369,4.5568,4.6007,4.5511,4.5234,4.5383,4.4176,4.3745,4.4105,4.4123,4.3918,4.3271,4.2514,4.23,4.2614,4.1893,4.1796,4.2195,4.2934,4.3407,4.3634,4.4467,4.4785,4.4765,4.5106,4.5776,4.6684,0.0,0.0,0.0,0.0,0.0,0.0,0.0,0.0,0.0,0.0,0.0,0.0,0.0,0.0,0.0,0.0,0.0,0.0,0.0,0.0,0.0,0.0,0.0,0.0,0.0,1.6683,1.7062,1.7069,1.7222,1.7175,1.6965,1.6588,1.6567,1.6919,1.6629,1.7235,1.863,2.0677,2.1694,2.2081,2.3865,0.0,0.0,0.0,0.0,0.0,0.0,0.0,0.0,0.0,0.0,0.0,0.0,0.0,4.5309,4.593,4.7204,4.8989,5.1942,5.2901,5.3419,5.4677,5.5453,0.0,5.5782,5.5301,0.0,5.4577,0.0,0.0,0.0,5.2575,5.2105,5.2554,5.2387,5.2179,5.2587,0.0,5.1865,5.0952,5.0136,4.9038,4.758,4.6975,4.6071,4.4839,4.4787,4.4883,4.5193,4.4878,4.5141,4.5993,4.4685,4.4189,4.4759,4.3565,4.3226,4.3868,4.331,4.2821,4.2504,4.2058,4.1661,4.143,4.1804,4.1853,4.1803,4.2844,4.3225,4.307,4.3369,4.3687,4.4126,4.4936,4.5515,4.608,0.0,0.0,0.0,0.0,0.0,0.0,0.0,0.0,0.0,0.0,0.0,0.0,0.0,0.0,0.0,0.0,0.0,0.0,0.0,0.0,0.0,0.0,0.0,1.7529,1.7813,1.7267,1.6973,1.7,1.6782,1.6763,1.6981,1.631,0.0,0.0,1.7161,1.7897,1.9251,2.1055,2.2353,2.3311,2.4776,2.6107,0.0,0.0,0.0,0.0,0.0,0.0,0.0,0.0,3.8331,3.977,0.0,0.0,4.5041,0.0,4.6775,4.8096,4.9984,5.1158,5.2228,5.406,5.4734,0.0,0.0,5.5277,5.541,5.4965,5.4647,0.0,0.0,0.0,5.1967,5.2408,5.2402,5.2205,5.2035,5.1874,5.1279,4.9752,4.9544,4.8652,4.6632,4.6445,4.5995,4.4785,4.5076,4.5063,4.4556,4.4858,4.4975,4.5151,4.4439,4.4116,4.4348,4.367,4.3451,4.3671,4.2876,4.2575,4.253,4.1827,4.1513,4.1513,4.1567,4.1694,4.1966,4.2626,4.2991,4.3076,4.3423,4.3754,4.4065,4.4587,4.5278,4.5952,0.0,0.0,0.0,0.0,0.0,0.0,0.0,0.0,0.0,0.0,0.0,0.0,0.0,0.0,0.0,0.0,0.0,0.0,0.0,0.0,0.0,0.0,0.0,1.7823,1.8391,1.741,1.6929,1.7085,1.6456,1.6409,1.6903,0.0,0.0,0.0,1.7577,1.8484,2.0194,2.1676,2.3091,2.4451,2.5771,2.7256,0.0,0.0,0.0,0.0,0.0,0.0,0.0,0.0,3.7713,0.0,0.0,0.0,0.0,0.0,4.6658,4.7751,4.8912,4.9819,5.0824,0.0,0.0,0.0,5.4193,5.5059,5.562,5.524,5.4592,0.0,0.0,0.0,0.0,0.0,5.1792,5.1725,5.1323,5.1323,5.0702,4.9123,4.8895,4.8162,4.6503,4.6229,4.5853,4.5128,4.5369,4.5275,4.4479,4.4743,4.4894,4.4719,4.4228,4.4096,4.4217,4.3836,4.36,4.3709,4.2799,4.244,4.2533,4.1959,4.1611,4.1379,4.1567,4.18,4.2131,4.2607,4.2915,4.3155,4.3518,4.3675,4.3817,4.4435,4.5114,4.588,0.0,0.0,0.0,0.0,0.0,0.0,0.0,0.0,0.0,0.0,0.0,0.0,0.0,0.0,0.0,0.0,0.0,0.0,0.0,0.0,0.0,0.0,0.0,1.7521,1.7396,1.7015,1.6988,1.728,1.6288,1.6115,1.6711,1.7041,0.0,0.0,1.7753,1.8799,2.1424,2.2869,2.4221,2.5433,2.7057,2.8233,2.9187,0.0,0.0,0.0,0.0,0.0,0.0,0.0,3.712,0.0,0.0,0.0,0.0,0.0,4.7002,4.8348,4.9277,4.9459,4.9559,0.0,0.0,0.0,5.315,5.4458,5.5668,5.5386,0.0,5.1772,5.0902,0.0,0.0,5.008,5.0446,5.0656,5.0656,5.0656,5.021,4.9051,4.8126,4.7503,4.7322,4.6209,4.5687,4.5953,4.5808,4.5448,4.516,4.4773,4.4664,4.4691,4.3972,4.3822,4.419,4.3836,4.3709,4.4021,4.2964,4.2376,4.221,4.2452,4.1928,4.1085,4.1702,4.2131,4.2474,4.285,4.3155,4.3329,4.3329,4.3329,4.3409,4.4266,4.5114,4.588,0.0,0.0,0.0,0.0,0.0,0.0,0.0,0.0,0.0,0.0,0.0,0.0,0.0,0.0,0.0,0.0,0.0,0.0,0.0,0.0,0.0,0.0,0.0,0.0,0.0,0.0,1.7303,1.7082,1.6694,1.6859,0.0,0.0,0.0,1.9475,0.0,0.0,0.0,2.3733,2.5153,2.6471,2.8475,2.9646,3.0369,0.0,0.0,0.0,0.0,0.0,0.0,0.0,0.0,0.0,0.0,0.0,0.0,4.497,4.6024,4.6859,4.7045,4.7683,0.0,4.9817,0.0,0.0,0.0,5.4403,0.0,0.0,5.3155,5.2142,5.0988,0.0,0.0,5.0139,5.0359,5.0329,4.9683,4.9691,4.9282,4.7623,4.7425,4.7159,4.6587,4.6339,4.6154,4.623,4.6225,4.6007,4.5367,4.5075,4.4888,4.4647,4.4152,4.3915,4.4027,4.4118,4.4209,4.4317,4.4124,4.3582,4.2707,4.2417,4.2124,4.1717,4.2429,4.2772,4.2835,4.3076,4.325,4.3329,4.3329,4.3329,4.3409,4.4266,4.5114,4.588,0.0,0.0,0.0,0.0,0.0,0.0,0.0,0.0,0.0,0.0,0.0,0.0,0.0,0.0,0.0,0.0,0.0,0.0,0.0,0.0,0.0,0.0,0.0,0.0,0.0,1.8049,1.7691,0.0,0.0,0.0,0.0,0.0,0.0,2.1028,0.0,2.2159,0.0,2.4555,2.5932,2.7342,2.8884,3.0079,3.1027,0.0,0.0,0.0,0.0,0.0,0.0,0.0,0.0,0.0,0.0,0.0,0.0,4.3837,4.4916,4.5883,4.6102,4.6762,0.0,4.9208,4.9689,5.0264,5.2244,0.0,0.0,0.0,0.0,5.0634,4.9831,4.9354,0.0,4.9172,4.9421,4.9472,4.915,4.909,4.862,4.7274,4.7117,4.6928,4.6417,4.6084,4.6164,4.6564,4.6531,4.6093,4.5407,4.528,4.4809,4.3931,4.3931,4.3926,4.3818,4.4209,4.4411,4.4411,4.4528,4.4058,4.2988,4.3197,4.2955,4.2542,4.2752,4.296,4.3155,4.325,4.3329,4.3329,4.3329,4.3488,4.4079,4.6005,4.6351,4.588,0.0,0.0,0.0,0.0,0.0,0.0,0.0,0.0,0.0,0.0,0.0,0.0,0.0,0.0,0.0,0.0,0.0,0.0,0.0,0.0,0.0,0.0,0.0,0.0,0.0,0.0,0.0,0.0,0.0,0.0,0.0,0.0,2.1545,2.3021,0.0,2.3847,2.4871,2.5368,2.6504,2.8069,2.8731,3.0023,3.1543,3.1342,0.0,0.0,0.0,0.0,0.0,0.0,0.0,0.0,0.0,0.0,4.1854,4.2455,4.3747,4.5119,4.5864,0.0,0.0,4.882,4.9261,0.0,5.0345,5.1206,5.1774,5.1877,0.0,4.7984,4.8116,4.7673,4.7405,4.7788,4.7954,4.8316,4.8872,4.8713,4.8301,4.7657,4.7071,4.6706,4.6594,4.5895,4.5803,4.6809,4.6606,4.6068,4.5344,4.5434,4.4785,4.3188,4.3766,4.3887,4.36,4.4115,4.4411,4.4411,4.4223,4.3835,4.3364,4.422,4.4225,4.3485,4.2966,4.293,4.3329,4.3329,4.3329,4.3329,4.3409,4.3879,4.5032,4.8294,4.7956,4.6024,0.0,0.0,0.0,0.0,0.0,0.0,0.0,0.0,0.0,0.0,0.0,0.0,0.0,0.0,0.0,0.0,0.0,0.0,0.0,0.0,0.0,0.0,0.0,0.0,0.0,0.0,0.0,0.0,0.0,0.0,0.0,0.0,0.0,2.3793,0.0,2.4978,2.5819,2.609,2.6897,2.8109,2.9406,3.1373,3.3365,3.2305,3.2126,0.0,0.0,0.0,0.0,0.0,0.0,0.0,3.795,3.9142,4.0452,4.1028,4.2305,4.3585,4.4024,4.487,0.0,0.0,4.8839,4.9812,4.9889,4.9769,4.9698,5.011,4.9343,4.8652,4.8496,4.8116,4.7887,4.7846,4.8155,4.8286,4.7933,4.8118,4.803,4.7126,4.6592,4.6407,4.6691,4.6514,4.6656,4.732,4.6993,4.6859,4.7091,4.609,4.5255,4.4908,4.4608,4.4221,4.3926,4.4021,4.4223,4.4411,4.404,4.4109,4.4556,4.4568,4.4834,4.5301,4.3826,4.325,4.3329,4.3329,4.3329,4.3329,4.4035,4.4419,4.48,4.6175,4.6661,4.6684,0.0,0.0,0.0,0.0,0.0,0.0,0.0,0.0,0.0,0.0,0.0,0.0,0.0,0.0,0.0,0.0,0.0,0.0,0.0,0.0,0.0,0.0,0.0,0.0,0.0,0.0,0.0,0.0,0.0,0.0,0.0,0.0,0.0,2.4659,0.0,2.5721,2.6206,2.6992,2.7504,2.7946,3.009,3.191,3.3223,3.2686,3.2573,3.2814,3.3758,0.0,0.0,0.0,0.0,0.0,0.0,0.0,3.9026,3.9884,4.0683,4.1605,4.2974,0.0,0.0,4.6634,0.0,4.896,4.8613,4.8019,4.7546,4.7538,4.7702,4.7703,4.7392,4.6946,4.657,4.6585,4.6592,4.6639,4.6712,4.715,4.7276,4.6688,4.6651,4.6624,4.6512,4.6388,4.6475,4.6914,4.6585,4.635,4.656,4.5857,4.5255,4.4881,4.4551,4.4221,4.4111,4.3998,4.4035,4.4223,4.4259,4.4733,4.5427,4.5252,4.5474,4.5735,4.3686,4.2945,4.3329,4.3329,4.3329,4.3409,4.4266,4.4572,4.4739,4.5499,4.6008,4.642,0.0,0.0,0.0,0.0,0.0,0.0,0.0,0.0,0.0,0.0,0.0,0.0,0.0,0.0,0.0,0.0,0.0,0.0,0.0,0.0,0.0,0.0,0.0,0.0,0.0,0.0,0.0,0.0,0.0,0.0,0.0,0.0,0.0,2.5508,0.0,2.6303,2.6449,2.7726,2.8176,2.8211,3.0333,3.1742,3.2521,3.2232,3.242,3.2959,3.358,3.3617,3.3436,3.4164,0.0,0.0,0.0,0.0,3.773,3.8621,3.9168,3.991,4.1829,0.0,4.3858,4.6002,4.7104,0.0,4.7206,4.6452,4.5798,4.5387,4.5847,4.618,4.575,4.5185,4.4821,4.4996,4.4802,4.498,4.5713,4.6266,4.6516,4.6395,4.6896,4.7028,4.6403,4.6343,4.6334,4.6596,4.6175,4.5761,4.5574,4.5595,4.5271,4.4382,4.4464,4.4423,4.4217,4.407,4.4038,4.4035,4.4504,4.4832,4.5035,4.5035,4.5049,4.5111,4.3007,4.2488,4.3105,4.325,4.3329,4.3409,4.4266,4.4648,4.4889,4.5573,4.588,4.608,0.0,0.0,0.0,0.0,0.0,0.0,0.0,0.0,0.0,0.0,0.0,0.0,0.0,0.0,0.0,0.0,0.0,0.0,2.0213,0.0,0.0,2.046,2.0392,0.0,0.0,0.0,0.0,0.0,0.0,0.0,0.0,0.0,0.0,2.6277,0.0,0.0,2.7103,2.748,2.8631,3.0095,2.9094,3.0516,3.2937,2.9955,3.0529,3.287,3.2749,3.3055,3.3563,3.4202,3.4708,0.0,0.0,0.0,3.6971,3.6812,3.802,3.9432,0.0,0.0,4.385,0.0,4.5881,4.6502,0.0,0.0,4.5387,0.0,4.5272,4.5054,4.4626,4.4425,4.4425,4.4425,4.4693,4.5099,4.5605,4.6001,4.6325,4.6487,4.689,4.7137,4.6833,4.7444,4.7703,4.7357,4.6916,4.6605,4.6387,4.6209,4.5733,4.4984,4.5491,4.5258,4.4217,4.4219,4.4098,4.4035,4.4317,4.3378,4.1367,4.1367,4.181,4.2586,4.2237,4.2175,4.2325,4.3025,4.3329,4.3409,4.4266,4.5039,4.5646,4.5735,4.6207,4.6754,0.0,0.0,0.0,0.0,0.0,0.0,0.0,0.0,0.0,0.0,0.0,0.0,0.0,0.0,0.0,2.0564,2.0352,2.0098,1.9661,2.0079,2.0337,2.0321,2.0655,2.0893,2.0975,0.0,0.0,0.0,0.0,0.0,0.0,2.6654,2.6665,0.0,0.0,0.0,0.0,0.0,2.8135,2.9095,3.055,3.1912,3.2929,3.1288,3.0462,3.0343,3.189,3.2283,3.2126,3.2784,3.3321,3.3779,3.3853,0.0,0.0,0.0,3.6269,0.0,3.8691,4.0928,4.3075,0.0,4.488,4.5181,4.5258,0.0,4.4293,4.3805,4.3508,4.3464,4.3872,4.3752,4.3551,4.3436,4.3708,4.3997,4.4289,4.5464,4.6361,4.6492,4.726,4.7653,4.7355,4.7267,4.722,4.7272,4.652,4.6191,4.6388,4.622,4.5858,4.5261,4.5921,4.5663,4.4231,4.4217,4.396,4.3538,4.363,4.2669,4.0702,4.1227,4.1396,4.1311,4.1829,4.2325,4.2799,4.317,4.3566,4.4035,4.4419,4.4814,4.5188,4.5662,4.6008,4.6278,0.0,0.0,0.0,0.0,0.0,0.0,0.0,0.0,0.0,0.0,0.0,0.0,0.0,0.0,0.0,0.0,1.954,1.9328,1.9248,1.9631,1.9906,2.0053,2.0705,2.1171,2.1365,0.0,0.0,0.0,0.0,0.0,2.7342,2.7727,2.7795,0.0,2.782,0.0,0.0,0.0,0.0,0.0,3.0843,3.2496,3.3326,3.3371,3.1828,2.9913,3.1671,3.1952,3.1567,3.1826,3.2199,3.2616,3.2968,3.3179,0.0,0.0,0.0,0.0,0.0,0.0,4.1199,4.2928,4.3395,4.3472,0.0,0.0,4.306,0.0,4.2031,4.2189,4.2938,4.2746,4.2518,4.2435,4.2648,4.3029,4.3387,4.4883,4.6088,4.6442,4.738,4.7926,4.7734,4.726,4.698,4.72,4.641,4.6043,4.6197,4.6336,4.6078,4.5504,4.6155,4.5929,4.4601,4.4123,4.3764,4.3406,4.3167,4.2284,4.0873,4.1745,4.1745,4.1043,4.1829,4.257,4.3329,4.3329,4.3801,4.4572,4.4572,4.4723,4.4964,4.5352,4.5646,4.5807,0.0,0.0,0.0,0.0,0.0,0.0,0.0,0.0,0.0,0.0,0.0,0.0,0.0,2.1603,2.0616,1.8421,1.8827,1.9228,1.9288,1.9388,1.9487,1.9623,2.0334,0.0,2.1015,0.0,0.0,0.0,0.0,0.0,2.711,2.7643,2.8842,3.0532,2.9148,2.8149,2.7434,0.0,0.0,0.0,0.0,3.0595,0.0,0.0,3.4976,0.0,0.0,3.2555,3.3124,3.2206,3.1873,3.1987,3.2853,3.3003,3.2859,0.0,0.0,0.0,0.0,3.75,0.0,4.0115,4.0949,0.0,0.0,0.0,4.1896,4.1071,4.1474,4.1852,4.1471,4.1275,4.126,4.161,4.2134,4.2834,4.3674,4.4269,4.5161,4.634,4.7128,4.7664,4.8021,4.8127,4.8025,4.7432,4.7204,4.6864,4.6222,4.6756,4.6726,4.6097,4.656,4.6487,4.5715,4.4,4.337,4.3857,4.2933,4.2066,4.1396,4.1829,4.2092,4.2009,4.2092,4.257,4.3329,4.3329,4.3801,4.4572,4.4572,4.5039,4.5662,4.4964,4.5129,4.5807,0.0,0.0,0.0,0.0,0.0,0.0,0.0,0.0,0.0,0.0,0.0,0.0,0.0,2.0342,1.9418,1.8092,1.739,1.6862,1.6499,1.7068,1.7699,1.8358,1.9169,1.9917,2.0601,0.0,0.0,0.0,0.0,2.4879,2.6595,2.7694,2.8709,2.9546,2.9122,2.9296,2.996,3.1636,0.0,0.0,0.0,0.0,0.0,0.0,0.0,0.0,0.0,0.0,3.2535,3.272,3.2355,3.1852,3.2193,3.1631,0.0,0.0,0.0,0.0,0.0,0.0,0.0,3.8973,3.9794,3.9996,4.077,4.1324,4.1486,4.1018,4.1114,4.1204,4.1053,4.1205,4.1566,4.2056,4.2509,4.3286,4.4584,4.5506,4.6692,4.8483,4.863,4.8597,4.8575,4.8164,4.7637,4.7116,4.6805,4.6607,4.6427,4.6905,4.6698,4.5428,4.5965,4.5662,4.4623,4.3575,4.2866,4.2418,4.2361,4.2053,4.1535,4.1647,4.2063,4.2864,4.2864,4.3025,4.3329,4.3879,4.4343,4.4572,4.4572,4.4814,4.4964,4.4739,4.4799,4.5114,0.0,0.0,0.0,0.0,0.0,0.0,0.0,0.0,0.0,0.0,0.0,0.0,0.0,0.0,1.8292,1.7092,1.6193,1.5487,1.4973,1.5556,1.6248,1.699,1.8082,1.9001,1.9682,0.0,0.0,0.0,0.0,0.0,0.0,2.686,2.8218,2.9343,2.9953,3.0473,0.0,0.0,0.0,2.9902,0.0,0.0,3.3343,0.0,0.0,0.0,0.0,0.0,0.0,3.3429,3.2612,3.1614,0.0,0.0,0.0,0.0,0.0,0.0,3.3285,0.0,0.0,0.0,0.0,3.7958,3.9553,0.0,4.0334,4.0263,4.0849,4.126,4.099,4.1398,4.1888,4.214,4.2626,4.3435,4.4765,4.5607,4.6836,4.8633,4.8494,4.8311,4.8413,4.7663,4.7045,4.6526,4.6541,0.0,4.5927,4.658,4.6262,4.4628,4.4894,4.4565,4.3737,4.3116,4.258,4.21,4.211,4.2051,4.2088,4.1901,4.2213,4.2945,4.317,4.3488,4.3801,4.4343,4.4572,4.4572,4.4572,4.4572,4.4572,4.4572,4.4002,4.3503,0.0,0.0,0.0,0.0,0.0,0.0,0.0,0.0,0.0,0.0,0.0,0.0,0.0,0.0,0.0,1.536,1.5396,1.5368,1.5011,1.5105,1.5328,1.5671,1.7117,1.801,1.8281,1.955,0.0,0.0,0.0,0.0,0.0,0.0,2.7449,3.011,3.1595,3.1557,3.0377,0.0,3.2104,3.3262,0.0,3.3339,3.5577,0.0,0.0,0.0,3.4783,3.5135,0.0,3.4243,0.0,0.0,0.0,0.0,0.0,0.0,0.0,0.0,0.0,0.0,0.0,0.0,0.0,0.0,3.7631,0.0,3.8318,3.8605,4.047,4.1852,4.1169,4.1591,4.1965,4.1804,4.2379,4.3152,4.4145,4.4652,4.538,4.6584,4.6652,4.6783,4.7339,4.6869,4.629,4.5765,4.637,4.6105,4.4717,4.5756,4.5612,4.3843,4.3437,4.3253,4.3239,4.2639,4.2596,4.3181,4.2208,4.2187,4.2934,4.267,4.2407,4.2175,4.2945,4.3801,4.4572,4.4572,4.4572,4.4648,4.4572,4.4526,4.4449,4.454,4.2786,4.1063,0.0,0.0,0.0,0.0,0.0,0.0,0.0,0.0,0.0,0.0,0.0,0.0,0.0,0.0,0.0,1.569,1.5832,1.5655,1.4767,1.4566,1.4836,1.5661,1.5744,1.6339,1.7546,1.8322,0.0,0.0,0.0,0.0,0.0,0.0,0.0,0.0,2.8181,2.9114,2.9321,3.2525,0.0,3.1992,3.3987,3.5026,0.0,0.0,0.0,0.0,0.0,3.5408,3.5616,0.0,3.3826,3.1891,0.0,0.0,0.0,0.0,0.0,0.0,2.8737,0.0,0.0,0.0,0.0,0.0,0.0,0.0,3.5094,3.7373,3.8101,3.8748,3.985,4.0635,4.1244,4.1741,4.2791,4.4065,4.5533,4.5894,4.6565,4.7823,4.7787,4.759,4.7501,4.7249,4.6893,0.0,4.6129,4.5816,4.5269,4.4507,4.3624,4.2498,4.3021,4.2828,4.1711,4.2348,4.2563,4.2305,4.2359,4.2532,4.279,4.2791,4.2718,4.2622,4.3723,4.4343,4.4572,4.4572,4.4964,4.5426,4.4814,4.3371,4.1718,4.2263,4.1983,4.1731,0.0,0.0,0.0,0.0,0.0,0.0,0.0,0.0,0.0,0.0,0.0,0.0,0.0,0.0,0.0,1.5669,1.5812,1.5595,1.4538,1.4502,1.4724,1.5127,1.5261,1.561,1.6237,1.6833,0.0,0.0,0.0,0.0,0.0,0.0,0.0,0.0,0.0,0.0,0.0,0.0,0.0,0.0,3.5774,0.0,0.0,3.629,3.6374,0.0,0.0,0.0,3.5693,3.5646,3.4143,0.0,0.0,0.0,0.0,0.0,0.0,0.0,0.0,0.0,0.0,0.0,0.0,0.0,3.2444,3.2849,3.3563,3.6291,3.6796,3.7247,3.8715,3.9573,4.0331,4.1059,4.1996,4.3265,4.4993,4.5355,4.5833,4.6653,4.6838,4.6809,4.6566,4.6725,4.6628,4.6113,4.5942,4.5552,4.4821,4.3094,4.2085,4.195,4.2213,4.2059,4.1344,4.213,4.229,4.1887,4.2195,4.2583,4.2835,4.2808,4.2837,4.301,4.4112,4.4149,4.3391,4.426,4.5039,4.5735,4.5278,4.4133,4.2591,4.1881,4.1785,4.2285,0.0,0.0,0.0,0.0,0.0,0.0,0.0,0.0,0.0,0.0,0.0,0.0,0.0,0.0,0.0,0.0,1.5876,1.5606,1.4607,1.4899,1.4965,1.456,1.5344,1.5505,1.4934,1.5416,0.0,0.0,0.0,0.0,0.0,0.0,0.0,0.0,0.0,0.0,0.0,0.0,0.0,3.1446,3.7076,3.8538,0.0,0.0,3.7119,3.7119,3.6916,3.6388,3.5762,3.5448,3.3742,0.0,0.0,0.0,0.0,0.0,2.4626,0.0,0.0,0.0,0.0,0.0,0.0,0.0,3.2102,3.241,3.2645,3.4742,3.5543,3.623,3.7191,3.7997,3.8737,3.937,4.0001,4.1152,4.3226,4.3722,4.3905,4.4041,4.4534,4.4911,4.5,4.5378,4.5573,4.5373,4.5466,4.4923,4.3497,4.1676,4.0972,4.157,4.1223,4.1207,4.143,4.1786,4.1833,4.1627,4.1833,4.2287,4.2837,4.2569,4.2737,4.3259,4.4113,4.3454,4.1933,4.3609,4.4662,4.5205,4.5277,4.5349,4.508,4.3004,4.2446,4.2696,2.2964,0.0,0.0,0.0,0.0,0.0,0.0,0.0,0.0,0.0,0.0,0.0,0.0,0.0,0.0,0.0,1.7903,1.7015,1.6066,1.5911,1.5747,1.545,1.5121,1.5176,1.5677,1.5139,0.0,0.0,0.0,0.0,0.0,0.0,0.0,0.0,0.0,0.0,0.0,0.0,0.0,3.2314,3.5648,0.0,3.875,3.7734,3.7184,3.6946,3.6905,3.6209,3.5126,3.3675,3.2367,3.0959,0.0,0.0,0.0,2.594,0.0,0.0,0.0,0.0,0.0,0.0,0.0,0.0,2.6976,2.7451,2.8303,3.0133,3.0768,3.1421,3.2983,3.3846,3.4253,3.4108,3.5677,3.8128,4.1727,4.2412,4.2498,4.259,4.2665,4.2977,4.3685,4.3669,4.4036,4.5153,4.3664,4.2213,4.111,4.0759,4.0212,3.9328,4.0235,4.0576,4.0232,4.122,4.1594,4.1211,4.1411,4.1639,4.1926,4.1881,4.2214,4.288,4.333,4.3407,4.3216,4.2496,4.1935,4.1604,4.2208,4.241,4.2683,4.4998,4.4789,4.3372,2.1998,0.0,0.0,0.0,0.0,0.0,0.0,0.0,0.0,0.0,0.0,0.0,0.0,0.0,0.0,0.0,0.0,0.0,0.0,0.0,1.6061,1.6191,1.5148,1.4759,1.5243,1.44,1.4091,0.0,0.0,0.0,0.0,0.0,0.0,0.0,0.0,0.0,0.0,0.0,2.9464,3.2617,3.5669,0.0,3.8924,3.8535,3.8193,3.7929,3.7742,3.6841,3.5486,3.3256,3.2538,0.0,2.9462,2.8818,2.8629,0.0,2.5782,2.5334,0.0,0.0,0.0,2.4148,0.0,0.0,0.0,2.6393,2.671,2.8285,2.8672,2.9026,3.0152,3.0617,3.0943,3.121,3.2509,3.4128,3.5916,3.8318,3.9911,3.9971,4.0646,4.1288,4.1805,4.2458,4.3126,4.3736,4.217,4.0814,4.0069,3.9404,3.8778,3.8141,3.8867,3.9087,3.8815,4.0218,4.0706,4.0263,4.089,4.1384,4.1701,4.1665,4.19,4.2337,4.3004,4.3153,4.2849,4.2715,4.2086,4.1323,4.1916,4.2973,4.434,4.5017,4.4747,4.4097,2.1055,0.0,0.0,0.0,0.0,0.0,0.0,0.0,0.0,0.0,0.0,0.0,0.0,0.0,0.0,0.0,0.0,0.0,0.0,0.0,0.0,1.6562,1.5429,1.4866,1.4941,1.3988,1.3582,0.0,0.0,0.0,0.0,0.0,0.0,0.0,0.0,0.0,0.0,0.0,0.0,3.2669,0.0,3.741,3.8159,3.8907,3.908,3.8755,3.8293,3.7342,3.6052,3.3709,3.3275,3.3147,3.0244,2.9836,0.0,0.0,0.0,0.0,0.0,0.0,0.0,0.0,0.0,2.5156,0.0,0.0,0.0,2.6829,2.7077,2.723,2.7611,0.0,0.0,0.0,0.0,0.0,0.0,3.2948,0.0,3.6469,3.7864,3.8959,3.9373,4.1051,4.2008,4.1659,4.0633,3.9786,3.9268,3.8082,3.7417,3.7285,3.748,3.7524,3.7343,3.8852,3.9404,3.8912,3.9945,4.0622,4.1064,4.1036,4.1093,4.1247,4.2372,4.2442,4.1836,4.2925,4.29,4.2238,4.2492,4.4107,4.6043,4.4429,4.4155,4.4626,1.9831,2.0198,0.0,0.0,0.0,0.0,0.0,0.0,0.0,0.0,0.0,0.0,0.0,0.0,0.0,0.0,0.0,0.0,1.7426,0.0,0.0,1.6184,1.6243,1.623,1.6192,1.4919,1.459,0.0,0.0,0.0,0.0,0.0,0.0,0.0,2.3004,0.0,0.0,0.0,2.9667,0.0,3.4226,3.5457,0.0,3.8024,3.8438,3.8104,3.7326,3.6772,3.6169,0.0,3.3884,3.2902,0.0,3.114,3.0939,2.8755,0.0,0.0,0.0,0.0,0.0,0.0,2.6053,0.0,0.0,0.0,2.4787,2.3681,0.0,2.4547,0.0,0.0,0.0,0.0,0.0,0.0,2.5887,2.6986,2.8989,3.2032,3.3324,3.4609,3.6164,3.8583,3.9722,3.8919,3.8671,3.8235,3.7524,3.7342,3.691,3.6206,3.6573,3.6574,3.6084,3.7044,3.7425,3.7177,3.791,3.8409,3.8605,3.8744,3.8959,3.9234,4.0397,4.091,4.0992,4.1901,4.2382,4.2522,4.2555,4.3141,4.4015,4.4347,4.4514,4.4682,1.945,1.9797,0.0,0.0,0.0,0.0,0.0,0.0,0.0,0.0,0.0,0.0,0.0,0.0,0.0,0.0,0.0,1.8267,0.0,0.0,0.0,0.0,1.5968,1.5791,1.6225,1.5324,1.5067,1.5502,1.6072,0.0,0.0,0.0,0.0,0.0,2.2865,0.0,2.6333,0.0,2.8241,0.0,0.0,0.0,0.0,3.716,3.7852,3.7239,3.7161,3.6878,3.6315,0.0,3.4615,0.0,0.0,0.0,0.0,3.0264,0.0,0.0,0.0,0.0,0.0,0.0,0.0,0.0,2.4007,0.0,2.3335,0.0,0.0,0.0,0.0,0.0,0.0,0.0,2.2716,0.0,0.0,0.0,2.557,0.0,0.0,0.0,3.2777,3.5579,3.7055,3.656,3.6833,3.684,3.6389,3.5927,3.5525,3.5138,3.5184,3.5128,3.4794,3.5796,3.6183,3.5885,3.6682,3.733,3.7892,3.8116,3.8541,3.9138,3.9803,4.0291,4.0539,4.1776,4.2692,4.3486,4.4013,4.4236,4.427,4.4831,4.5049,4.5211,1.9228,0.0,0.0,0.0,0.0,0.0,0.0,0.0,0.0,0.0,0.0,0.0,2.2889,2.252,0.0,0.0,1.953,1.8902,0.0,0.0,1.6737,1.7045,1.5991,1.5686,1.6272,1.5778,1.5714,1.6167,0.0,0.0,0.0,0.0,0.0,0.0,0.0,2.4521,2.6154,0.0,2.7931,2.9911,3.0627,3.1716,3.3291,3.6362,3.7141,3.6618,3.7061,3.6944,3.6453,3.5748,3.541,0.0,3.3924,0.0,3.2436,0.0,0.0,0.0,2.9265,0.0,0.0,0.0,0.0,0.0,0.0,0.0,0.0,0.0,0.0,0.0,0.0,0.0,0.0,0.0,0.0,2.0323,0.0,2.0645,0.0,0.0,0.0,0.0,0.0,3.2027,3.3805,3.4079,3.4383,3.4834,3.5533,3.4809,3.4361,3.4261,3.4074,3.3818,3.3504,3.4618,3.5084,3.4862,3.572,3.6414,3.7033,3.7419,3.7979,3.8605,3.9356,3.9838,4.0232,4.1805,4.2991,4.3905,4.4267,4.4333,4.4381,4.4743,4.5102,4.5567,1.9026,1.9479,0.0,0.0,0.0,0.0,0.0,0.0,0.0,0.0,0.0,0.0,0.0,0.0,0.0,0.0,0.0,2.037,1.921,0.0,1.7446,1.6924,1.6792,1.6747,1.6783,1.6448,1.6775,1.7815,1.7602,0.0,0.0,0.0,0.0,0.0,0.0,2.3939,2.4846,2.7766,2.9854,3.1326,3.2102,3.3422,3.4978,0.0,3.6146,3.6527,3.692,0.0,0.0,3.7137,3.6269,0.0,0.0,0.0,0.0,0.0,0.0,0.0,0.0,0.0,0.0,2.8034,0.0,0.0,0.0,0.0,2.3856,0.0,0.0,0.0,0.0,0.0,0.0,0.0,0.0,0.0,0.0,0.0,0.0,0.0,0.0,0.0,0.0,2.7771,2.9646,3.121,3.0873,3.1847,3.4767,3.4253,3.3793,3.3728,3.3478,3.2999,3.2262,3.3489,3.4069,3.3958,3.487,3.5329,3.5392,3.6283,3.6657,3.6769,3.8654,3.964,3.9946,4.1808,4.2974,4.3506,4.2227,4.2458,4.3556,4.3556,4.4419,4.5659,0.0,0.0,0.0,0.0,0.0,0.0,0.0,2.1511,0.0,0.0,2.228,0.0,0.0,2.2585,2.2338,0.0,0.0,2.056,1.9722,1.8916,0.0,1.7896,1.7453,1.7208,0.0,1.7034,1.72,1.7816,1.7965,0.0,0.0,0.0,0.0,0.0,0.0,2.3743,0.0,0.0,0.0,0.0,0.0,3.2124,3.3512,0.0,3.4957,3.5403,3.5994,3.6114,0.0,3.6764,3.6441,3.5786,3.5933,3.5328,3.4601,3.4965,3.5034,0.0,0.0,0.0,3.3286,3.0013,0.0,0.0,0.0,0.0,0.0,0.0,0.0,0.0,0.0,0.0,0.0,0.0,0.0,0.0,0.0,0.0,0.0,0.0,0.0,0.0,0.0,0.0,2.7103,2.9363,2.9047,2.9809,3.2229,3.1951,3.1757,3.1907,3.1911,3.1771,3.1555,3.242,3.2825,3.2772,3.3747,3.4494,3.5064,3.5449,3.6184,3.7196,3.7616,3.8318,3.9273,4.0024,4.0489,4.085,4.1528,4.2418,4.3614,4.6133,4.6015,4.4924,1.8669,0.0,0.0,0.0,0.0,0.0,0.0,0.0,0.0,0.0,2.2038,0.0,2.1931,0.0,2.2331,0.0,2.1691,2.1319,2.0233,1.9614,0.0,1.8314,1.7762,1.744,0.0,1.745,1.7584,1.7833,1.8125,1.843,0.0,0.0,0.0,0.0,0.0,2.2941,2.4843,2.6969,2.8176,0.0,0.0,3.1263,0.0,0.0,3.3295,3.4126,0.0,3.5503,3.5963,3.6705,3.6762,3.658,3.68,3.6274,3.5664,3.6289,3.631,3.6085,3.5765,3.5284,0.0,3.1618,2.989,0.0,2.5062,0.0,2.42,0.0,0.0,0.0,0.0,0.0,0.0,0.0,0.0,0.0,0.0,1.6197,0.0,0.0,0.0,0.0,0.0,2.2171,2.4272,2.7308,2.7031,2.7794,0.0,3.033,3.0372,3.046,3.0836,3.1126,3.1207,3.2022,3.2549,3.2803,3.3724,3.4444,3.4984,3.5346,3.6104,3.7162,3.739,3.8101,3.9189,3.961,4.0103,4.0733,4.1979,4.2808,4.3595,4.5989,4.5723,4.4554,1.8755,0.0,0.0,0.0,2.0763,0.0,0.0,0.0,2.1661,0.0,2.1499,2.1543,2.1126,2.2158,2.2663,2.2016,2.2854,2.2633,2.0887,2.0248,0.0,0.0,1.7867,1.7552,1.7299,1.7777,1.8003,1.7946,1.8117,1.8448,0.0,0.0,0.0,0.0,2.0934,0.0,2.172,2.6222,2.7946,2.7841,2.9513,3.1001,3.2087,3.1075,3.1523,3.2787,3.387,3.4923,3.5952,3.6875,3.7177,3.7337,3.8211,3.8057,3.7596,3.7791,3.8129,3.8222,3.723,3.6047,3.4651,3.2848,3.1065,0.0,0.0,0.0,2.5933,0.0,0.0,0.0,0.0,0.0,0.0,0.0,0.0,0.0,0.0,0.0,1.5715,0.0,1.7059,1.8546,1.9505,1.9701,2.1306,2.497,2.4785,2.5826,0.0,2.9369,2.9559,2.9409,3.0256,3.0876,3.1097,3.2239,3.3143,3.3836,3.4529,3.4961,3.5168,3.593,3.6407,3.6602,3.7874,3.884,3.9613,4.0531,4.1709,4.2957,4.3339,4.3495,4.3406,4.3286,4.3758,4.4664,1.8221,1.8584,1.9137,0.0,2.0511,2.1309,0.0,0.0,0.0,0.0,2.1755,2.1702,2.1927,2.2594,2.2964,2.2924,2.3144,0.0,0.0,0.0,0.0,2.0187,1.9286,1.8723,1.8555,1.8319,1.8308,1.8476,1.8461,1.8428,1.845,0.0,0.0,0.0,0.0,0.0,2.346,2.5851,2.7189,2.7899,3.0368,3.0534,2.959,0.0,3.2926,3.218,3.3348,3.4047,3.4688,3.6476,3.7127,3.7319,3.8052,3.8295,3.8346,3.8554,3.8766,3.8738,3.7942,3.7113,3.5994,3.3931,3.207,3.0087,0.0,0.0,0.0,0.0,0.0,0.0,0.0,0.0,0.0,0.0,0.0,0.0,0.0,0.0,0.0,1.6337,1.6287,1.6753,1.8074,1.9033,2.0641,2.3198,2.3276,0.0,0.0,0.0,2.7429,2.7842,2.915,2.9777,2.9659,3.0812,3.1848,3.2657,3.3773,3.466,3.535,3.5819,3.6461,3.7222,3.7172,3.7774,3.8939,4.0694,4.2175,4.3339,4.3444,4.3152,4.2717,4.3664,4.4653,4.5515,1.797,1.8467,0.0,1.8882,0.0,0.0,2.2192,2.1672,0.0,2.2376,2.2066,0.0,2.2028,2.254,2.2957,2.3094,2.3487,0.0,2.3458,0.0,0.0,2.1105,2.0339,1.9744,1.931,1.8915,0.0,1.8619,1.8468,0.0,1.8659,0.0,0.0,0.0,0.0,2.1187,2.4564,2.5185,2.647,2.8233,2.9646,2.9422,0.0,3.1534,3.2921,3.3295,3.3502,3.4008,3.4877,3.6436,3.7219,3.7614,3.834,3.8658,3.8826,3.896,3.912,3.9163,3.8742,3.7804,3.6664,3.5395,3.364,3.152,2.885,2.7806,2.6723,0.0,2.2807,2.1628,0.0,0.0,0.0,0.0,0.0,0.0,0.0,0.0,0.0,0.0,1.5766,1.5946,1.6789,1.7654,1.8967,2.099,2.1506,0.0,0.0,0.0,2.6625,2.7105,2.8573,2.9448,2.9704,3.061,3.1716,3.3053,3.4024,3.4965,3.5924,3.6224,3.6783,3.7434,3.7249,3.7588,3.8413,3.9572,4.0926,4.2216,4.2535,4.2477,4.2258,4.316,4.4071,4.4872,1.787,0.0,0.0,0.0,0.0,0.0,0.0,2.1991,0.0,2.2834,0.0,2.2133,2.2033,2.2546,2.2922,2.3006,0.0,2.398,2.3069,2.3185,2.2838,2.1731,2.1355,2.0797,1.9933,1.9715,1.928,0.0,0.0,0.0,0.0,0.0,0.0,0.0,0.0,0.0,0.0,2.4386,2.5701,2.7997,2.7743,2.795,2.8558,2.9712,3.2157,3.483,3.3907,3.4415,3.5693,3.6635,3.733,3.797,3.8785,3.9175,3.9277,3.9138,3.9349,3.9556,3.9279,3.8115,3.6926,3.666,3.5183,3.2995,3.0117,2.8793,2.745,2.5104,2.2853,2.1442,0.0,0.0,0.0,0.0,0.0,0.0,0.0,0.0,0.0,0.0,0.0,0.0,1.5679,1.6235,1.7305,1.894,1.9944,0.0,0.0,0.0,2.6342,2.6835,2.8304,2.9499,3.0382,3.09,3.2106,3.3862,3.4389,3.5311,3.6516,3.6773,3.7135,3.7487,3.7578,3.7841,3.8201,3.8234,3.919,4.0677,4.1249,4.1576,4.1782,4.2014,4.25,4.312,1.744,0.0,0.0,0.0,0.0,2.0882,2.3198,2.2852,2.2586,2.3309,2.3143,2.3214,2.3762,2.3814,2.3794,2.3806,2.4311,0.0,0.0,0.0,0.0,2.3751,2.3077,2.22,2.1146,2.1151,2.0659,0.0,0.0,0.0,0.0,0.0,0.0,0.0,0.0,0.0,2.2637,2.3905,0.0,2.4953,2.4668,2.6585,2.9625,2.9813,3.1461,3.3748,3.3925,3.4522,3.5401,3.6761,3.73,3.7627,3.8864,3.9802,4.0232,3.9361,3.9677,3.9993,3.8579,3.7839,3.7276,3.6425,3.5066,3.3484,3.1812,3.0116,2.8306,2.6236,2.4673,2.3161,2.1421,0.0,0.0,0.0,0.0,0.0,0.0,0.0,0.0,0.0,0.0,1.5329,1.5015,1.661,1.7977,1.8846,0.0,0.0,0.0,0.0,2.5136,0.0,2.8213,0.0,0.0,0.0,3.1266,3.2437,3.3122,3.4276,3.5927,3.6213,3.6916,3.7879,3.7347,3.7763,3.8851,3.8902,3.9852,4.1218,4.0966,4.0645,4.0352,4.0479,4.0326,4.0358,1.8861,0.0,0.0,0.0,0.0,0.0,0.0,2.4628,2.4913,2.4992,2.4423,2.4109,2.4436,2.4106,2.4,2.4207,2.4505,2.4843,2.5223,2.51,2.4783,2.4248,2.4122,2.3463,2.2214,2.1754,2.075,1.9093,0.0,0.0,0.0,0.0,0.0,0.0,0.0,2.1046,0.0,0.0,0.0,2.419,2.4074,2.5293,2.7402,2.9172,3.0751,3.218,3.3516,3.4282,3.4976,3.6946,3.7547,3.7695,3.9119,3.9783,4.0019,3.9788,3.9761,3.964,3.905,3.8118,3.7186,3.6458,3.5198,3.3758,3.2331,3.0573,2.887,2.7592,2.5634,2.3412,2.0957,1.8858,0.0,0.0,0.0,0.0,0.0,0.0,1.6153,0.0,0.0,0.0,0.0,0.0,0.0,0.0,0.0,0.0,0.0,0.0,2.4602,0.0,0.0,0.0,2.9738,0.0,3.1124,3.2377,3.2882,3.3925,3.5436,3.5687,3.6195,3.6888,3.6692,3.703,3.7757,3.8021,3.8573,3.9255,3.9104,3.8969,3.8878,3.8965,3.8892,3.8968,0.0,1.9863,0.0,0.0,2.2368,2.3283,2.501,2.6399,2.7065,2.649,2.5639,2.5074,2.4933,2.4507,2.4374,2.4697,2.4926,2.5092,2.5222,2.5705,2.5531,2.4627,2.4994,2.4628,2.3398,2.2518,2.1189,0.0,0.0,0.0,0.0,0.0,0.0,0.0,0.0,0.0,0.0,0.0,2.4138,2.4431,2.5972,2.6313,2.6202,2.9363,3.0574,3.0865,3.2822,3.3978,3.4917,3.6969,3.7674,3.787,3.9131,3.9628,3.9802,4.0141,3.9896,3.9597,3.9868,3.8875,3.7579,3.7095,3.5905,3.449,3.3153,3.1466,2.9975,2.9204,2.6628,2.382,2.1381,1.9822,0.0,0.0,0.0,0.0,0.0,0.0,0.0,0.0,0.0,0.0,1.5024,0.0,0.0,0.0,0.0,0.0,2.0235,0.0,0.0,0.0,0.0,2.8515,2.9745,0.0,3.1122,3.2337,3.2717,3.3598,3.4834,3.5091,3.5461,3.5951,3.5988,3.6159,3.6497,3.7036,3.7308,3.7374,3.7338,3.7406,3.7586,3.753,3.759,3.779,0.0,0.0,0.0,0.0,0.0,2.57,2.6729,2.7563,2.768,2.656,2.6409,2.6286,2.6012,2.5829,2.573,2.5762,2.598,2.6367,2.6942,2.648,2.6065,2.5848,2.6112,2.5853,2.501,2.4281,2.3465,0.0,0.0,2.4227,0.0,0.0,0.0,0.0,0.0,0.0,0.0,2.0739,2.1985,2.5244,3.1796,3.2526,2.99,3.1936,3.1721,3.0509,3.1797,3.3691,3.5712,3.6604,3.7288,3.7881,3.8433,3.9462,4.0446,4.0122,4.0454,4.084,4.0524,4.0095,3.9616,3.8994,3.7724,3.6457,3.5544,3.3965,3.231,3.1021,2.8455,2.5786,2.3617,2.2763,2.1668,0.0,0.0,0.0,0.0,0.0,1.725,1.6942,0.0,0.0,1.5149,1.4505,0.0,0.0,1.6376,0.0,0.0,0.0,0.0,2.4826,2.6493,2.7865,2.8887,3.0071,3.0912,3.1436,3.2015,3.2879,3.4033,3.4329,3.5072,3.6058,3.5524,3.5566,3.6144,3.7005,3.7489,3.76,3.6941,3.6776,3.68,3.6157,3.595,3.6036,0.0,0.0,0.0,0.0,0.0,0.0,0.0,2.9986,2.9923,2.9345,2.8361,2.7575,2.7255,2.7054,2.6899,2.6928,2.7304,2.7519,2.746,2.7309,2.706,2.6689,2.7078,2.6619,2.5172,2.5189,2.4639,0.0,0.0,0.0,0.0,0.0,0.0,0.0,0.0,2.0325,2.0449,2.1552,2.5907,3.2107,3.243,3.2435,3.2385,3.3784,3.2876,3.0822,3.0585,3.1634,3.3231,3.3879,3.5433,3.7186,3.7825,3.8596,3.927,3.9293,3.973,4.0255,4.0148,4.0235,4.0129,3.945,3.8901,3.8371,3.7689,3.6281,3.4823,3.3902,3.1087,2.8278,2.6465,2.475,2.338,2.2684,0.0,0.0,0.0,0.0,0.0,1.7897,0.0,1.6173,1.5129,1.4688,0.0,0.0,0.0,0.0,0.0,0.0,0.0,2.388,0.0,2.667,2.8183,2.9297,3.0346,3.1295,3.1841,3.251,3.3298,3.362,3.4157,3.4869,3.429,3.4539,3.5305,3.4792,3.5272,3.6239,3.5456,3.5554,3.6102,3.5843,3.5794,3.5872,2.619,0.0,2.7008,0.0,2.9509,3.0344,3.1863,3.1996,3.1889,3.1768,3.0579,2.9394,2.8521,2.82,2.8038,2.8072,2.839,2.8439,2.8098,2.7936,2.7655,2.7295,2.7326,0.0,2.5464,2.5524,2.5154,2.4269,2.4085,0.0,0.0,0.0,0.0,0.0,2.2349,2.0936,2.0941,2.4075,2.976,3.6423,3.3613,3.3392,3.4775,3.5144,2.4306,0.9784,1.6523,1.9158,1.999,2.4088,2.8137,3.2079,3.566,3.7213,3.7788,3.8088,3.8755,3.944,3.9838,4.0187,4.0272,3.9753,3.9699,3.9644,3.9116,3.8212,3.7184,3.6152,3.3559,3.1032,2.9514,2.7242,2.5481,2.5039,0.0,0.0,0.0,2.1129,0.0,1.851,1.7303,1.6317,1.5401,1.4916,0.0,0.0,0.0,0.0,0.0,0.0,0.0,0.0,0.0,0.0,2.7397,2.869,2.9826,3.0879,3.1629,3.2177,3.2464,3.2925,3.3488,3.4136,3.3861,3.4054,3.4527,3.3767,3.4093,3.5018,3.4745,3.5079,3.5737,3.5776,3.5842,3.5914,2.6635,2.8483,2.9965,3.0402,3.2011,3.3253,3.3281,3.3215,3.3149,3.3099,3.2936,3.196,2.9637,2.9192,2.912,2.9177,2.9119,2.9119,2.9195,2.8239,2.7714,0.0,0.0,2.6146,2.62,2.5273,2.4998,2.5383,0.0,0.0,2.4707,0.0,2.5977,2.7475,2.537,2.4338,2.4394,2.8214,3.2177,3.596,3.6647,3.7164,3.7297,3.5978,0.2523,-4.034,-1.4836,-0.7128,-0.7101,0.522,1.3807,2.1106,3.1391,3.5329,3.6209,3.6602,3.7563,3.8739,3.9824,4.0129,4.0217,4.0212,4.0268,4.0117,3.9511,3.9574,3.9266,3.7425,3.574,3.4107,3.2605,3.0736,2.8523,2.5647,0.0,0.0,0.0,2.0033,0.0,1.8509,1.6559,1.551,1.6041,1.5027,0.0,0.0,0.0,0.0,0.0,0.0,0.0,2.2571,2.4116,0.0,2.651,2.8347,2.9497,2.9947,3.1351,3.1794,3.1437,3.232,3.3272,3.4316,3.4632,3.4415,3.3894,3.4875,3.4836,3.4308,3.5213,3.5665,3.5803,3.5794,3.5833,3.5909,2.89,2.9689,3.0466,3.1365,3.2809,3.3926,3.415,3.4125,3.4086,3.4053,3.3535,3.2883,3.215,3.1235,3.0685,0.0,3.0093,2.9679,0.0,2.9317,2.8868,2.826,2.7922,2.7553,2.7163,2.6817,2.5801,2.41,0.0,0.0,0.0,2.6237,2.6734,2.984,3.1484,3.2148,3.2067,3.2618,3.6501,4.0529,2.0004,0.8327,0.0739,-2.2103,-3.1342,-3.1342,-2.4883,-2.0822,-1.6645,-0.368,0.5154,1.2176,2.0272,2.7821,3.3785,3.4093,3.5574,3.7091,3.6862,3.7612,3.8425,3.8469,3.8622,3.8891,3.96,3.9844,3.9753,3.9063,3.738,3.5594,3.4208,3.2066,2.9846,2.7704,2.5977,0.0,2.1853,0.0,1.9218,1.7791,1.6864,1.6237,1.6105,1.5935,0.0,0.0,0.0,0.0,0.0,0.0,0.0,0.0,2.3356,0.0,2.5654,2.7065,2.8272,2.9225,3.0575,3.1469,3.1959,3.195,3.2256,3.2711,3.2449,3.2947,3.3888,3.3146,3.3749,3.5133,3.4881,3.5204,3.581,3.585,3.5875,3.5906,3.0133,3.1141,3.2006,3.2413,3.3769,3.4851,3.51,3.5042,3.484,3.4411,3.4023,3.3656,3.3333,3.2298,0.0,3.1549,3.0687,3.0105,3.004,2.9625,2.9368,2.9296,2.7663,2.6277,2.5222,2.5288,0.0,2.1859,2.011,2.3202,3.0704,2.7739,2.8171,3.1515,3.3961,3.6052,3.7545,3.4677,3.0672,2.3715,-0.5795,-2.0056,-2.6072,-4.8696,-4.7481,-3.3799,-3.4737,-3.1869,-2.5959,-1.4491,-0.5249,0.2963,1.0929,2.0278,2.8741,3.0699,3.2598,3.3953,3.3451,3.3734,3.4298,3.4703,3.5198,3.6091,3.8204,3.9089,3.9406,3.9297,3.7981,3.64,3.5184,3.2809,3.0467,2.8518,2.6365,2.4144,2.1809,0.0,1.8707,0.0,0.0,0.0,0.0,1.6806,1.7288,0.0,0.0,0.0,0.0,0.0,0.0,2.204,2.3582,2.4732,2.541,2.6531,2.7557,2.8484,2.9742,3.0848,3.1764,3.1409,3.1514,3.2028,3.182,3.2432,3.3513,3.294,3.3688,3.5123,3.4982,3.5271,3.5815,3.5872,3.5899,3.5918,3.0721,3.2718,3.4138,0.0,3.4765,0.0,3.588,3.5768,3.529,3.4173,3.4302,3.4185,3.3297,3.2426,3.1832,3.1633,0.0,0.0,3.0407,2.9412,2.9308,3.0336,2.4857,2.1066,1.9501,2.0022,1.9144,1.6724,1.2616,1.6796,2.8606,2.7526,2.8535,3.1281,3.2862,3.6288,4.0441,3.3475,1.6566,-0.7843,-3.4295,-4.2475,-3.9434,-4.5007,-4.5673,-4.3479,-4.2122,-3.846,-3.2996,-2.5186,-1.569,-0.5529,0.3709,1.301,2.1461,2.6534,2.8887,2.9841,2.9847,2.9224,2.8824,2.9824,3.0711,3.2177,3.5482,3.7073,3.7939,3.7983,3.7312,3.6366,3.52,3.2766,3.0248,2.7987,2.5703,2.3301,2.0641,1.9066,1.7967,0.0,0.0,0.0,1.6656,1.7611,1.8293,0.0,0.0,0.0,0.0,0.0,2.2264,2.3732,2.4579,2.5201,2.5616,2.6574,2.7348,2.7878,2.8845,2.9926,3.1028,3.0664,3.1027,3.1958,3.2302,3.2546,3.2808,3.3881,3.4323,3.442,3.5426,3.5771,3.5733,3.5845,3.5903,3.589,0.0,0.0,3.312,3.3861,3.5011,3.5533,3.4685,3.447,3.4186,3.3505,3.3529,3.3278,3.24,3.1534,3.0685,2.9887,3.0261,3.0517,3.0405,3.0331,2.9631,2.8166,1.0556,0.1243,0.2246,0.5088,0.2166,-0.6854,-0.2576,0.2387,0.7951,1.0082,1.4064,1.9788,2.778,3.4151,3.7783,2.089,0.5837,-0.7764,-1.9725,-1.912,-1.1565,-1.6592,-2.002,-2.2576,-2.5869,-2.4058,-1.9853,-1.8334,-1.278,-0.5344,0.1838,0.7956,1.3992,2.1869,2.6164,2.8333,2.8388,2.8913,2.9447,2.969,2.9672,2.9947,3.1107,3.2138,3.3129,3.3897,3.3808,3.3181,3.1825,3.0011,2.7959,2.5509,2.2953,2.0673,1.8945,1.8034,1.7476,0.0,1.7856,1.8213,1.8024,1.8634,1.8901,0.0,0.0,0.0,2.1758,2.278,2.3437,2.3569,2.4719,2.5394,2.5584,2.6231,2.725,2.8655,2.8532,2.9097,3.0264,2.9919,2.9964,3.037,3.0647,3.122,3.2039,3.3055,3.3479,3.3641,3.5259,3.5468,3.4963,3.5644,3.5894,3.5802,3.3926,3.3549,3.3142,3.4042,3.4687,3.5048,3.4937,3.4214,3.3285,3.221,3.2099,3.1782,3.0915,3.0253,2.9629,2.9012,2.9429,2.9717,2.9671,3.0119,2.8635,2.4672,-0.4021,-1.9352,-1.8235,-0.8439,-0.7471,-1.5891,-0.8307,-0.3246,-0.043,0.3392,0.7808,1.248,1.6288,2.5356,3.7079,2.4693,1.471,0.7194,0.7995,1.0232,1.192,0.2017,-0.5668,-1.1629,-1.4953,-1.3898,-1.0786,-1.0029,-0.7257,-0.3119,0.2836,0.7085,1.0812,1.5152,1.861,2.1211,2.228,2.3256,2.4536,2.6803,2.7817,2.8251,2.8175,2.9096,2.9936,2.9862,2.9969,2.9668,2.8263,2.6807,2.5013,2.2639,2.0754,1.8977,1.7201,1.735,1.7567,1.741,1.8555,1.9272,1.9022,1.9547,1.9794,1.9472,2.0521,0.0,2.2513,2.364,2.424,2.4218,2.5313,2.5869,2.5791,2.6453,2.7321,2.8435,2.8443,2.8851,2.9596,2.96,2.9735,2.995,3.0155,3.0845,3.1884,3.2837,3.3247,3.3429,3.5191,3.5373,3.4718,3.5607,3.5958,3.5877,3.2661,3.3093,3.354,3.4003,3.43,3.4628,3.5053,3.386,3.2386,3.0894,3.055,3.0164,2.9433,2.8957,2.8442,2.7868,2.8085,2.8441,2.8926,2.7325,2.3451,1.6961,-1.638,-3.5269,-3.629,-1.9304,-1.2489,-1.6555,-0.7754,-0.2668,-0.125,0.3039,0.6578,0.9024,0.6003,1.6691,3.6961,3.6107,3.2485,2.8176,3.7266,3.7395,3.0653,1.6629,0.644,-0.0689,-0.3021,-0.243,-0.0375,0.0778,0.1452,0.2434,0.6611,0.9057,1.0315,0.8911,1.0028,1.2239,1.5248,1.7069,1.9234,2.3692,2.5878,2.6745,2.6043,2.675,2.7192,2.5869,2.5815,2.5591,2.4345,2.308,2.1525,1.9593,1.8539,1.737,1.5618,0.0,1.7676,1.7712,1.9152,2.007,1.9841,2.0423,2.0729,2.05,2.1629,2.2606,2.3275,2.4197,2.4798,2.4987,2.5869,2.6298,2.617,2.6891,2.7422,2.7748,2.8402,2.8795,2.8963,2.9495,2.9872,3.0104,3.0254,3.0844,3.1775,3.2718,3.3038,3.3115,3.4993,3.5193,3.4553,3.5617,3.6009,3.5971,3.3707,3.3653,3.3431,3.3506,3.4744,3.4791,3.2005,3.1361,3.1077,3.074,2.9863,2.9238,2.9158,2.8237,2.6599,2.4025,2.5253,2.7185,2.9576,1.7316,0.5755,-0.3638,-2.0533,-3.2836,-3.9423,-2.2983,-1.4288,-1.4161,-0.1945,0.3391,0.2076,0.5225,0.8586,1.2011,1.239,2.0875,3.5476,4.4245,4.5683,4.2534,4.7183,4.5704,4.0178,3.5357,3.1862,2.8688,2.252,2.1479,2.2338,1.7843,1.6371,1.6224,1.4934,1.3221,1.1133,0.8207,0.6528,0.6972,1.3543,1.8858,2.2962,2.4837,2.5238,2.4976,2.4197,2.3575,2.2944,2.2081,2.118,2.023,1.9365,1.8485,1.7571,1.667,1.5413,1.4619,1.4864,0.0,1.6908,1.843,1.99,2.076,2.0799,2.1094,2.1167,2.0938,2.1799,2.2725,2.3653,2.474,2.5064,2.4436,2.5341,2.6145,2.6842,2.7247,2.7309,2.7059,2.8171,2.8539,2.829,2.9326,2.9905,3.0109,3.0299,3.0528,3.0867,3.1806,3.1793,3.1435,3.3916,3.435,3.3775,3.5392,3.5992,3.5899,3.3478,3.2814,3.2589,3.4462,3.3938,3.2622,3.0757,3.06,3.0676,3.0656,2.9429,2.8583,2.8615,2.7202,2.5761,2.4516,2.1515,1.8972,1.7349,0.8255,0.0623,-0.4516,-1.3973,-2.0608,-2.3707,-0.9913,-0.4086,-0.7013,0.1984,0.6617,0.7266,1.0002,1.2582,1.4938,1.705,2.3163,3.2665,4.5342,5.0848,5.1246,5.3013,5.054,4.541,4.167,3.8958,3.6676,3.2479,3.1699,3.2228,2.9348,2.7682,2.6223,2.3081,1.8893,1.4355,1.0337,0.7993,0.7776,1.2897,1.7904,2.2186,2.4212,2.465,2.4383,2.366,2.2153,2.0589,1.9405,1.7862,1.6385,1.5444,1.5116,1.4934,1.4646,1.4155,0.0,1.4671,1.5838,1.7168,1.8734,2.0273,2.1244,2.1362,2.1982,2.2117,2.1589,2.2524,2.3283,2.3668,2.4199,2.4398,2.4296,2.513,2.5698,2.5914,2.6643,2.6823,2.6487,2.7186,2.7745,2.8241,2.887,2.9547,3.0222,3.0386,3.053,3.0739,3.1676,3.1846,3.1702,3.3861,3.4449,3.4248,3.5532,3.5695,3.5237,3.2957,3.1882,3.1629,3.4319,3.2435,3.0407,2.9988,3.0188,3.0436,3.053,2.9537,2.8802,2.8778,2.6748,2.5216,2.4747,1.7879,1.1611,0.6988,0.3591,0.1096,-0.0392,-0.0071,-0.0708,-0.2438,0.6252,0.7622,0.1094,0.6394,1.0233,1.2576,1.5253,1.7047,1.8101,2.0379,2.4092,2.9604,4.3924,5.2377,5.6154,5.6173,5.3883,4.9926,4.4989,4.164,3.9364,3.7874,3.7598,3.7896,3.7408,3.5934,3.3555,2.9581,2.4119,1.8354,1.3401,1.0329,0.9256,1.2066,1.5594,1.9074,2.1659,2.2291,2.2118,2.1349,1.8724,1.6351,1.6002,1.3736,1.1856,1.2162,1.2637,1.3082,1.3541,0.0,1.4547,1.536,1.6848,1.828,1.952,2.0849,2.1758,2.2034,2.2753,2.3003,2.2485,2.3334,2.3814,2.3864,2.3692,2.3733,2.4032,2.488,2.5255,2.5079,2.5963,2.6223,2.5868,2.6341,2.7005,2.7804,2.8209,2.8998,3.0063,3.0173,3.0524,3.1059,3.1796,3.2225,3.2552,3.4095,3.4702,3.4819,3.5673,3.5579,3.4979,3.2639,3.1557,3.08,3.1136,3.0266,2.9429,2.9134,2.9472,2.9907,3.0355,3.0523,3.0579,3.0523,2.7629,2.461,2.1959,1.5071,0.9928,0.7585,0.7141,0.5535,0.2353,2.2273,2.882,1.8968,1.8979,1.5571,0.8253,1.2953,1.5783,1.6997,1.9839,2.1298,2.1547,2.1949,2.3493,2.6768,4.1627,5.1268,5.6554,5.6484,5.6289,5.5377,4.9557,4.5938,4.3839,4.3097,4.2733,4.2508,4.1839,4.0305,3.7824,3.2981,2.7674,2.2198,1.6603,1.1657,0.8481,1.0221,1.2017,1.3923,1.6276,1.6459,1.5815,1.4748,1.0321,0.7386,1.0632,0.7227,0.5061,0.9659,1.1107,1.2149,1.3643,0.0,0.0,1.7535,1.903,2.041,2.1532,2.1937,2.2417,2.313,2.3134,2.3316,2.3797,2.3894,2.4141,2.4657,2.3938,2.3426,2.3304,2.4235,2.4952,2.5355,2.5702,2.5637,2.519,2.6276,2.6616,2.6303,2.7312,2.8322,2.9283,2.9367,3.0353,3.1907,3.2046,3.258,3.3393,3.4324,3.47,3.4805,3.5683,3.5953,3.5786,3.149,2.9347,2.8105,2.9929,2.9364,2.8569,2.8246,2.906,2.9891,3.0447,3.0691,2.8927,2.4045,2.3548,2.2726,2.0563,1.5946,1.2515,1.1286,1.3803,1.5476,1.5955,2.4115,2.4748,1.6292,1.7141,1.54,1.0688,1.3882,1.6775,1.9227,2.1973,2.3685,2.4506,2.4957,2.5013,2.5469,3.3734,4.2922,5.2113,5.5241,5.6542,5.6231,5.2909,4.8644,4.4406,4.3997,4.3227,4.2432,4.2621,4.0516,3.7208,3.3534,2.8723,2.3016,1.6219,1.1404,0.8147,0.7612,0.8723,1.0096,1.0417,0.955,0.8446,0.7721,0.4112,0.2026,0.5863,0.5291,0.525,0.9,1.1651,1.3748,1.5106,0.0,1.7182,1.9003,2.0157,2.1063,2.1701,2.2262,2.2574,2.2547,2.3133,2.3423,2.325,2.3674,2.3888,2.3925,2.3569,2.2878,2.1797,2.2436,2.2963,2.3351,2.3636,2.3512,2.3014,2.4113,2.4907,2.545,2.65,2.7498,2.8498,2.9106,2.9777,3.0549,3.1646,3.2606,3.3495,3.4353,3.5038,3.5488,3.5269,3.4853,3.4266,3.0891,2.886,2.7791,2.9675,2.9067,2.8558,2.923,2.9496,2.9841,3.0466,3.0585,2.7028,1.7597,1.7991,1.901,1.9135,1.7513,1.657,1.6675,2.0372,2.4282,2.8232,2.7849,2.4876,1.9182,1.8909,1.777,1.5471,1.5733,1.7691,2.1032,2.3778,2.5631,2.6602,2.7157,2.6323,2.4617,2.7228,3.3282,4.1663,4.7409,5.0481,5.1522,5.037,4.6315,4.1286,4.2006,4.1448,4.046,4.0823,3.8508,3.499,3.204,2.7344,2.168,1.5699,1.1849,0.885,0.5922,0.4701,0.3986,0.3189,0.153,-0.0204,-0.1164,-0.3958,-0.4905,0.0138,0.1826,0.3806,0.8473,1.2199,1.5166,1.7072,1.8032,1.9165,2.1127,2.1931,2.2418,2.2633,2.2642,2.2526,2.2228,2.2681,2.2909,2.2686,2.3026,2.3038,2.2712,2.264,2.2069,2.0977,2.09,2.0941,2.1025,2.1529,2.177,2.1795,2.2353,2.3354,2.47,2.5447,2.647,2.7717,2.8625,2.9368,3.0016,3.1495,3.2602,3.3454,3.406,3.4666,3.5115,3.4519,3.3908,3.3285,3.1129,3.0739,3.0593,3.0266,2.9338,2.9611,3.2465,3.094,2.972,3.0363,3.0169,2.5133,1.2424,1.1303,1.3141,1.7291,1.9439,2.1466,2.3575,2.6388,3.0764,3.7175,3.6645,3.4851,3.2015,2.6971,2.4178,2.3767,1.9558,1.9252,2.2593,2.5577,2.7147,2.7692,2.8259,2.6983,2.4196,2.329,2.3342,2.4755,3.1811,3.705,4.0636,4.0738,3.7912,3.4236,3.705,3.7524,3.6776,3.6521,3.4369,3.1336,2.8505,2.3461,1.8149,1.57,1.35,1.0703,0.5533,-0.0272,-0.5041,-0.5553,-0.7714,-1.0229,-1.2169,-1.4474,-1.4162,-0.6778,-0.4088,-0.0516,0.7859,1.2435,1.6034,1.9477,2.0841,2.2214,2.421,2.4691,2.4755,2.4704,2.3274,2.2317,2.2354,2.1816,2.1735,2.2314,2.1969,2.1562,2.1222,2.1043,2.1012,2.0992,1.9884,1.9108,1.8695,1.9668,2.0782,2.1969,2.1362,2.2113,2.3987,2.4115,2.5168,2.6932,2.7794,2.9145,3.0817,3.1714,3.2584,3.3353,3.3378,3.3361,3.3361,3.3358,3.3353,3.3223,3.1207,3.082,3.0678,3.0402,3.1711,3.2974,3.3451,3.5071,3.6133,3.59,2.0177,0.7261,0.261,0.1755,0.5001,1.3691,1.7769,2.183,2.6614,2.9551,3.2757,3.635,3.3644,3.0507,2.7168,2.403,2.1955,2.1026,1.888,1.9907,2.3841,2.6717,2.8535,2.9352,2.9468,2.8634,2.6798,2.3367,1.9284,1.5143,1.529,1.9166,2.3933,1.6025,1.6761,2.2289,2.4901,2.7295,2.9316,3.0299,2.8785,2.5759,2.1366,1.784,1.5001,1.3895,1.1123,0.7289,0.2026,-0.4203,-0.965,-1.1264,-1.5454,-1.9459,-2.0404,-2.0726,-1.8592,-1.0694,-0.4816,0.125,0.9074,1.4315,1.8237,2.0715,2.1974,2.3025,2.4128,2.4636,2.4401,2.3093,2.2377,2.1471,2.0262,2.0079,2.0147,2.0498,2.0458,2.0352,2.0171,2.0222,1.9991,1.9343,1.8802,1.829,1.7789,1.8268,1.8547,1.8652,1.9838,2.077,2.152,2.2829,2.3716,2.4287,2.5161,2.5835,2.6464,2.8564,2.9583,2.9876,3.0497,3.0728,3.0582,2.9369,2.887,2.87,3.1052,3.0839,3.0739,3.0591,3.2943,3.5082,3.5795,3.8272,3.7668,3.0954,1.1016,-0.0662,0.418,-0.2251,-0.3249,0.5776,1.3952,2.0916,2.6342,2.9454,3.2206,3.4649,3.3844,3.2373,3.0316,2.6697,2.4619,2.4155,2.1534,2.2028,2.5577,2.7893,2.9697,3.0965,3.0596,2.9953,2.9001,2.5351,1.9886,1.3245,0.8652,0.7778,0.8452,0.1382,0.2397,0.8212,1.3219,1.7379,2.1027,2.3931,2.247,1.871,1.4637,1.1621,0.9363,0.8435,0.5603,0.1767,-0.3089,-0.9003,-1.4463,-1.7341,-2.165,-2.5195,-2.5272,-2.3412,-1.9649,-1.2464,-0.4834,0.269,0.951,1.4957,1.9358,2.2235,2.3318,2.4224,2.5489,2.5151,2.4398,2.3429,2.1899,2.0475,1.9295,1.8556,1.8181,1.8283,1.852,1.8655,1.8623,1.8763,1.8642,1.8297,1.8097,1.78,1.7364,1.7658,1.7766,1.7718,1.8693,1.9593,2.0441,2.1235,2.1784,2.2168,2.3029,2.3405,2.3587,2.5837,2.6731,2.6808,2.7615,2.7948,2.7809,2.6751,2.6584,2.6786,3.0794,3.0794,3.0892,3.1207,3.3456,3.6103,3.8662,4.0497,3.5902,1.9956,0.4898,0.0097,1.1796,-0.202,-0.9642,-0.3548,0.958,1.9451,2.4018,2.73,3.0171,3.2629,3.6042,3.8072,3.8466,3.3207,3.081,3.158,2.6809,2.5618,2.7832,2.9476,3.0976,3.2297,3.1656,3.1077,3.0313,2.8199,2.3605,1.7006,0.9577,0.1981,-0.4965,-0.6053,-0.6928,-0.6381,0.2254,0.8037,1.225,1.7225,1.5405,1.0567,0.7902,0.4728,0.1563,-0.0073,-0.2504,-0.5514,-0.9878,-1.4701,-1.9342,-2.2695,-2.5264,-2.6891,-2.6684,-2.3328,-1.846,-1.2279,-0.4109,0.3669,0.9418,1.475,1.9554,2.3652,2.4607,2.5531,2.7542,2.5978,2.4675,2.4798,2.1718,1.9398,1.8943,1.724,1.6073,1.5927,1.6231,1.6444,1.6562,1.6614,1.6916,1.7479,1.7486,1.7407,1.7271,1.7622,1.8001,1.8386,1.8006,1.8681,2.0259,1.969,1.9809,2.0515,2.1308,2.1608,2.1676,2.3273,2.3887,2.3922,2.4645,2.4876,2.4737,2.4225,2.4457,2.4978,3.071,3.0716,3.1592,3.4394,3.518,3.6194,3.845,4.0388,3.6295,2.1617,1.468,0.9057,0.3441,-0.1565,-0.3253,-0.0223,1.1812,2.0937,2.4883,2.8004,3.0671,3.2848,3.5576,3.7929,3.974,3.6968,3.5885,3.6645,3.2968,3.1392,3.1826,3.2855,3.3269,3.3313,3.2965,3.1593,2.954,2.7485,2.4407,2.0113,1.1607,0.1425,-0.9405,-1.5452,-1.6763,-1.4203,-0.5501,0.0532,0.488,0.8174,0.6493,0.2378,-0.1299,-0.4656,-0.775,-0.9857,-1.1984,-1.4827,-2.009,-2.2487,-2.289,-2.0526,-1.9388,-1.9559,-2.2322,-2.2422,-1.9116,-0.9111,-0.2691,0.3185,1.0065,1.4803,1.9003,2.303,2.4492,2.5606,2.7004,2.5834,2.4451,2.3397,2.1023,1.8936,1.765,1.598,1.4851,1.4575,1.3792,1.338,1.3399,1.3646,1.4221,1.5197,1.5567,1.6137,1.6895,1.7552,1.7739,1.7495,1.8316,1.8951,1.9408,2.0028,2.0024,1.9507,1.9657,1.9355,1.8841,1.9833,2.0277,2.0366,2.094,2.0753,1.9598,1.5082,1.2558,1.065,3.0613,3.0657,3.1268,3.3175,3.4706,3.6385,3.8553,3.6887,3.3056,2.6551,2.0078,1.4603,1.0824,0.395,0.1137,0.492,1.5046,2.2685,2.6083,2.8553,3.0816,3.2853,3.5825,3.8432,4.0593,4.0267,3.9672,3.8884,3.6836,3.5459,3.4748,3.5015,3.4823,3.4262,3.3257,3.1738,2.9848,2.8061,2.562,2.2207,1.3022,0.0865,-1.2064,-1.5807,-1.6174,-1.4223,-1.0314,-0.506,0.0167,0.0416,-0.164,-0.5071,-0.9781,-1.4188,-1.8097,-2.1131,-2.3418,-2.5741,-2.9188,-2.9555,-2.7023,-1.895,-1.5152,-1.3277,-1.2791,-1.2351,-1.0278,-0.4073,0.0232,0.454,1.0049,1.4328,1.8304,2.2028,2.4121,2.5812,2.7223,2.6379,2.5279,2.4385,2.1434,1.8327,1.5427,1.3958,1.2904,1.2141,1.0572,0.9319,0.8571,0.7652,0.7221,0.738,0.7422,0.7772,0.8485,1.0907,1.2722,1.3956,1.7329,1.9016,1.915,1.9285,1.8867,1.8006,1.7896,1.7011,1.5709,1.618,1.6006,1.5319,1.4235,1.3356,1.2139,0.7243,0.4268,0.2754,3.0411,3.0579,3.0606,3.061,3.2987,3.5717,3.8196,3.3023,2.9456,3.1352,2.37,1.9254,2.2394,1.2686,0.7889,1.2672,1.9943,2.5382,2.7972,2.9327,3.0852,3.273,3.5825,3.8539,4.0729,4.2389,4.2229,4.0315,3.9708,3.8614,3.7209,3.6871,3.6082,3.5005,3.3289,3.182,3.0485,2.8958,2.7119,2.4517,1.5848,0.4198,-0.8089,-0.9404,-0.9543,-0.9247,-1.1473,-0.8133,-0.3142,-0.6243,-0.8717,-1.1465,-1.7195,-2.2573,-2.7567,-3.1514,-3.3918,-3.5523,-3.6645,-3.517,-3.0249,-1.74,-1.1168,-0.6638,-0.0505,0.0376,0.022,0.1339,0.3818,0.6688,0.9633,1.3192,1.6842,2.0223,2.3068,2.5497,2.7315,2.6969,2.6376,2.6086,2.1875,1.7427,1.3395,1.1963,1.0658,0.9156,0.7018,0.4976,0.3246,0.1046,-0.0563,-0.141,-0.1797,-0.1758,-0.1255,0.2417,0.574,0.8692,1.3508,1.7051,1.9361,1.8475,1.7363,1.611,1.5539,1.3893,1.165,1.135,1.0413,0.8896,0.6384,0.4924,0.3715,-0.0663,-0.385,-0.5092,2.9884,3.0439,3.0428,2.9934,3.0561,3.2341,3.5875,3.26,3.0029,3.087,2.7954,2.5481,2.484,2.4356,2.4607,2.5928,2.8634,3.0644,3.1581,3.0987,3.1143,3.2336,3.4219,3.6574,3.9408,4.1632,4.2898,4.316,4.2484,4.1403,3.9904,3.8946,3.7317,3.5139,3.3868,3.2306,3.0518,2.937,2.8782,2.8297,2.4141,1.9191,1.3322,0.4672,0.121,0.022,-0.5559,-0.6298,-0.538,-1.1215,-1.3954,-1.6068,-2.244,-2.7744,-3.2525,-3.7312,-3.9013,-3.9607,-4.0849,-3.7365,-2.9829,-1.5027,-0.5696,0.2559,1.3096,0.8526,0.281,0.5529,0.7156,0.833,0.9086,1.0893,1.3322,1.6503,2.0146,2.343,2.5915,2.6636,2.6862,2.6701,2.0899,1.5911,1.3336,1.0884,0.8406,0.5836,0.3603,0.121,-0.1449,-0.3188,-0.4588,-0.5552,-0.5588,-0.5042,-0.3898,-0.2619,-0.067,0.1924,0.2759,0.9163,2.0195,1.8916,1.6719,1.3791,1.1335,0.8454,0.5349,0.3274,0.162,0.0305,-0.0729,-0.2164,-0.4397,-1.0448,-1.6547,-2.1637,2.8315,2.9472,2.9945,2.9464,2.956,2.9494,2.8884,2.8627,3.0314,3.5379,3.2346,3.034,3.2014,3.3371,3.4482,3.5185,3.6073,3.607,3.4803,3.3944,3.3287,3.2826,3.425,3.6211,3.8593,4.1017,4.2749,4.3803,4.3795,4.2636,4.0448,3.9596,3.791,3.5481,3.3754,3.2243,3.0958,3.0396,2.9932,2.9482,2.8457,2.4664,1.8747,1.114,0.6832,0.4167,-0.1139,-0.2225,-0.1757,-0.544,-0.9001,-1.3193,-2.0848,-2.6726,-3.1952,-3.7789,-3.9643,-3.9787,-3.9675,-3.6055,-2.8615,-1.3217,-0.4327,0.3767,1.5479,1.4142,1.0207,0.9544,0.8865,0.8123,0.7435,0.7455,0.8608,1.1589,1.4658,1.8002,2.1577,2.3284,2.3611,2.2115,1.7418,1.3305,1.0768,0.7968,0.529,0.285,-0.0081,-0.3092,-0.6186,-0.938,-1.195,-1.376,-1.5003,-1.5472,-1.5183,-1.2228,-0.9011,-0.5566,-0.302,0.2696,1.0974,1.0057,0.8657,0.6897,0.5605,0.3064,-0.0283,-0.1875,-0.3711,-0.5756,-0.8482,-1.1695,-1.5143,-1.7929,-2.1722,-2.4904]},{"header":{"parameterUnit":"m.s-1","parameterCategory":1,"la1":30.6,"la2":28.766,"lo1":-90.7593,"lo2":-88.6598,"dy":0.0162,"dx":0.0183,"nx":116,"ny":114,"refTime":"2023-07-24T12:00:00:Z","depth":0,"parameterNumber":3,"parameterNumberName":"V-component_of_WINDS"},"data":[0.0,0.0,0.0,0.0,0.0,0.0,0.0,0.0,0.0,0.0,0.0,0.0,0.0,0.0,0.0,0.0,0.0,0.0,0.0,0.0,0.0,0.0,0.0,0.0,0.0,0.0,0.0,0.0,0.0,0.0,0.0,0.0,0.0,0.0,0.0,0.0,0.0,0.0,0.0,0.0,0.0,0.0,0.0,0.0,0.0,0.0,0.0,0.0,0.0,0.0,0.0,0.0,0.0,0.0,0.0,0.0,0.0,0.0,0.0,0.0,0.0,0.0,0.0,0.0,0.0,0.0,0.0,0.0,0.0,0.0,0.0,0.0,0.0,0.0,0.0,0.0,0.0,0.0,0.0,0.0,0.0,0.0,0.0,0.0,0.0,0.0,0.0,0.0,0.0,0.0,0.0,0.0,0.0,0.0,0.0,0.0,0.0,0.0,0.0,0.0,0.0,0.0,0.0,0.0,0.0,0.0,0.0,0.0,0.0,0.0,0.0,0.0,0.0,0.0,0.0,0.0,0.0,0.0,0.0,0.0,0.0,0.0,0.0,0.0,0.0,0.0,0.0,0.0,0.0,0.0,0.0,0.0,0.0,0.0,0.0,0.0,0.0,0.0,0.0,0.0,0.0,0.0,0.0,0.0,0.0,0.0,0.0,0.0,0.0,0.0,0.0,0.0,0.0,0.0,0.0,0.0,0.0,0.0,0.0,0.0,0.0,0.0,0.0,0.0,0.0,0.0,0.0,0.0,0.0,0.0,0.0,0.0,0.0,0.0,0.0,0.0,0.0,0.0,0.0,0.0,0.0,0.0,0.0,0.0,0.0,0.0,0.0,0.0,0.0,0.0,0.0,0.0,0.0,0.0,0.0,0.0,0.0,0.0,0.0,0.0,0.0,0.0,0.0,0.0,0.0,0.0,0.0,0.0,0.0,0.0,0.0,0.0,0.0,0.0,0.0,0.0,0.0,0.0,0.0,0.0,0.0,0.0,0.0,0.0,0.0,0.0,0.0,0.0,0.0,0.0,0.0,0.0,0.0,0.0,0.0,0.0,0.0,0.0,0.0,0.0,0.0,0.0,0.0,0.0,0.0,0.0,0.0,0.0,0.0,0.0,0.0,0.0,0.0,0.0,0.0,0.0,0.0,0.0,0.0,0.0,0.0,0.0,0.0,0.0,0.0,0.0,0.0,0.0,0.0,0.0,0.0,0.0,0.0,0.0,0.0,0.0,0.0,0.0,0.0,0.0,0.0,0.0,0.0,0.0,0.0,0.0,0.0,0.0,0.0,0.0,0.0,0.0,0.0,0.0,0.0,0.0,0.0,0.0,0.0,0.0,0.0,0.0,0.0,0.0,0.0,0.0,0.0,0.0,0.0,0.0,0.0,0.0,0.0,0.0,0.0,0.0,0.0,0.0,0.0,0.0,0.0,0.0,0.0,0.0,0.0,0.0,0.0,0.0,0.0,0.0,0.0,0.0,0.0,0.0,0.0,0.0,0.0,0.0,0.0,0.0,0.0,0.0,0.0,0.0,0.0,0.0,0.0,0.0,0.0,0.0,0.0,0.0,0.0,0.0,0.0,0.0,0.0,0.0,0.0,0.0,0.0,0.0,0.0,0.0,0.0,0.0,0.0,0.0,0.0,0.0,0.0,0.0,0.0,0.0,0.0,0.0,0.0,0.0,0.0,0.0,0.0,0.0,0.0,0.0,0.0,0.0,0.0,0.0,0.0,0.0,0.0,0.0,0.0,0.0,0.0,0.0,0.0,0.0,0.0,0.0,0.0,0.0,0.0,0.0,0.0,0.0,0.0,0.0,0.0,0.0,0.0,0.0,0.0,0.0,0.0,0.0,0.0,0.0,0.0,0.0,0.0,0.0,0.0,0.0,0.0,0.0,0.0,0.0,0.0,0.0,0.0,0.0,0.0,0.0,0.0,0.0,0.0,0.0,0.0,0.0,0.0,0.0,0.0,0.0,0.0,0.0,0.0,0.0,0.0,0.0,0.0,0.0,0.0,0.0,0.0,0.0,0.0,0.0,0.0,0.0,0.0,0.0,0.0,0.0,0.0,0.0,0.0,0.0,0.0,0.0,0.0,0.0,0.0,0.0,0.0,0.0,0.0,0.0,0.0,0.0,0.0,0.0,0.0,0.0,0.0,0.0,0.0,0.0,0.0,0.0,0.0,0.0,0.0,0.0,0.0,0.0,0.0,0.0,0.0,0.0,0.0,0.0,0.0,0.0,0.0,0.0,0.0,0.0,0.0,0.0,0.0,0.0,0.0,0.0,0.0,0.0,0.0,0.0,0.0,0.0,0.0,0.0,0.0,0.0,0.0,0.0,0.0,0.0,0.0,0.0,0.0,0.0,0.0,0.0,0.0,0.0,0.0,0.0,0.0,0.0,0.0,0.0,0.0,0.0,0.0,0.0,0.0,0.0,0.0,0.0,0.0,0.0,0.0,0.0,0.0,0.0,0.0,0.0,0.0,0.0,0.0,0.0,0.0,0.0,0.0,0.0,0.0,0.0,0.0,0.0,0.0,0.0,0.0,0.0,0.0,0.0,0.0,0.0,0.0,0.0,0.0,0.0,0.0,0.0,0.0,0.0,0.0,0.0,0.0,0.0,0.0,0.0,0.0,0.0,0.0,0.0,0.0,0.0,0.0,0.0,0.0,0.0,0.0,0.0,0.0,0.0,0.0,0.0,0.0,0.0,0.0,0.0,0.0,0.0,0.0,0.0,0.0,0.0,0.0,0.0,0.0,0.0,0.0,0.0,0.0,0.0,0.0,0.0,0.0,0.0,0.0,0.0,0.0,0.0,0.0,0.0,0.0,0.0,0.0,0.0,0.0,0.0,0.0,0.0,0.0,0.0,0.0,0.0,0.0,0.0,0.0,0.0,0.0,0.0,0.0,0.0,0.0,0.0,0.0,0.0,0.0,0.0,0.0,0.0,0.0,0.0,0.0,0.0,0.0,0.0,0.0,0.0,0.0,0.0,0.0,0.0,0.0,0.0,0.0,0.0,0.0,0.0,0.0,0.0,0.0,0.0,0.0,0.0,0.0,0.0,0.0,0.0,0.0,0.0,0.0,0.0,0.0,0.0,0.0,0.0,0.0,0.0,0.0,0.0,0.0,0.0,0.0,0.0,0.0,0.0,0.0,0.0,0.0,0.0,0.0,0.0,0.0,0.0,0.0,0.0,0.0,0.0,0.0,0.0,0.0,0.0,0.0,0.0,0.0,0.0,0.0,0.0,0.0,0.0,0.0,0.0,0.0,0.0,0.0,0.0,0.0,0.0,0.0,0.0,0.0,0.0,0.0,0.0,0.0,0.0,0.0,0.0,0.0,0.0,0.0,0.0,0.0,0.0,0.0,0.0,0.0,0.0,0.0,0.0,0.0,0.0,0.0,0.0,0.0,0.0,0.0,0.0,0.0,0.0,0.0,0.0,0.0,0.0,0.0,0.0,0.0,0.0,0.0,0.0,0.0,0.0,0.0,0.0,0.0,0.0,0.0,0.0,0.0,0.0,0.0,0.0,0.0,0.0,0.0,0.0,0.0,0.0,0.0,0.0,0.0,0.0,0.0,0.0,0.0,0.0,0.0,0.0,0.0,0.0,0.0,0.0,0.0,0.0,0.0,0.0,0.0,0.0,0.0,0.0,0.0,0.0,0.0,0.0,0.0,0.0,0.0,0.0,0.0,0.0,0.0,0.0,0.0,0.0,0.0,0.0,0.0,0.0,0.0,0.0,0.0,0.0,0.0,0.0,0.0,0.0,0.0,0.0,0.0,0.0,0.0,0.0,0.0,0.0,0.0,0.0,0.0,0.0,0.0,0.0,0.0,0.0,0.0,0.0,0.0,0.0,0.0,0.0,0.0,0.0,0.0,0.0,0.0,0.0,0.0,0.0,0.0,0.0,0.0,0.0,0.0,0.0,0.0,0.0,0.0,0.0,0.0,0.0,0.0,0.0,0.0,0.0,0.0,0.0,0.0,0.0,0.0,0.0,0.0,0.0,0.0,0.0,0.0,0.0,0.0,0.0,0.0,0.0,0.0,0.0,0.0,0.0,0.0,0.0,0.0,0.0,0.0,0.0,0.0,0.0,0.0,0.0,0.0,0.0,0.0,0.0,0.0,0.0,0.0,0.0,0.0,0.0,0.0,0.0,0.0,0.0,0.0,0.0,0.0,0.0,0.0,0.0,0.0,0.0,0.0,0.0,0.0,0.0,0.0,0.0,0.0,0.0,0.0,0.0,0.0,0.0,0.0,0.0,0.0,0.0,0.0,0.0,0.0,0.0,0.0,0.0,0.0,0.0,0.0,0.0,0.0,0.0,0.0,0.0,0.0,0.0,0.0,0.0,0.0,0.0,0.0,0.0,0.0,0.0,0.0,0.0,0.0,0.0,0.0,0.0,0.0,0.0,0.0,0.0,0.0,0.0,0.0,0.0,0.0,0.0,0.0,0.0,0.0,0.0,0.0,0.0,0.0,0.0,0.0,0.0,0.0,0.0,0.0,0.0,0.0,0.0,0.0,0.0,0.0,0.0,0.0,0.0,0.0,0.0,0.0,0.0,0.0,0.0,0.0,0.0,0.0,0.0,0.0,0.0,0.0,0.0,0.0,0.0,0.0,0.0,0.0,0.0,0.0,0.0,0.0,0.0,0.0,0.0,0.0,0.0,0.0,0.0,0.0,0.0,0.0,0.0,0.0,0.0,0.0,0.0,0.0,0.0,0.0,0.0,0.0,0.0,0.0,0.0,0.0,0.0,0.0,0.0,0.0,0.0,0.0,0.0,0.0,0.0,0.0,0.0,0.0,0.0,0.0,0.0,0.0,0.0,0.0,0.0,0.0,0.0,0.0,0.0,0.0,0.0,0.0,0.0,0.0,0.0,0.0,0.0,0.0,0.0,0.0,0.0,0.0,0.0,0.0,0.0,0.0,0.0,0.0,0.0,0.0,0.0,0.0,0.0,0.0,0.0,0.0,0.0,0.0,0.0,0.0,0.0,0.0,0.0,0.0,0.0,0.0,0.0,0.0,0.0,0.0,0.0,0.0,0.0,0.0,0.0,0.0,0.0,0.0,0.0,0.0,0.0,0.0,0.0,0.0,0.0,0.0,0.0,0.0,0.0,0.0,0.0,0.0,0.0,0.0,0.0,0.0,0.0,0.0,0.0,0.0,0.0,0.0,0.0,0.0,0.0,0.0,0.0,0.0,0.0,0.0,0.0,0.0,0.0,0.0,0.0,0.0,0.0,0.0,0.0,0.0,0.0,0.0,0.0,0.0,0.0,0.0,0.0,0.0,0.0,0.0,0.0,0.0,0.0,0.0,0.0,0.0,0.0,0.0,0.0,0.0,0.0,0.0,0.0,0.0,0.0,0.0,0.0,0.0,0.0,0.0,0.0,0.0,0.0,0.0,0.0,0.0,0.0,0.0,0.0,0.0,0.0,0.0,0.0,0.0,0.0,0.0,0.0,0.0,0.0,0.0,0.0,0.0,0.0,0.0,0.0,0.0,0.0,0.0,0.0,0.0,0.0,0.0,0.0,0.0,0.0,0.0,0.0,0.0,0.0,0.0,0.0,0.0,0.0,0.0,0.0,0.0,0.0,0.0,0.0,0.0,0.0,0.0,0.0,0.0,0.0,0.0,0.0,0.0,0.0,0.0,0.0,0.0,0.0,0.0,0.0,0.0,0.0,0.0,0.0,0.0,0.0,0.0,0.0,0.0,0.0,0.0,0.0,0.0,0.0,0.0,0.0,0.0,0.0,0.0,0.0,0.0,0.0,0.0,0.0,0.0,0.0,0.0,0.0,0.0,0.0,0.0,0.0,0.0,0.0,0.0,0.0,0.0,0.0,0.0,0.0,0.0,0.0,0.0,0.0,0.0,0.0,0.0,0.0,0.0,0.0,0.0,0.0,0.0,0.0,0.0,0.0,0.0,0.0,0.0,0.0,0.0,0.0,0.0,0.0,0.0,0.0,0.0,0.0,0.0,0.0,0.0,0.0,0.0,0.0,0.0,0.0,0.0,0.0,0.0,0.0,0.0,0.0,0.0,0.0,0.0,0.0,0.0,0.0,0.0,0.0,0.0,0.0,0.0,0.0,0.0,0.0,0.0,0.0,1.4132,0.0,0.0,0.0,0.0,0.0,0.0,0.0,0.0,0.0,0.0,0.0,0.0,0.0,0.0,0.0,0.0,0.0,0.0,0.0,0.0,0.0,0.0,0.0,0.0,0.0,0.0,0.0,0.0,0.0,0.0,0.0,0.0,0.0,0.0,0.0,0.0,0.0,0.0,0.0,0.0,0.0,0.0,0.0,0.0,0.0,0.0,0.0,0.0,0.0,0.0,0.0,0.0,0.0,0.0,0.0,0.0,0.0,0.0,0.0,0.0,0.0,0.0,0.0,0.0,0.0,0.0,0.0,0.0,0.0,0.0,0.0,0.0,0.0,0.0,0.0,0.0,0.0,0.0,0.0,0.0,0.0,0.0,0.0,0.0,0.0,0.0,0.0,0.0,0.0,0.0,0.0,0.0,0.0,0.0,0.0,0.0,0.0,0.0,0.0,0.0,0.0,0.0,0.0,0.0,0.0,0.0,0.0,0.0,0.0,0.0,0.0,0.0,0.0,0.0,0.0,0.0,1.3833,0.0,0.0,0.0,0.0,0.0,0.0,0.0,0.0,0.0,0.0,0.0,0.0,0.0,0.0,0.0,0.0,0.0,0.0,0.0,0.0,0.0,0.0,0.0,0.0,0.0,0.0,0.0,0.0,0.0,0.0,0.0,0.0,0.0,0.0,0.0,0.0,0.0,0.0,0.0,0.0,0.0,0.0,0.0,0.0,0.0,0.0,0.0,0.0,0.0,0.0,0.0,0.0,0.0,0.0,0.0,0.0,0.0,0.0,0.0,0.0,0.0,0.0,0.0,0.0,0.0,0.0,0.0,0.0,0.0,0.0,0.0,0.0,0.0,0.0,0.0,0.0,0.0,0.0,0.0,0.0,0.0,0.0,0.0,0.0,0.0,0.0,0.0,0.0,0.0,0.0,0.0,0.0,0.0,0.0,0.0,0.0,0.0,0.0,0.0,0.0,0.0,0.0,0.0,0.0,0.0,0.0,0.0,0.0,1.5163,1.6158,1.8283,1.9373,2.0085,2.0255,1.62,1.497,1.5684,1.3257,0.0,0.0,0.0,0.0,0.0,0.0,0.0,0.0,0.0,0.0,0.0,0.0,0.0,0.0,0.0,0.0,0.0,0.0,0.0,0.0,0.0,0.0,0.0,0.0,0.0,0.0,0.0,0.0,0.0,0.0,0.0,0.0,0.0,0.0,0.0,0.0,0.0,0.0,1.3549,1.4294,1.4386,1.3911,0.0,0.0,0.0,0.0,0.0,0.0,0.0,0.0,0.0,0.0,0.0,0.0,0.0,0.0,0.0,0.0,0.0,0.0,0.0,0.0,0.0,0.0,0.0,0.0,0.0,0.0,0.0,0.0,0.0,0.0,0.0,0.0,0.0,0.0,0.0,0.0,0.0,0.0,0.0,0.0,0.0,0.0,0.0,0.0,1.3506,1.6838,0.0,0.0,0.0,0.0,0.0,0.0,0.0,0.0,0.0,0.0,0.0,0.0,0.0,0.7211,1.0527,1.2483,1.4664,1.6994,1.7427,1.8294,1.9572,2.0263,2.0792,2.1175,2.0165,0.0,1.7866,1.5114,0.0,0.0,0.0,0.0,0.0,0.0,0.0,0.0,0.0,0.0,0.0,0.0,0.0,0.0,0.0,0.0,0.0,0.0,0.0,0.0,0.0,0.0,0.0,0.0,0.0,0.0,0.0,0.0,0.0,0.0,0.0,0.0,0.0,0.0,0.0,0.0,1.7773,1.787,1.704,1.7805,1.7907,1.7349,1.6303,1.445,1.2004,1.0467,0.0,0.0,0.0,0.0,0.0,0.0,0.0,0.0,0.0,0.0,0.0,0.0,0.0,0.0,0.0,0.0,0.0,0.0,0.0,0.0,0.0,0.0,0.0,0.0,0.0,0.0,0.0,0.0,0.0,0.0,0.0,0.0,0.0,0.0,0.0,0.0,0.0,0.0,0.0,1.6963,1.9061,2.0377,1.9302,1.7924,0.0,0.0,0.0,0.0,0.0,0.0,0.0,0.0,0.0,0.8216,0.9097,1.0573,1.2647,1.4893,1.6972,1.8895,1.9909,2.0674,2.1182,2.1411,2.185,2.2337,2.2129,2.1511,2.0322,1.6921,1.4713,1.3248,0.0,0.0,0.0,0.0,0.9935,1.0098,0.0,0.0,0.0,0.0,0.0,0.0,0.0,0.0,0.0,0.0,0.0,0.0,0.0,0.0,0.0,1.9436,0.0,0.0,0.0,0.0,0.0,0.0,0.0,0.0,0.0,0.0,0.0,0.0,2.0954,2.1255,2.0273,2.1015,2.0997,2.0291,2.0384,1.8319,1.4681,1.2635,1.1312,0.0,0.0,0.0,0.0,0.0,0.0,0.0,0.0,0.0,0.0,0.0,0.0,0.0,0.0,0.0,0.0,0.0,0.0,0.0,0.0,0.0,0.0,0.0,0.0,0.0,0.0,0.0,0.0,0.0,0.0,0.0,0.0,0.0,0.0,0.0,0.0,0.0,0.0,2.2896,2.5358,2.4624,2.1879,1.9576,0.0,0.0,0.0,0.0,0.0,0.0,0.9444,1.0515,1.1906,1.3667,1.3651,1.417,1.5279,1.711,1.9094,2.1152,2.2213,2.2733,2.2745,2.2927,2.3235,2.3666,2.3464,2.2856,2.1713,1.8309,1.6153,1.4955,1.4393,1.3863,1.334,1.2716,1.2366,1.2007,0.0,0.0,0.0,0.0,0.0,0.0,0.0,0.0,0.0,0.0,0.0,0.0,0.0,0.0,2.0384,2.172,2.1258,2.1029,0.0,0.0,0.0,0.0,0.0,0.0,0.0,0.0,0.0,2.1327,2.2568,2.3079,2.2812,2.3299,2.3415,2.3165,2.2604,2.0839,1.8187,1.6124,1.4464,1.2968,0.0,0.0,0.0,0.0,0.0,0.0,0.0,0.0,0.0,0.0,0.0,0.0,0.0,0.0,0.0,0.0,0.0,0.0,0.0,0.0,0.0,0.0,0.0,0.0,0.0,0.0,0.0,0.0,0.0,0.0,0.0,0.0,0.0,0.0,0.0,0.0,0.0,0.0,0.0,2.9702,2.3945,0.0,0.0,0.0,0.0,1.8543,1.5024,1.2684,1.1945,1.4148,1.5817,1.6642,1.732,1.8344,1.9791,1.9889,2.1308,2.3967,2.4051,2.4112,2.4112,2.4803,2.5143,2.5155,2.4459,2.3018,2.106,1.8918,1.835,1.873,1.8012,1.6738,1.5264,1.5024,1.4754,1.4345,0.0,0.0,0.0,0.0,0.0,0.0,0.0,0.0,0.0,0.0,0.0,0.0,0.0,2.1341,2.2601,2.3355,2.348,2.3364,2.2936,0.0,0.0,0.0,0.0,0.0,0.0,0.0,2.5363,2.5419,2.6392,2.6688,2.6422,2.6462,2.6414,2.6326,2.5916,2.471,2.2809,1.9074,1.6742,1.5256,1.2106,0.9874,0.0,0.0,0.0,0.0,0.0,0.0,0.0,0.0,0.0,0.0,0.0,0.0,0.0,0.0,0.0,0.0,0.0,0.0,0.0,0.0,0.0,0.0,0.0,0.0,0.0,0.0,0.0,0.0,0.0,0.0,0.0,0.0,0.0,0.0,0.0,0.0,0.0,2.8737,2.6457,0.0,2.2946,2.1506,2.0653,2.0391,1.7367,1.5223,1.453,1.7269,1.9276,2.0018,2.0323,2.0907,2.1985,2.322,2.4348,2.5269,2.5269,2.5269,2.5349,2.6129,2.652,2.645,2.4911,2.3489,2.2373,2.2282,2.0965,1.9065,1.8462,1.7471,1.637,1.6132,1.5981,1.5694,0.0,0.0,0.0,0.0,0.0,0.0,0.0,0.0,0.0,0.0,0.0,1.929,2.0945,2.2929,2.4394,2.4878,2.5179,2.5028,2.4397,0.0,0.0,0.0,0.0,0.0,0.0,2.8283,2.8971,2.9213,2.9798,2.9986,2.9792,2.9556,2.9272,2.8996,2.8698,2.7881,2.6512,2.3178,2.0239,1.756,1.4686,1.2455,1.0584,0.0,0.0,0.0,0.0,0.0,0.0,0.0,0.0,0.0,0.0,0.0,0.0,0.0,0.0,0.0,0.0,0.0,0.0,0.0,0.0,0.0,0.0,0.0,0.0,0.0,0.0,0.0,0.0,0.0,0.0,0.0,0.0,0.0,0.0,0.0,3.1906,3.0498,2.9878,2.8767,2.6581,2.4669,2.3751,2.4292,2.146,1.902,1.7524,2.0566,2.248,2.2729,2.3045,2.3438,2.3973,2.5262,2.6223,2.6867,2.6867,2.6529,2.5906,2.649,2.6727,2.6659,2.5329,2.4447,2.4004,2.4534,2.3262,2.0855,1.9798,1.8972,1.8215,1.7609,1.7353,1.7125,0.0,0.0,0.0,0.0,0.0,0.0,0.0,0.0,0.0,0.0,1.8486,2.0124,2.2313,2.4241,2.5646,2.631,2.6163,2.5967,2.5874,2.5441,0.0,0.0,0.0,0.0,3.0782,3.19,3.251,3.2558,3.2694,3.2793,3.2873,3.2588,3.1982,3.1164,3.0941,3.0249,2.9194,2.8476,2.5143,2.0148,1.7926,1.5734,1.3378,0.0,0.0,0.0,0.0,0.0,0.0,0.0,0.0,0.0,0.0,0.0,0.0,0.0,0.0,0.0,0.0,0.0,0.0,0.0,0.0,0.0,0.0,0.0,0.0,0.0,0.0,0.0,0.0,0.0,0.0,0.0,0.0,0.0,2.7162,3.0645,3.3853,3.5173,3.4109,3.2872,3.1874,3.0648,3.0091,3.026,2.7184,2.4075,2.1046,2.4143,2.5561,2.4623,2.5476,2.5994,2.5994,2.5994,2.6922,2.8757,2.8811,2.7839,2.5994,2.5994,2.5899,2.5899,2.5899,2.5899,2.5899,2.5466,2.5019,2.4395,2.2227,2.1267,2.0764,1.9576,1.8979,1.8574,0.0,0.0,0.0,0.0,0.0,0.0,0.0,0.0,0.0,0.0,2.0111,2.2199,2.3578,2.5628,2.7086,2.7619,2.6661,2.6419,2.7399,0.0,0.0,0.0,0.0,0.0,3.5355,3.5989,3.6309,3.6326,3.653,3.6597,3.6445,3.5751,3.5187,3.4818,3.4111,3.3301,3.2424,3.2162,3.0524,2.7597,2.2497,1.8871,1.6263,0.0,0.0,0.0,0.0,0.0,0.0,0.0,0.0,0.0,0.0,0.0,0.0,0.0,0.0,0.0,0.0,0.0,0.0,0.0,0.0,0.0,0.0,0.0,0.0,0.0,0.0,0.0,0.0,0.0,0.0,0.0,0.0,2.975,2.9336,3.2961,3.5328,3.4712,3.5066,3.4984,3.401,3.3912,3.3288,3.1401,2.9777,2.8155,2.6654,2.7496,2.788,2.7608,2.788,2.7971,2.7971,2.7971,2.7866,2.7747,2.8995,2.9062,2.7971,2.7243,2.6886,2.6886,2.6886,2.6886,2.6967,2.714,2.6748,2.5886,2.3443,2.2206,2.1761,2.1303,2.0562,1.9707,0.0,0.0,0.0,0.0,0.0,0.0,0.0,0.0,0.0,0.0,2.1311,2.3211,2.4419,2.6477,2.7912,2.8355,2.7822,2.7699,2.8224,0.0,0.0,0.0,0.0,3.7224,3.8252,3.8954,3.9391,3.9517,3.9761,3.981,3.9706,3.8839,3.8108,3.7611,3.7041,3.6221,3.535,3.5279,3.45,3.2844,2.8533,2.4455,2.0629,1.7578,1.5391,1.3739,1.2213,1.1821,1.2055,1.2139,0.0,0.0,0.0,0.0,0.0,0.0,0.0,0.0,0.0,0.0,0.0,0.0,0.0,0.0,0.0,0.0,0.0,0.0,0.0,0.0,0.0,0.0,0.0,0.0,3.1302,3.304,3.3073,3.4879,3.6096,3.5955,3.6144,3.6222,3.5827,3.5638,3.5052,3.3777,3.2301,3.1414,3.1361,3.092,3.0452,2.9958,2.9172,2.9139,2.9947,2.9958,2.9472,2.8421,2.9487,2.9743,2.9287,2.8697,2.84,2.84,2.84,2.7966,2.7388,2.8253,2.8239,0.0,0.0,0.0,0.0,0.0,2.1959,2.1034,0.0,0.0,0.0,0.0,0.0,0.0,0.0,0.0,0.0,0.0,0.0,2.3628,2.5243,2.7078,2.837,2.8774,2.9315,2.9428,0.0,0.0,0.0,3.6388,3.7853,3.9146,4.0188,4.1271,4.1973,4.2305,4.2501,4.2606,4.2622,4.1693,4.0808,3.9981,3.9715,3.9067,3.8149,3.8186,3.7684,3.6754,3.5084,3.1115,2.5815,2.2292,1.9932,1.8223,1.6197,1.5053,1.4456,1.4172,0.0,0.0,0.0,0.0,0.0,0.0,0.0,0.0,0.0,0.0,0.0,0.0,0.0,0.0,0.0,0.0,0.0,0.0,0.0,0.0,0.0,0.0,0.0,0.0,3.4483,3.6612,3.7366,3.6764,3.6714,3.8027,3.739,3.7121,3.7688,3.6677,3.6173,3.6577,3.4723,3.405,3.4969,0.0,0.0,0.0,0.0,3.0306,3.1607,3.1516,3.0909,2.9994,2.9994,2.9889,2.9784,2.9994,2.9994,2.9994,2.9994,2.9073,2.771,2.8921,2.9203,2.8724,2.654,2.5637,2.5409,2.4142,2.3203,2.2452,0.0,0.0,0.0,0.0,0.0,0.0,0.0,0.0,0.0,2.2191,2.3159,2.4587,2.7095,2.8196,2.9091,3.0002,2.9817,3.0319,0.0,0.0,3.6114,3.8121,4.0061,4.1658,4.2839,4.3971,4.4642,4.4794,4.4948,4.4948,4.4778,4.3866,4.326,4.294,4.2348,4.1949,4.1654,4.1827,4.1681,4.1202,3.9473,3.547,3.0158,2.6925,2.4958,2.3631,2.16,2.056,2.0121,2.008,1.9434,1.8875,1.9866,0.0,0.0,0.0,0.0,0.0,0.0,0.0,0.0,0.0,0.0,0.0,0.0,0.0,0.0,0.0,0.0,0.0,0.0,0.0,0.0,3.464,3.6219,3.787,4.0188,3.9915,3.9371,3.9074,3.9262,3.958,3.9841,3.9226,3.8431,3.7663,3.6463,3.5861,3.6061,3.5114,3.4052,3.2969,3.4141,3.3769,3.1629,3.0703,3.0203,2.9994,0.0,0.0,2.8611,2.9574,2.9994,2.9994,2.9994,2.9798,2.9465,2.9128,2.9143,2.9284,2.7083,2.593,2.545,2.4756,2.4088,2.3353,0.0,0.0,0.0,0.0,0.0,0.0,0.0,0.0,0.0,0.0,2.3772,2.4992,2.7074,2.7321,2.7782,2.8806,2.9867,0.0,0.0,3.6055,3.7806,3.9319,4.1367,4.2782,4.3513,4.4905,4.59,4.638,4.6367,4.6506,4.6776,4.5821,4.5419,4.5394,4.5102,4.4964,4.4964,4.5192,4.4975,4.4345,4.3156,4.0363,3.6439,3.1952,2.8926,2.6925,2.5423,2.4212,2.3291,2.3299,2.2615,2.1956,2.2721,2.2052,2.0931,0.0,0.0,0.0,0.0,0.0,0.0,0.0,0.0,0.0,0.0,0.0,0.0,0.0,0.0,2.8599,0.0,0.0,3.5093,3.7598,3.8839,4.0067,4.1638,4.1707,4.1365,4.0639,4.0732,4.0757,4.0589,4.0053,3.9506,3.8789,3.7735,3.7432,3.8063,3.7017,3.59,3.4889,3.5749,3.5244,3.3082,3.2545,3.1895,3.136,3.136,3.0701,2.959,3.0811,3.136,3.1309,3.0387,3.0297,3.0742,3.0394,3.0297,3.0283,2.8786,2.7631,2.6711,2.6154,2.5349,2.4459,0.0,0.0,0.0,0.0,0.0,0.0,0.0,0.0,0.0,0.0,0.0,2.4922,2.6473,2.615,2.6309,0.0,0.0,0.0,0.0,3.7644,3.9129,4.0314,4.222,4.3491,4.3929,4.5507,4.6793,4.7671,4.7625,4.7954,4.855,4.7909,4.7725,4.79,4.7992,4.8129,4.8281,4.8544,4.8152,4.7253,4.6576,4.4831,4.2068,3.6936,3.2841,2.9646,2.8455,2.6764,2.5169,2.548,2.4984,2.4313,2.51,2.4681,2.3624,2.2551,2.225,0.0,0.0,0.0,0.0,0.0,0.0,0.0,0.0,0.0,2.6359,2.8957,3.0619,3.2519,3.5339,3.6717,3.8064,4.0126,4.1237,4.2023,4.2581,4.2959,4.2935,4.2408,4.2076,4.1824,4.1558,4.11,4.0587,4.0119,3.9184,3.8884,3.9699,3.8841,3.7773,3.67,3.6592,3.6048,3.4847,3.4635,3.3851,3.2727,3.2727,3.2048,3.0889,3.2153,3.2727,3.2633,3.1006,3.0806,3.1618,3.1424,3.1127,3.0877,3.0376,2.9589,2.8427,2.7539,2.6557,2.557,0.0,0.0,0.0,0.0,0.0,0.0,0.0,0.0,0.0,0.0,0.0,0.0,0.0,0.0,0.0,0.0,0.0,0.0,3.6802,3.867,4.0179,4.1206,4.3002,4.442,4.5338,4.6866,4.8075,4.8875,4.9532,4.9806,4.9811,5.0431,5.0783,5.1022,5.1272,5.1515,5.1734,5.21,5.1734,5.0864,4.9942,4.7504,4.4143,4.1455,3.7511,3.3129,3.1066,2.8432,2.6105,2.7679,2.6953,2.5792,2.7983,2.7533,2.6136,2.563,0.0,2.2834,2.1867,2.083,2.0984,2.5451,2.7495,2.8894,0.0,0.0,3.1601,3.4611,3.6401,3.7544,3.809,3.9528,4.085,4.1744,4.212,4.2638,4.381,4.4174,4.4209,4.418,4.3684,4.3671,4.4546,4.3902,4.2944,4.1861,4.1294,4.0537,3.9775,3.9581,3.8945,3.788,3.7773,3.7227,3.6157,3.5069,3.3851,3.2727,3.2727,3.2048,3.0889,3.2153,3.2727,3.2623,3.1837,3.1527,3.1527,3.0609,3.0203,3.0193,3.0546,3.0678,3.0282,2.8441,2.7199,2.6468,0.0,0.0,0.0,0.0,0.0,0.0,0.0,0.0,0.0,0.0,0.0,0.0,0.0,0.0,0.0,0.0,0.0,0.0,3.6949,3.9147,4.0827,4.1841,4.3074,4.4448,4.5917,4.6931,4.8129,4.9431,5.0013,5.0521,5.0957,5.1876,5.2729,5.3334,5.3724,5.4284,5.49,5.4821,5.428,5.337,5.2037,4.9307,4.5775,4.3262,3.9363,3.4895,3.2517,3.009,0.0,0.0,2.8847,2.813,2.9566,2.8792,2.7257,2.6356,2.5435,0.0,2.4132,2.2083,2.1136,2.5416,2.9583,3.2794,3.3136,3.4265,3.5873,3.8545,3.9737,4.056,4.1583,4.2024,4.2542,0.0,4.3729,4.4177,4.4982,4.518,4.5288,4.526,4.4977,4.4802,4.4866,4.4563,4.3979,4.3171,4.3229,4.3087,4.2664,4.2024,4.105,3.985,3.8635,3.7441,3.6266,3.6997,3.6086,3.3738,3.3069,3.2383,3.1923,3.2498,3.2727,3.2623,3.1316,3.1222,3.2141,3.0641,2.9574,2.9036,2.9248,2.9564,2.9682,2.8337,2.7667,2.7408,0.0,0.0,0.0,0.0,0.0,0.0,0.0,0.0,0.0,0.0,0.0,0.0,0.0,0.0,0.0,0.0,0.0,0.0,0.0,3.9147,4.0953,4.1886,4.284,4.41,4.5852,4.6737,4.8102,4.9977,5.0794,5.1555,5.2358,5.3664,5.4666,5.5458,5.633,5.7155,5.7941,5.7637,5.6921,5.5819,5.411,5.0973,4.7007,4.4023,3.9949,3.5489,3.3073,3.0693,0.0,0.0,2.9113,2.8875,2.9682,2.8912,2.7571,2.7075,2.6614,2.6033,2.5113,2.3649,2.3671,2.8432,3.3495,3.7091,3.6614,3.7724,3.9563,4.1696,4.2395,4.3081,4.4298,4.4196,4.4139,4.4989,4.5278,4.5517,4.5779,4.6027,4.6011,4.5926,4.5846,4.5524,4.5118,4.4908,4.4623,4.4226,4.4572,4.4722,4.4722,4.3628,4.2638,4.1745,3.989,3.8319,3.7104,3.8562,3.7736,3.4737,3.3811,3.3472,3.3461,3.2954,3.2498,3.2082,3.077,3.0953,3.2052,3.075,2.9768,2.8965,2.8476,2.8504,2.8764,2.8242,2.8093,2.8048,0.0,0.0,0.0,0.0,0.0,0.0,0.0,0.0,0.0,0.0,0.0,0.0,0.0,0.0,0.0,0.0,0.0,0.0,0.0,3.8624,4.0461,4.1209,4.2258,4.3553,4.5098,4.6492,4.8312,5.055,5.2292,5.3489,5.4279,5.6082,5.7171,5.7578,5.923,6.0303,6.0877,6.0877,6.0001,5.8531,5.6573,5.2726,4.7775,4.4117,3.9504,3.4744,3.2504,0.0,0.0,0.0,2.7,2.6857,2.8016,2.7633,0.0,2.828,2.8091,2.6824,2.3886,2.571,3.0205,3.7151,4.0281,4.1751,4.1779,4.1905,4.2422,4.4134,4.4821,4.5288,4.5796,4.5973,4.6162,4.6281,4.6239,4.6106,4.6125,4.6474,4.6564,4.5929,4.6138,4.6282,0.0,4.5449,4.5208,4.5209,4.4872,4.4722,4.4722,4.3628,4.2974,4.2974,4.1797,4.05,3.9205,3.9274,3.7943,3.5335,3.5345,3.5345,3.5283,3.3524,3.2038,3.1005,3.0946,3.0956,3.1005,3.0946,3.081,3.0644,2.8955,2.8291,2.8291,2.8271,2.8271,2.8271,0.0,0.0,0.0,0.0,0.0,0.0,0.0,0.0,0.0,0.0,0.0,0.0,0.0,0.0,0.0,0.0,0.0,0.0,0.0,3.7566,3.9617,4.1071,4.2039,4.3588,4.5927,4.6358,4.7814,5.0328,5.1971,5.321,5.4007,5.6543,5.8033,5.8734,6.0088,6.1064,6.1642,6.1169,6.0334,5.8963,5.5998,5.2458,4.8402,4.4329,3.9556,3.4679,0.0,0.0,0.0,0.0,2.5948,2.5687,2.727,0.0,2.5252,2.6454,2.6542,2.647,2.729,3.0148,3.403,3.9188,4.204,4.3863,4.4854,4.5058,4.5326,4.6451,4.6809,4.6882,4.6929,4.6972,4.6936,4.6571,4.6668,4.6715,4.6643,4.6713,4.6641,4.6024,4.6231,0.0,0.0,0.0,0.0,4.4863,4.4978,4.4762,4.4122,4.3696,4.3156,4.2462,4.116,4.0118,3.9308,3.8455,3.7132,3.5418,3.4922,3.4797,3.4777,3.4553,3.3153,3.0889,3.0889,3.0889,3.0889,2.9941,3.0176,3.0597,2.8104,2.7657,2.8291,2.8291,2.8291,2.8291,0.0,0.0,0.0,0.0,0.0,0.0,0.0,0.0,0.0,0.0,0.0,0.0,0.0,0.0,0.0,0.0,0.0,0.0,0.0,0.0,3.7733,3.9512,4.0167,4.1595,4.3923,4.3958,4.5446,4.8573,4.9955,5.1625,5.3687,5.579,5.7438,5.8608,5.9992,6.097,6.166,6.0913,6.001,5.8752,5.5302,5.1808,4.8253,4.3684,3.8885,0.0,0.0,0.0,0.0,0.0,2.4072,2.3969,2.4792,2.4784,2.4693,2.5836,2.7624,2.9808,3.2439,3.444,3.6786,4.02,4.318,4.5345,4.6309,4.6692,4.7009,4.7492,4.7673,4.7666,4.7626,4.7372,4.7334,4.7518,4.7292,4.7119,4.7276,4.7088,4.6818,4.655,4.6477,4.6556,0.0,0.0,0.0,4.5309,4.5213,4.4785,4.4217,4.4096,4.3382,4.2006,4.1017,4.0001,3.8953,3.7747,3.6524,3.5418,3.4797,3.4423,3.4047,3.4548,3.3687,3.1758,3.0671,3.0176,3.0176,2.934,2.9695,3.0665,2.888,2.8563,2.915,2.8525,2.8291,2.8203,0.0,0.0,0.0,0.0,0.0,0.0,0.0,0.0,0.0,0.0,0.0,0.0,0.0,0.0,0.0,0.0,0.0,0.0,0.0,0.0,0.0,3.6479,3.6886,3.7835,3.9451,3.9562,4.1547,4.5472,4.6409,4.8952,5.3003,5.3922,5.5297,5.7084,5.8754,6.0001,6.0741,5.991,5.9012,5.7931,5.4349,5.0834,4.724,4.2238,0.0,0.0,0.0,0.0,0.0,0.0,2.1498,2.1897,2.1081,2.2837,2.5529,2.6541,3.0963,3.6019,3.828,3.8519,3.8741,4.0775,4.3931,4.6419,4.6296,4.6919,4.7505,4.7448,4.7405,4.7482,0.0,0.0,4.7569,4.9076,4.8122,4.741,4.818,4.7548,4.7083,0.0,0.0,0.0,0.0,0.0,0.0,4.6448,0.0,4.486,4.5049,4.4726,4.3732,4.1978,4.1458,4.0305,3.85,3.7032,3.6044,3.5418,3.5056,3.4308,3.3418,3.3418,3.3418,3.3204,3.0373,2.9058,2.8984,2.8984,2.9695,3.0889,3.0889,3.0889,3.0674,2.8935,2.8291,2.8057,0.0,0.0,0.0,0.0,0.0,0.0,0.0,0.0,0.0,0.0,0.0,0.0,0.0,0.0,0.0,0.0,0.0,0.0,0.0,0.0,0.0,0.0,0.0,0.0,0.0,0.0,0.0,0.0,0.0,4.5671,4.7227,4.9965,5.142,5.1845,5.4194,5.5347,5.5517,5.5866,5.536,5.4089,0.0,4.8643,4.601,0.0,0.0,0.0,0.0,0.0,0.0,0.0,0.0,2.1579,2.2079,2.4292,2.6954,2.8626,3.139,3.4649,3.7477,4.0616,4.3054,4.3314,4.6237,4.8677,4.7504,4.804,4.856,4.7712,4.7145,4.6778,0.0,0.0,0.0,4.813,4.8527,0.0,4.8821,4.8525,0.0,4.8002,0.0,4.7833,4.798,4.7745,0.0,0.0,4.5857,4.5085,4.4622,4.4317,4.3772,4.3082,4.2101,4.0796,3.9083,3.7143,3.6055,3.5798,3.517,3.4673,3.4173,3.367,3.3418,3.3272,3.158,3.0094,2.8984,2.8984,2.9695,3.0889,3.0889,3.0889,3.0674,2.8935,2.8291,2.8339,0.0,0.0,0.0,0.0,0.0,0.0,0.0,0.0,0.0,0.0,0.0,0.0,0.0,0.0,0.0,0.0,0.0,0.0,0.0,0.0,0.0,0.0,0.0,0.0,0.0,0.0,0.0,0.0,0.0,0.0,0.0,4.4881,4.6368,4.7651,4.9117,5.0308,5.1225,0.0,0.0,0.0,0.0,0.0,0.0,0.0,0.0,0.0,0.0,0.0,0.0,0.0,0.0,2.0417,2.2923,2.5517,2.7975,2.9748,3.2532,3.5725,3.8554,4.2275,4.5313,4.5417,4.787,4.9789,4.8001,4.8181,4.8226,4.6518,4.6251,4.607,4.5106,4.6567,4.7973,0.0,0.0,0.0,4.9699,4.8953,4.8545,0.0,4.8578,0.0,4.8806,4.8452,4.8055,0.0,4.6637,4.561,4.4951,4.4488,4.411,4.3485,4.2418,4.0813,3.8716,3.7385,3.6428,3.5861,3.5117,3.4646,3.4207,3.361,3.3181,3.3066,0.0,3.1341,2.9813,2.9813,3.0294,3.0889,3.0889,3.1238,3.1572,3.0569,2.9707,2.9036,0.0,0.0,0.0,0.0,0.0,0.0,0.0,0.0,0.0,0.0,0.0,0.0,0.0,0.0,0.0,0.0,0.0,0.0,0.0,0.0,0.0,0.0,0.0,0.0,0.0,0.0,0.0,0.0,0.0,0.0,0.0,0.0,0.0,0.0,0.0,0.0,0.0,0.0,0.0,0.0,0.0,0.0,0.0,0.0,0.0,0.0,0.0,0.0,0.0,0.0,1.9773,1.9692,2.4091,2.6912,2.9044,3.0849,3.4316,3.8142,4.0598,4.3555,4.6218,4.7073,4.8847,5.0009,4.8007,4.7699,4.7103,4.4551,4.4718,4.505,4.3742,4.5633,4.7474,4.7978,0.0,4.947,5.0515,4.9406,4.8913,4.9734,4.9291,4.9005,4.9516,4.8766,4.8302,4.8185,4.7349,4.6396,4.5453,4.4963,4.4299,4.3333,4.2268,4.0549,3.7998,3.7681,3.6916,3.5734,3.5124,3.4664,3.416,3.374,3.3132,3.2662,3.3037,3.2476,3.1122,3.1005,3.1005,3.1122,3.1122,3.1923,3.2955,3.2955,3.1678,2.9889,0.0,0.0,0.0,0.0,0.0,0.0,0.0,0.0,0.0,0.0,0.0,0.0,0.0,0.0,0.0,0.0,0.0,0.0,0.0,0.0,0.0,0.0,0.0,0.0,0.0,0.0,0.0,0.0,0.0,0.0,0.0,0.0,0.0,0.0,0.0,0.0,0.0,0.0,0.0,0.0,0.0,0.0,0.0,0.0,0.0,0.0,0.0,0.0,0.0,0.0,2.2118,2.2925,2.6962,2.9504,3.1394,3.4077,3.6925,3.9822,4.2364,4.45,4.6414,4.7672,4.8881,4.937,4.7695,4.686,0.0,4.3673,4.2923,4.2641,4.2166,4.3983,4.5899,4.6692,4.8352,5.001,5.1334,5.0864,5.0601,0.0,5.0286,4.9675,4.9556,4.901,0.0,0.0,4.7573,4.6742,4.5817,4.5086,4.4253,4.3061,4.2202,4.0789,3.8693,3.7932,3.7122,3.6169,3.5819,3.5648,3.5445,3.5157,3.4243,3.2944,3.2578,0.0,3.2268,3.1354,3.147,3.2383,3.2383,3.3182,3.4188,3.4188,3.2434,2.9994,0.0,0.0,0.0,0.0,0.0,0.0,0.0,0.0,0.0,0.0,0.0,0.0,0.0,0.0,0.0,0.0,0.0,0.0,0.0,0.0,0.0,0.0,0.0,0.0,0.0,0.0,0.0,0.0,0.0,0.0,0.0,0.0,0.0,0.0,0.0,0.0,0.0,0.0,0.0,0.0,0.0,0.0,0.0,0.0,0.0,0.0,0.0,0.0,0.0,0.0,2.3227,2.5242,2.8635,3.1518,3.4186,3.6759,3.9194,4.1781,4.4831,4.6756,4.8149,4.8934,4.9838,4.9907,4.7667,0.0,0.0,4.2848,4.2295,4.1953,4.125,4.3108,4.4901,4.5391,4.688,4.8817,5.1113,5.0587,5.0448,5.1735,5.097,5.0263,5.0037,4.9469,4.9112,4.8983,4.8,4.7028,4.6168,4.4939,4.3796,4.2496,4.1995,4.0763,3.8895,3.8538,3.7793,3.6895,3.6297,3.5815,3.5558,3.498,3.4166,3.2976,3.2981,3.254,3.1808,3.2487,3.3161,3.3625,3.3625,3.3963,3.4412,3.3738,3.2616,3.1278,0.0,0.0,0.0,0.0,0.0,0.0,0.0,0.0,2.228,2.3397,2.3249,2.2505,2.1049,1.9395,0.0,0.0,0.0,0.0,0.0,0.0,0.0,0.0,0.0,0.0,0.0,0.0,0.0,2.6045,0.0,0.0,0.0,0.0,0.0,0.0,0.0,0.0,0.0,0.0,0.0,0.0,0.0,0.0,0.0,0.0,0.0,0.0,0.0,0.0,0.0,0.0,2.3982,2.6505,2.953,3.2937,3.6378,3.8652,4.0952,4.3489,4.6794,4.8654,4.9762,4.9982,5.0575,5.0381,4.7554,4.6303,0.0,4.2293,4.1815,4.1505,4.0645,4.2151,4.373,0.0,4.5382,4.7378,5.0685,5.0133,5.0174,5.2323,5.1501,0.0,5.0613,5.0014,0.0,4.9495,4.8366,4.7208,4.615,4.4928,4.3656,4.2341,4.1858,4.0934,3.9282,3.9177,3.8589,3.764,3.6893,3.6212,3.5829,3.512,3.4328,3.342,3.3867,3.3412,3.2561,3.4491,3.5279,3.5279,3.4958,3.4747,3.4412,3.3409,3.3069,3.2807,0.0,0.0,0.0,0.0,0.0,0.0,0.0,0.0,2.3748,2.542,2.4396,2.3192,2.2245,2.085,0.0,0.0,0.0,0.0,0.0,0.0,0.0,0.0,0.0,0.0,0.0,0.0,0.0,2.5223,2.5314,0.0,0.0,0.0,0.0,0.0,0.0,2.994,0.0,0.0,0.0,0.0,0.0,0.0,0.0,0.0,0.0,0.0,0.0,0.0,0.0,0.0,0.0,2.6021,2.9484,3.3242,3.6806,3.8955,0.0,0.0,4.6892,4.8626,5.0041,5.0266,5.0194,4.9558,4.7402,0.0,4.3937,4.2136,4.1182,4.0581,4.048,4.0686,4.1514,0.0,0.0,4.6501,5.0717,5.0505,5.0754,5.322,0.0,0.0,5.0906,5.0078,4.9431,4.9209,4.8198,4.7086,4.5681,4.517,4.4405,4.3243,4.2621,4.1718,4.0269,3.9805,3.9128,3.8345,3.7885,3.758,3.7267,3.7005,3.6309,3.5352,3.5422,3.6168,0.0,3.7548,3.7655,3.7548,3.6592,3.5499,3.4524,3.4412,3.43,3.3917,0.0,0.0,0.0,0.0,0.0,0.0,0.0,2.1985,2.3224,2.5323,2.4905,2.4017,2.3083,2.1759,0.0,0.0,0.0,0.0,0.0,0.0,0.0,0.0,0.0,0.0,0.0,0.0,0.0,2.3649,2.3636,0.0,0.0,0.0,0.0,0.0,0.0,2.775,2.8545,0.0,0.0,0.0,0.0,0.0,0.0,0.0,0.0,0.0,0.0,0.0,0.0,0.0,0.0,0.0,2.8024,3.1807,0.0,0.0,4.208,4.5294,4.7839,4.9467,5.0634,5.0871,5.0451,4.9413,4.7319,0.0,4.3904,4.2238,4.0889,3.9972,3.9934,3.9556,3.973,0.0,0.0,0.0,4.72,4.7677,4.8692,5.1388,5.1207,0.0,0.0,0.0,4.9487,4.8866,4.8576,4.7955,4.6612,4.5936,4.5081,4.3959,4.3191,4.2301,4.1159,4.042,3.9877,3.941,3.8554,3.8116,3.799,3.7202,3.6612,3.6052,3.5769,3.7231,0.0,3.9245,3.8631,3.7974,3.7548,3.5839,3.3746,3.2999,3.2776,3.2561,0.0,0.0,0.0,0.0,0.0,0.0,2.0177,2.0985,2.2224,2.4397,2.433,2.3803,2.3145,2.154,1.9699,1.7706,0.0,0.0,0.0,0.0,0.0,0.0,0.0,0.0,0.0,0.0,0.0,2.1868,2.2105,2.2052,0.0,0.0,2.2508,2.3234,0.0,0.0,0.0,0.0,0.0,0.0,0.0,0.0,0.0,0.0,0.0,0.0,0.0,0.0,0.0,0.0,0.0,0.0,0.0,0.0,0.0,0.0,4.2252,4.5903,4.8573,5.0241,5.1296,5.136,5.0525,4.9193,0.0,0.0,4.3702,4.2388,4.0648,3.9466,3.9585,3.8728,3.8473,0.0,0.0,4.1516,4.5221,4.5995,4.7292,5.0407,0.0,5.0509,0.0,5.0729,4.9839,4.9014,4.8967,4.8569,4.7712,4.7124,4.6183,4.4817,4.3789,4.298,4.2329,4.131,4.0671,4.0423,3.9625,3.9161,3.8968,3.7977,3.7262,3.6841,3.6465,3.784,0.0,4.0235,3.9465,3.8514,3.8092,3.6459,3.4062,3.3317,3.2421,3.1618,0.0,0.0,0.0,0.0,0.0,0.0,0.0,1.971,2.103,2.2699,2.246,2.2179,2.2296,1.9814,1.8223,1.8453,0.0,0.0,0.0,0.0,0.0,0.0,0.0,0.0,0.0,0.0,0.0,0.0,0.0,2.1993,2.2711,2.255,2.3377,2.4939,0.0,0.0,0.0,0.0,0.0,0.0,0.0,0.0,0.0,0.0,0.0,0.0,0.0,0.0,0.0,0.0,0.0,0.0,0.0,0.0,0.0,0.0,4.257,4.6954,4.9077,5.0851,5.2058,5.1843,5.0532,4.8833,4.6743,4.4923,4.3364,4.2307,4.0503,3.9153,3.9491,3.8215,3.7631,3.9043,0.0,0.0,4.6061,4.6569,4.7727,0.0,0.0,4.9987,5.1152,5.0719,5.02,4.9923,4.9281,0.0,4.8481,4.8495,4.7671,4.6007,4.458,4.385,4.381,4.2378,4.1505,4.1213,4.12,4.0893,4.032,3.9734,3.8886,3.79,3.79,3.7913,0.0,4.0383,4.0605,3.9581,3.8409,3.7334,3.6243,3.6243,3.4324,3.1618,0.0,0.0,0.0,0.0,0.0,0.0,0.0,0.0,1.8737,1.963,1.9684,1.9743,2.0013,1.8648,1.7509,1.7026,0.0,0.0,0.0,0.0,0.0,0.0,0.0,0.0,0.0,0.0,0.0,0.0,0.0,0.0,0.0,0.0,2.2032,2.2586,2.3414,0.0,0.0,0.0,0.0,0.0,0.0,0.0,0.0,0.0,0.0,0.0,0.0,0.0,0.0,0.0,0.0,0.0,0.0,0.0,0.0,0.0,0.0,0.0,4.6879,4.8382,4.9557,4.9075,4.7937,4.6602,4.5154,4.3374,4.168,4.0751,3.9367,3.83,3.839,3.7286,3.7097,3.9455,3.96,0.0,0.0,0.0,0.0,4.9861,5.1612,5.2224,0.0,0.0,5.1173,5.0241,5.0183,4.9766,4.9136,4.8895,4.8193,4.6977,4.6093,4.5261,4.4449,4.3379,4.2596,4.2118,4.1496,4.0906,4.0334,3.9959,3.9269,3.8344,3.8083,3.7518,3.7019,3.927,3.868,3.6478,3.7525,3.6888,3.5218,3.453,3.3617,3.2656,0.0,0.0,0.0,0.0,0.0,0.0,0.0,0.0,1.6732,1.7415,1.7432,1.7724,1.8594,1.7308,1.6503,1.687,0.0,0.0,0.0,0.0,0.0,0.0,0.0,0.0,0.0,0.0,0.0,0.0,0.0,0.0,0.0,0.0,0.0,0.0,0.0,0.0,0.0,0.0,0.0,0.0,0.0,0.0,2.4874,0.0,0.0,0.0,0.0,0.0,0.0,0.0,0.0,0.0,0.0,0.0,0.0,0.0,3.915,4.3258,0.0,4.6872,4.7731,4.7142,4.6001,0.0,4.3468,4.1779,4.0243,3.942,3.8183,3.7292,3.7356,3.643,3.6309,3.8149,3.8564,3.9594,0.0,0.0,0.0,4.9356,0.0,0.0,0.0,5.1933,5.1813,5.089,5.0701,5.0281,4.9531,4.9207,4.8709,4.8136,4.7096,4.6059,4.518,4.4266,4.3484,4.279,4.2205,4.1731,4.1287,4.0773,4.0146,3.9375,3.8529,3.7728,0.0,3.8279,3.7194,3.4956,3.6278,3.5788,3.415,3.358,3.3281,3.3181,0.0,0.0,0.0,0.0,0.0,0.0,0.0,0.0,0.0,0.0,0.0,1.6059,1.7679,1.5802,0.0,0.0,0.0,0.0,0.0,0.0,0.0,0.0,0.0,0.0,0.0,0.0,0.0,1.9727,2.0998,2.2228,2.3383,0.0,0.0,0.0,0.0,0.0,0.0,0.0,0.0,0.0,0.0,0.0,0.0,0.0,0.0,0.0,0.0,0.0,0.0,0.0,0.0,0.0,0.0,0.0,0.0,0.0,0.0,0.0,0.0,4.5681,4.6408,4.5702,4.4487,4.3012,4.1662,4.0293,0.0,3.826,3.7132,3.6252,3.6555,3.5768,3.5264,3.6028,3.726,3.9053,0.0,4.4053,0.0,0.0,5.0925,0.0,5.1766,5.2318,5.2354,5.1672,5.1077,5.0423,4.9712,4.9404,4.9266,4.9317,4.7724,4.6556,4.6027,4.5191,4.4263,4.3424,4.3328,4.319,4.2806,4.1975,4.1298,0.0,3.9133,3.8357,0.0,3.7518,3.6406,3.5005,3.4931,3.4308,3.3381,3.3381,3.3381,3.3181,0.0,0.0,0.0,0.0,0.0,0.0,0.0,0.0,0.0,0.0,0.0,1.466,1.4612,1.4219,0.0,0.0,0.0,0.0,0.0,0.0,0.0,0.0,0.0,0.0,0.0,0.0,0.0,1.9795,2.0734,2.1787,2.3016,2.3422,0.0,0.0,0.0,0.0,2.3684,0.0,0.0,0.0,0.0,0.0,0.0,0.0,0.0,0.0,2.3078,2.3248,0.0,0.0,0.0,0.0,0.0,0.0,0.0,0.0,3.5722,3.78,3.9562,0.0,4.3321,4.2364,4.1697,4.0983,0.0,3.8652,3.7599,3.6895,0.0,3.5957,3.5923,3.539,3.5631,3.8118,3.8643,3.9844,4.2983,4.6357,0.0,5.0724,5.2022,5.275,5.2495,5.2771,5.2639,5.1701,5.1483,5.0802,4.9461,4.9108,4.8867,4.8708,4.8137,4.7637,4.7295,4.6654,4.5593,4.4332,4.4055,4.3382,4.2222,4.2024,4.12,3.9746,3.9171,3.8537,3.8002,3.7903,3.7307,3.6469,3.664,3.5743,3.4445,3.4445,3.3965,3.3181,0.0,0.0,0.0,0.0,0.0,0.0,0.0,0.0,0.0,0.0,0.0,0.0,0.0,0.0,0.0,0.0,0.0,0.0,0.0,0.0,0.0,0.0,0.0,0.0,0.0,0.0,0.0,0.0,0.0,2.2372,0.0,0.0,0.0,0.0,0.0,0.0,2.4055,2.409,2.3842,0.0,2.2828,0.0,0.0,0.0,0.0,0.0,2.2643,2.2888,0.0,2.4592,2.5708,2.6896,0.0,0.0,0.0,0.0,3.5067,3.6407,3.7668,3.9651,4.1163,4.0702,4.0013,3.9357,3.8478,0.0,0.0,0.0,0.0,3.5654,3.5643,3.5233,3.5642,3.7774,3.8473,0.0,0.0,0.0,4.9996,5.1072,5.1986,5.2481,0.0,5.2894,5.2693,5.1715,5.1614,5.0947,4.956,4.9093,4.8924,4.9108,4.8463,4.7892,4.7497,4.7047,4.6053,4.465,4.4372,4.36,4.2412,4.2054,4.1309,4.0414,3.9567,3.8994,3.8715,3.831,3.7902,3.7456,3.7332,3.6553,3.5477,3.4944,3.415,3.3181,0.0,0.0,0.0,0.0,0.0,0.0,0.0,0.0,0.0,0.0,0.0,0.0,0.0,0.0,0.0,0.0,0.0,0.0,0.0,0.0,0.0,0.0,0.0,0.0,0.0,0.0,0.0,0.0,0.0,0.0,0.0,0.0,2.515,0.0,0.0,2.457,2.4701,2.4492,2.4147,2.3666,2.2815,0.0,0.0,0.0,0.0,0.0,0.0,0.0,0.0,2.5182,2.6184,2.6779,2.9194,0.0,0.0,0.0,0.0,0.0,3.6981,3.832,3.9342,3.9494,3.8976,3.8104,3.7512,0.0,0.0,0.0,0.0,0.0,0.0,3.5504,0.0,0.0,0.0,0.0,4.5975,4.8244,4.9789,5.0601,5.1348,0.0,5.2,5.2537,5.2444,5.157,5.1468,5.0946,4.9741,4.9192,4.9138,4.9565,4.8491,4.774,4.7207,4.7007,4.6137,4.4789,4.4441,4.3875,4.297,4.2058,4.1639,4.1422,0.0,0.0,3.9255,3.8646,3.8184,3.7877,3.737,3.6899,3.6406,3.5465,3.4489,3.3181,0.0,0.0,0.0,0.0,0.0,0.0,0.0,0.0,0.0,0.0,0.0,0.0,0.0,0.0,0.0,0.0,0.0,0.0,0.0,0.0,0.0,0.0,0.0,0.0,0.0,0.0,0.0,0.0,0.0,0.0,2.4664,2.5958,2.6076,0.0,2.4322,2.4426,2.5266,2.4782,2.4127,2.3387,2.2637,0.0,0.0,0.0,0.0,0.0,0.0,0.0,0.0,2.3985,2.5721,2.7305,2.8347,0.0,0.0,0.0,0.0,0.0,3.5914,3.7027,3.7659,3.7684,3.7743,3.7646,3.6505,0.0,0.0,0.0,0.0,0.0,0.0,3.6851,3.7507,0.0,0.0,4.3781,0.0,0.0,4.8911,5.0055,0.0,5.1139,5.1392,5.1775,5.1575,5.0917,5.0815,5.0397,4.9447,4.9108,4.8838,4.8723,4.7857,4.7305,4.7207,4.7207,4.6643,4.5636,4.5136,4.4263,4.3245,4.2358,4.1518,4.0831,0.0,3.9401,3.8161,3.8363,3.8095,3.7615,3.7312,3.6885,3.6419,3.675,3.5704,3.3568,0.0,0.0,0.0,0.0,0.0,0.0,0.0,0.0,0.0,0.0,0.0,0.0,0.0,0.0,0.0,0.0,0.0,0.0,0.0,0.0,0.0,0.0,0.0,0.0,0.0,0.0,0.0,0.0,0.0,2.478,2.5075,2.5411,2.5524,2.5486,2.4595,2.482,2.5823,2.4963,2.4594,2.4432,0.0,0.0,0.0,0.0,0.0,0.0,0.0,0.0,0.0,0.0,2.5219,2.6758,2.78,0.0,0.0,0.0,0.0,0.0,3.4527,3.6186,3.7255,3.6783,3.7232,3.7614,3.7143,0.0,0.0,0.0,0.0,0.0,0.0,0.0,3.9214,4.1156,0.0,4.5602,4.7218,4.8171,4.8926,0.0,0.0,5.0283,5.0516,5.0909,5.1073,5.0743,5.067,5.0295,4.9349,4.9009,4.8795,4.8481,4.7616,4.7207,4.7207,4.6532,4.5957,4.54,4.4914,4.4236,4.3396,4.2221,4.1731,4.1517,0.0,3.9176,3.8714,3.8525,3.8157,3.7789,3.7707,3.7157,3.6321,3.5779,3.4352,3.2544,0.0,0.0,0.0,0.0,0.0,0.0,0.0,0.0,0.0,0.0,0.0,0.0,0.0,0.0,0.0,0.0,0.0,0.0,0.0,0.0,0.0,0.0,0.0,0.0,0.0,0.0,2.2786,2.4242,2.5233,2.5621,2.5476,2.5041,2.4977,0.0,2.4576,2.4874,2.5846,2.4958,2.4785,2.4893,0.0,0.0,0.0,0.0,0.0,0.0,0.0,0.0,0.0,0.0,0.0,0.0,0.0,0.0,0.0,3.0448,3.1164,3.1981,3.3709,3.5358,3.644,3.6189,0.0,3.753,3.8111,0.0,0.0,0.0,0.0,0.0,0.0,3.949,0.0,4.3447,4.5259,4.6579,4.731,4.8175,4.8699,4.8449,4.8924,4.9431,4.9659,5.0256,5.0528,5.0481,5.0438,5.0121,4.9334,4.8865,4.8653,4.8481,4.7334,4.6841,4.6996,4.5745,4.5102,4.5078,4.4705,4.411,4.346,4.2145,4.175,4.1876,3.9755,3.8975,3.9176,3.8658,3.8067,3.7597,3.7644,3.7082,3.6088,3.4611,3.3258,3.1936,0.0,0.0,0.0,0.0,0.0,0.0,0.0,0.0,0.0,0.0,0.0,0.0,0.0,0.0,0.0,0.0,0.0,0.0,0.0,0.0,0.0,0.0,0.0,0.0,0.0,2.3174,2.4367,2.5545,2.652,2.6574,2.5754,2.579,2.5268,2.4275,2.3859,2.4052,2.4723,2.4642,2.42,2.3473,2.2548,0.0,0.0,0.0,0.0,0.0,0.0,0.0,0.0,0.0,0.0,0.0,0.0,0.0,2.9565,3.0256,3.0949,3.1966,3.3731,3.419,3.436,3.5508,3.6356,0.0,3.8697,3.8363,0.0,4.0017,0.0,0.0,0.0,4.1076,4.2572,4.4687,4.554,4.6368,4.7143,0.0,4.7734,4.7513,4.8205,4.8824,4.9056,4.9501,4.9839,4.9799,4.9741,4.9629,4.932,4.8548,4.8197,4.8467,4.6475,4.5759,4.635,4.5113,4.4762,4.5228,4.4654,4.3957,4.3064,4.2242,4.1479,4.0713,4.0019,3.92,3.8305,3.8408,3.7741,3.6785,3.6553,3.6173,3.5573,3.4481,3.3679,3.2869,0.0,0.0,0.0,0.0,0.0,0.0,0.0,0.0,0.0,0.0,0.0,0.0,0.0,0.0,0.0,0.0,0.0,0.0,0.0,0.0,0.0,0.0,0.0,2.3474,2.4743,2.56,2.6262,2.6685,2.5967,2.5326,2.4708,2.3842,0.0,0.0,2.2774,2.3219,2.4094,2.4009,2.4181,2.4352,2.2309,2.0767,0.0,0.0,0.0,0.0,0.0,0.0,0.0,0.0,2.442,2.5215,0.0,0.0,2.8281,0.0,2.9228,2.9618,3.1537,3.2748,3.3756,3.4772,3.5885,0.0,0.0,3.8705,3.916,4.1231,4.1555,0.0,0.0,0.0,4.3413,4.5158,4.5552,4.5985,4.6647,4.6913,4.6784,4.6394,4.7015,4.7602,4.7661,4.8306,4.8681,4.8661,4.8977,4.8749,4.7781,4.7685,4.7602,4.7165,4.5817,4.5286,4.5524,4.4439,4.4024,4.4246,4.3822,4.3324,4.2902,4.1645,4.0795,4.0264,3.9446,3.8711,3.7952,3.7712,3.7207,3.6628,3.6275,3.5908,3.5524,3.4835,3.3965,3.3081,0.0,0.0,0.0,0.0,0.0,0.0,0.0,0.0,0.0,0.0,0.0,0.0,0.0,0.0,0.0,0.0,0.0,0.0,0.0,0.0,0.0,0.0,0.0,2.3227,2.5313,2.6303,2.6961,2.721,2.534,2.3987,2.3159,0.0,0.0,0.0,2.1705,2.2224,2.3231,2.2942,2.3395,2.4133,2.1913,2.0168,0.0,0.0,0.0,0.0,0.0,0.0,0.0,0.0,2.368,0.0,0.0,0.0,0.0,0.0,2.8452,2.8834,3.0268,3.1433,3.2691,0.0,0.0,0.0,3.7595,3.8912,4.041,4.2387,4.246,0.0,0.0,0.0,0.0,0.0,4.542,4.5762,4.6212,4.6212,4.6054,4.5608,4.5995,4.6509,4.6911,4.7455,4.7899,4.8182,4.8652,4.8339,4.7076,4.7149,4.6897,4.6307,4.5204,4.4677,4.4996,4.4027,4.36,4.3519,4.2799,4.244,4.2347,4.1233,4.0359,3.9785,3.8762,3.8135,3.7769,3.7201,3.6815,3.6534,3.6193,3.6003,3.58,3.503,3.415,3.3181,0.0,0.0,0.0,0.0,0.0,0.0,0.0,0.0,0.0,0.0,0.0,0.0,0.0,0.0,0.0,0.0,0.0,0.0,0.0,0.0,0.0,0.0,0.0,2.2325,2.3086,2.4874,2.6159,2.6994,2.4844,2.2908,2.1197,2.0857,0.0,0.0,2.0694,2.1155,2.1993,2.1326,2.1523,2.2304,2.1234,1.9678,1.7974,0.0,0.0,0.0,0.0,0.0,0.0,0.0,2.2747,0.0,0.0,0.0,0.0,0.0,2.9086,3.0065,3.0345,3.016,3.0668,0.0,0.0,0.0,3.6529,3.9384,4.1759,4.3663,0.0,4.23,4.3283,0.0,0.0,4.4113,4.5025,4.5611,4.5611,4.5611,4.5608,4.5542,4.5273,4.5673,4.7115,4.7228,4.7517,4.8424,4.8695,4.8524,4.7588,4.677,4.6251,4.6279,4.4552,4.4014,4.4968,4.4027,4.3519,4.3259,4.1854,4.1281,4.1479,4.1175,4.0313,3.8819,3.8213,3.7769,3.7413,3.6922,3.6534,3.6358,3.6358,3.6358,3.6263,3.5211,3.415,3.3181,0.0,0.0,0.0,0.0,0.0,0.0,0.0,0.0,0.0,0.0,0.0,0.0,0.0,0.0,0.0,0.0,0.0,0.0,0.0,0.0,0.0,0.0,0.0,0.0,0.0,0.0,2.4483,2.497,2.3622,2.2071,0.0,0.0,0.0,1.9055,0.0,0.0,0.0,2.036,2.0551,2.0589,2.0217,1.9437,1.8248,0.0,0.0,0.0,0.0,0.0,0.0,0.0,0.0,0.0,0.0,0.0,0.0,2.81,2.8066,2.8156,2.8829,2.9507,0.0,3.2197,0.0,0.0,0.0,3.989,0.0,0.0,4.3817,4.3752,4.3934,0.0,0.0,4.4165,4.4358,4.4332,4.4149,4.3963,4.3601,4.3257,4.3647,4.4363,4.5384,4.6137,4.6762,4.7044,4.7867,4.7642,4.6166,4.607,4.5679,4.5038,4.396,4.3533,4.3836,4.3355,4.3067,4.2984,4.2424,4.172,4.0883,4.0253,3.9281,3.8226,3.8372,3.7842,3.6909,3.6628,3.6452,3.6358,3.6358,3.6358,3.6263,3.5211,3.415,3.3181,0.0,0.0,0.0,0.0,0.0,0.0,0.0,0.0,0.0,0.0,0.0,0.0,0.0,0.0,0.0,0.0,0.0,0.0,0.0,0.0,0.0,0.0,0.0,0.0,0.0,2.1798,2.224,0.0,0.0,0.0,0.0,0.0,0.0,1.8441,0.0,1.8925,0.0,1.9012,1.9101,1.9145,1.9208,1.8796,1.8094,0.0,0.0,0.0,0.0,0.0,0.0,0.0,0.0,0.0,0.0,0.0,0.0,2.7259,2.7256,2.7162,2.7292,2.8656,0.0,3.2416,3.415,3.6185,3.8836,0.0,0.0,0.0,0.0,4.3055,4.3509,4.3282,0.0,4.3695,4.3532,4.3385,4.3484,4.3051,4.2638,4.2565,4.2798,4.338,4.4435,4.5089,4.5564,4.616,4.6939,4.6904,4.5605,4.5676,4.54,4.451,4.3739,4.3355,4.3437,4.3067,4.2887,4.2887,4.2256,4.1445,4.0616,4.0106,3.9361,3.8305,3.8158,3.751,3.6534,3.6452,3.6358,3.6358,3.6358,3.6168,3.5694,3.5461,3.4454,3.3181,0.0,0.0,0.0,0.0,0.0,0.0,0.0,0.0,0.0,0.0,0.0,0.0,0.0,0.0,0.0,0.0,0.0,0.0,0.0,0.0,0.0,0.0,0.0,0.0,0.0,0.0,0.0,0.0,0.0,0.0,0.0,0.0,1.8977,1.8559,0.0,1.8298,1.807,1.7435,1.746,1.7882,1.8041,1.7951,1.7665,1.7823,0.0,0.0,0.0,0.0,0.0,0.0,0.0,0.0,0.0,0.0,2.5148,2.5889,2.6547,2.6843,2.5948,0.0,0.0,3.3241,3.4493,0.0,3.8981,4.0731,4.2113,4.3338,0.0,4.1346,4.2383,4.2177,4.2125,4.284,4.2801,4.2747,4.3238,4.2532,4.2173,4.2723,4.2383,4.2611,4.4023,4.3935,4.4425,4.5799,4.6201,4.627,4.5942,4.5633,4.5177,4.4527,4.3766,4.3506,4.36,4.3163,4.2887,4.2887,4.1783,4.1055,4.0615,4.0698,4.0171,3.9155,3.768,3.6828,3.6358,3.6358,3.6358,3.6358,3.6263,3.5692,3.4868,3.5736,3.4842,3.298,0.0,0.0,0.0,0.0,0.0,0.0,0.0,0.0,0.0,0.0,0.0,0.0,0.0,0.0,0.0,0.0,0.0,0.0,0.0,0.0,0.0,0.0,0.0,0.0,0.0,0.0,0.0,0.0,0.0,0.0,0.0,0.0,0.0,1.7526,0.0,1.7652,1.6687,1.6224,1.6402,1.689,1.6722,1.7123,1.7834,1.6997,1.6193,0.0,0.0,0.0,0.0,0.0,0.0,0.0,2.169,2.2827,2.4067,2.5265,2.5798,2.6059,2.5932,2.7631,0.0,0.0,3.5321,3.7878,3.8803,3.9588,4.0424,4.1308,4.1588,4.1737,4.2157,4.2383,4.2554,4.2892,4.2604,4.216,4.1851,4.1279,4.0841,4.0786,4.104,4.1602,4.2598,4.3566,4.4468,4.5299,4.5779,4.625,4.6682,4.5889,4.5453,4.5302,4.4608,4.4029,4.3355,4.3259,4.308,4.2887,4.1975,4.1676,4.1914,4.0839,4.0546,4.0611,3.7763,3.6452,3.6358,3.6358,3.6358,3.6358,3.55,3.5017,3.4688,3.4167,3.313,3.1936,0.0,0.0,0.0,0.0,0.0,0.0,0.0,0.0,0.0,0.0,0.0,0.0,0.0,0.0,0.0,0.0,0.0,0.0,0.0,0.0,0.0,0.0,0.0,0.0,0.0,0.0,0.0,0.0,0.0,0.0,0.0,0.0,0.0,1.7427,0.0,1.6944,1.6296,1.5979,1.5641,1.5411,1.6253,1.67,1.6837,1.5854,1.5275,1.5127,1.5921,0.0,0.0,0.0,0.0,0.0,0.0,0.0,2.3103,2.4441,2.4931,2.5371,2.6723,0.0,0.0,3.3571,0.0,3.7738,3.8152,3.8368,3.8674,3.9362,4.0383,4.1103,4.0836,4.117,4.1565,4.1578,4.104,4.0542,4.0428,3.9916,3.9494,3.9525,4.002,4.0708,4.1513,4.2321,4.315,4.3939,4.4401,4.4955,4.5356,4.5458,4.5453,4.5274,4.4941,4.4608,4.4111,4.3616,4.3273,4.308,4.2369,4.1897,4.1809,4.1104,4.0945,4.118,3.8312,3.6841,3.6358,3.6358,3.6358,3.6263,3.5211,3.4823,3.464,3.3668,3.2969,3.2353,0.0,0.0,0.0,0.0,0.0,0.0,0.0,0.0,0.0,0.0,0.0,0.0,0.0,0.0,0.0,0.0,0.0,0.0,0.0,0.0,0.0,0.0,0.0,0.0,0.0,0.0,0.0,0.0,0.0,0.0,0.0,0.0,0.0,1.7368,0.0,1.6436,1.605,1.5686,1.4903,1.4066,1.5539,1.5826,1.5338,1.452,1.4434,1.4761,1.5748,1.6306,1.6762,1.7314,0.0,0.0,0.0,0.0,2.2225,2.3436,2.4002,2.4697,2.7034,0.0,3.114,3.4822,3.6307,0.0,3.7382,3.7449,3.7419,3.7916,3.9157,3.9968,3.942,3.9801,4.0181,3.9985,3.929,3.8758,3.9043,3.8479,3.8175,3.8415,3.9003,3.9637,4.0337,4.0821,4.1537,4.2325,4.287,4.3425,4.3819,4.4806,4.5271,4.5163,4.5247,4.5205,4.4996,4.407,4.3465,4.3273,4.279,4.199,4.0907,4.0907,4.092,4.0618,3.8723,3.7426,3.6653,3.6452,3.6358,3.6263,3.5211,3.4726,3.4445,3.3568,3.3181,3.2869,0.0,0.0,0.0,0.0,0.0,0.0,0.0,0.0,0.0,0.0,0.0,0.0,0.0,0.0,0.0,0.0,0.0,0.0,1.3762,0.0,0.0,1.5558,1.5647,0.0,0.0,0.0,0.0,0.0,0.0,0.0,0.0,0.0,0.0,1.6181,0.0,0.0,1.4715,1.4381,1.3964,1.3557,1.3259,1.3427,1.3727,1.3103,1.3592,1.4721,1.5358,1.5944,1.6551,1.7239,1.8261,0.0,0.0,0.0,2.1238,2.201,2.3185,2.4282,0.0,0.0,3.2152,0.0,3.5685,3.6824,0.0,0.0,3.7916,0.0,3.8326,3.8821,3.9136,3.9304,3.9304,3.9304,3.8851,3.8348,3.7929,3.7417,3.7014,3.6812,3.7465,3.8001,3.8435,3.981,4.0923,4.1531,4.2058,4.2893,4.4212,4.4624,4.5139,4.5776,4.6292,4.6055,4.4996,4.4802,4.429,4.3273,4.2984,4.1707,3.96,3.96,3.916,3.8344,3.8031,3.7808,3.7611,3.6747,3.6358,3.6263,3.5211,3.4249,3.3469,3.3381,3.2656,3.1834,0.0,0.0,0.0,0.0,0.0,0.0,0.0,0.0,0.0,0.0,0.0,0.0,0.0,0.0,0.0,1.3482,1.3343,1.3303,1.3324,1.4059,1.4506,1.4495,1.4801,1.4903,1.4687,0.0,0.0,0.0,0.0,0.0,0.0,1.8148,1.7817,0.0,0.0,0.0,0.0,0.0,1.3646,1.349,1.3204,1.3546,1.4148,1.4094,1.3882,1.3908,1.5211,1.5833,1.6193,1.6795,1.7624,1.8341,1.8573,0.0,0.0,0.0,2.2117,0.0,2.622,2.9329,3.2312,0.0,3.538,3.61,3.6813,0.0,3.7002,3.7578,3.7324,3.7286,3.8306,3.8709,3.87,3.8093,3.7661,3.7081,3.6024,3.568,3.5254,3.4559,3.513,3.5746,3.6173,3.743,3.858,3.9315,4.0262,4.1227,4.2321,4.348,4.4284,4.4672,4.6526,4.667,4.501,4.4996,4.4152,4.2412,4.2317,4.1205,3.9305,3.8782,3.8602,3.8692,3.8161,3.7611,3.7041,3.6546,3.6073,3.55,3.5017,3.4543,3.4052,3.3481,3.2969,3.2555,0.0,0.0,0.0,0.0,0.0,0.0,0.0,0.0,0.0,0.0,0.0,0.0,0.0,0.0,0.0,0.0,1.2872,1.2732,1.2922,1.3367,1.3553,1.3336,1.3835,1.3946,1.3611,0.0,0.0,0.0,0.0,0.0,1.9145,1.8967,1.9282,0.0,1.798,0.0,0.0,0.0,0.0,0.0,1.3411,1.4214,1.5275,1.6186,1.5696,1.459,1.5618,1.6105,1.6258,1.648,1.7031,1.7617,1.7993,1.8581,0.0,0.0,0.0,0.0,0.0,0.0,3.1329,3.369,3.4518,3.5046,0.0,0.0,3.6132,0.0,3.6376,3.6192,3.6998,3.7487,3.7451,3.6565,3.6105,3.5313,3.3897,3.3515,3.3026,3.2218,3.2716,3.3403,3.4048,3.513,3.6212,3.7043,3.8427,3.9499,4.0336,4.2088,4.3346,4.3751,4.6155,4.6737,4.5386,4.4705,4.3574,4.21,4.1504,4.0478,3.9127,3.8253,3.8253,3.8948,3.8161,3.7333,3.6358,3.6358,3.5787,3.4823,3.4823,3.4628,3.4347,3.3866,3.3469,3.3281,0.0,0.0,0.0,0.0,0.0,0.0,0.0,0.0,0.0,0.0,0.0,0.0,0.0,1.3962,1.3581,1.2367,1.2639,1.2848,1.2827,1.2711,1.2595,1.2381,1.283,0.0,1.2503,0.0,0.0,0.0,0.0,0.0,1.9606,2.0268,2.1439,2.2799,1.902,1.6088,1.413,0.0,0.0,0.0,0.0,1.484,0.0,0.0,1.9488,0.0,0.0,1.6857,1.7243,1.6765,1.6769,1.7097,1.7837,1.8294,1.8591,0.0,0.0,0.0,0.0,2.737,0.0,3.1201,3.2573,0.0,0.0,0.0,3.5783,3.5545,3.5736,3.5745,3.5108,3.5097,3.5084,3.4607,3.3968,3.3017,3.1731,3.0998,3.0319,2.995,3.0314,3.1102,3.2086,3.3387,3.4414,3.5258,3.6879,3.812,3.8957,4.0824,4.2443,4.3553,4.4766,4.5682,4.6317,4.3808,4.2806,4.3286,4.1099,3.9572,3.8602,3.8161,3.79,3.7992,3.79,3.7333,3.6358,3.6358,3.5787,3.4823,3.4823,3.4249,3.3481,3.4347,3.4162,3.3281,0.0,0.0,0.0,0.0,0.0,0.0,0.0,0.0,0.0,0.0,0.0,0.0,0.0,1.3464,1.3159,1.2434,1.2008,1.1535,1.1025,1.1084,1.1113,1.1085,1.1404,1.1557,1.142,0.0,0.0,0.0,0.0,1.6234,1.8883,1.9663,2.0762,2.2063,2.0486,1.8574,1.6693,1.8173,0.0,0.0,0.0,0.0,0.0,0.0,0.0,0.0,0.0,0.0,1.6937,1.7215,1.7113,1.6936,1.7208,1.7263,0.0,0.0,0.0,0.0,0.0,0.0,0.0,2.977,3.1231,3.2388,3.3908,3.4675,3.512,3.5188,3.4652,3.4118,3.3841,3.427,3.4417,3.3753,3.3212,3.2323,3.0785,2.9977,2.9177,2.8133,2.8502,2.9056,2.9621,3.0832,3.2132,3.3298,3.4792,3.6087,3.7262,3.9358,4.0594,4.1083,4.2119,4.3331,4.4428,4.2821,4.1758,4.1322,4.0199,3.9215,3.8395,3.833,3.7874,3.6934,3.6934,3.6747,3.6358,3.5692,3.5114,3.4823,3.4823,3.4543,3.4347,3.464,3.4531,3.415,0.0,0.0,0.0,0.0,0.0,0.0,0.0,0.0,0.0,0.0,0.0,0.0,0.0,0.0,1.3168,1.2361,1.1604,1.0844,1.0005,1.0006,1.0006,0.9908,1.0282,1.0479,1.041,0.0,0.0,0.0,0.0,0.0,0.0,1.8983,2.0408,2.1911,2.2367,2.1041,0.0,0.0,0.0,1.5649,0.0,0.0,1.7916,0.0,0.0,0.0,0.0,0.0,0.0,1.7962,1.7707,1.7254,0.0,0.0,0.0,0.0,0.0,0.0,2.2983,0.0,0.0,0.0,0.0,3.0465,3.2896,0.0,3.3545,3.3935,3.3227,3.2527,3.2459,3.2635,3.258,3.2189,3.1542,3.0555,2.8932,2.8222,2.7314,2.6268,2.6605,2.7055,2.7391,2.8639,2.9827,3.1088,3.2588,0.0,3.5082,3.7384,3.8818,3.931,4.007,4.1015,4.1869,4.1275,4.0761,4.0302,3.944,3.8872,3.8398,3.8227,3.7677,3.6841,3.6546,3.6168,3.5787,3.5114,3.4823,3.4823,3.4823,3.4823,3.4823,3.4823,3.4378,3.3684,0.0,0.0,0.0,0.0,0.0,0.0,0.0,0.0,0.0,0.0,0.0,0.0,0.0,0.0,0.0,1.2001,1.1601,1.1012,0.9983,0.9623,0.9301,0.8911,0.9488,0.9728,0.9466,1.045,0.0,0.0,0.0,0.0,0.0,0.0,2.0497,2.2484,2.4243,2.2823,1.9166,0.0,1.8535,1.9107,0.0,1.8575,2.0644,0.0,0.0,0.0,2.0183,2.0081,0.0,1.9079,0.0,0.0,0.0,0.0,0.0,0.0,0.0,0.0,0.0,0.0,0.0,0.0,0.0,0.0,3.1297,0.0,3.0891,3.1682,3.1476,3.111,3.0883,3.0079,2.9521,2.9681,2.8855,2.7757,2.6264,2.5392,2.4768,2.438,2.4545,2.5006,2.5703,2.6788,2.7814,2.8597,3.0546,3.1984,3.2489,3.4952,3.6936,3.828,3.8769,3.8945,3.8932,3.9243,3.9721,4.0267,3.8846,3.832,3.8658,3.7751,3.7518,3.7808,3.6841,3.5787,3.4823,3.4823,3.4823,3.4726,3.4823,3.4787,3.4727,3.4642,3.3428,3.1795,0.0,0.0,0.0,0.0,0.0,0.0,0.0,0.0,0.0,0.0,0.0,0.0,0.0,0.0,0.0,1.2992,1.2537,1.1744,1.034,0.9414,0.887,0.877,0.8415,0.8415,0.8844,0.964,0.0,0.0,0.0,0.0,0.0,0.0,0.0,0.0,1.8214,1.8459,1.9041,2.0225,0.0,1.8377,1.8936,1.9918,0.0,0.0,0.0,0.0,0.0,2.0546,2.0459,0.0,1.9925,1.9543,0.0,0.0,0.0,0.0,0.0,0.0,1.9111,0.0,0.0,0.0,0.0,0.0,0.0,0.0,2.8292,2.9727,2.9368,2.8803,2.9086,2.8321,2.7428,2.6592,2.6869,2.6739,2.55,2.5048,2.4499,2.3974,2.4349,2.4774,2.4859,2.5788,2.6666,0.0,2.8825,2.9896,3.0822,3.3235,3.47,3.5189,3.642,3.7066,3.7066,3.7466,3.7989,3.8596,3.7807,3.7464,3.7526,3.7198,3.7134,3.7214,3.5883,3.5114,3.4823,3.4823,3.4347,3.3767,3.4543,3.3885,3.2448,3.1703,3.1065,3.088,0.0,0.0,0.0,0.0,0.0,0.0,0.0,0.0,0.0,0.0,0.0,0.0,0.0,0.0,0.0,1.3621,1.3151,1.2239,1.066,0.969,0.8979,0.8602,0.8157,0.804,0.8229,0.8903,0.0,0.0,0.0,0.0,0.0,0.0,0.0,0.0,0.0,0.0,0.0,0.0,0.0,0.0,2.0654,0.0,0.0,2.159,2.164,0.0,0.0,0.0,2.1446,2.1524,2.1025,0.0,0.0,0.0,0.0,0.0,0.0,0.0,0.0,0.0,0.0,0.0,0.0,0.0,2.5348,2.578,2.6104,2.7973,2.7728,2.7186,2.7488,2.6693,2.557,2.4307,2.4369,2.4354,2.3797,2.3485,2.2976,2.2503,2.2971,2.3338,2.3344,2.4065,2.4923,2.5824,2.6792,2.8051,2.9667,3.1167,3.2293,3.3071,3.4336,3.5136,3.5467,3.6141,3.6762,3.7221,3.6842,3.6692,3.6909,3.64,3.6425,3.6734,3.5404,3.403,3.2996,3.427,3.4249,3.3381,3.3965,3.3408,3.2241,3.0709,2.9943,2.9746,0.0,0.0,0.0,0.0,0.0,0.0,0.0,0.0,0.0,0.0,0.0,0.0,0.0,0.0,0.0,0.0,1.368,1.2694,1.1057,1.0288,0.9442,0.8491,0.8374,0.8157,0.7774,0.8283,0.0,0.0,0.0,0.0,0.0,0.0,0.0,0.0,0.0,0.0,0.0,0.0,0.0,1.8616,2.1949,2.27,0.0,0.0,2.3082,2.3082,2.3405,2.3181,2.2673,2.2801,2.1808,0.0,0.0,0.0,0.0,0.0,1.6299,0.0,0.0,0.0,0.0,0.0,0.0,0.0,2.3863,2.3873,2.3718,2.5943,2.5942,2.5487,2.568,2.4794,2.3622,2.2274,2.1493,2.1195,2.1552,2.1207,2.0824,2.0537,2.1003,2.1301,2.1343,2.2133,2.2971,2.3746,2.4815,2.633,2.8518,2.8912,2.9768,3.1325,3.2352,3.322,3.4152,3.5219,3.5887,3.6186,3.5887,3.5957,3.6425,3.5562,3.5544,3.6138,3.5089,3.3043,3.0606,3.3161,3.3808,3.3146,3.3047,3.2948,3.2753,3.0958,2.9583,2.8664,1.6608,0.0,0.0,0.0,0.0,0.0,0.0,0.0,0.0,0.0,0.0,0.0,0.0,0.0,0.0,0.0,1.5156,1.3779,1.2107,1.0987,0.9888,0.8786,0.8253,0.8069,0.8248,0.822,0.0,0.0,0.0,0.0,0.0,0.0,0.0,0.0,0.0,0.0,0.0,0.0,0.0,1.6643,1.9155,0.0,2.3862,2.3351,2.3348,2.365,2.3966,2.3853,2.3471,2.3036,2.2559,2.1778,0.0,0.0,0.0,1.7497,0.0,0.0,0.0,0.0,0.0,0.0,0.0,0.0,1.8714,1.8955,1.9543,2.1793,2.1845,2.1696,2.2143,2.1355,2.0277,1.9199,1.8473,1.8596,1.9903,1.9777,1.9592,1.9297,1.9556,1.9813,1.9908,2.0363,2.1004,2.1658,2.3217,2.4618,2.5689,2.685,2.7766,2.8442,3.0596,3.2131,3.2871,3.413,3.4901,3.5353,3.5057,3.4939,3.4869,3.4678,3.4644,3.4723,3.4159,3.3007,3.1398,3.1159,3.1457,3.1924,3.109,3.0813,3.0869,3.1216,2.9786,2.7631,1.6502,0.0,0.0,0.0,0.0,0.0,0.0,0.0,0.0,0.0,0.0,0.0,0.0,0.0,0.0,0.0,0.0,0.0,0.0,0.0,1.0232,0.9301,0.8527,0.8181,0.8233,0.8023,0.8094,0.0,0.0,0.0,0.0,0.0,0.0,0.0,0.0,0.0,0.0,0.0,1.453,1.6085,1.8866,0.0,2.3388,2.3614,2.3981,2.4397,2.4863,2.5084,2.4847,2.3503,2.2996,0.0,2.0918,2.0272,1.9861,0.0,1.7555,1.6927,0.0,0.0,0.0,1.487,0.0,0.0,0.0,1.7058,1.7679,1.9258,1.9522,1.9487,1.9302,1.8854,1.8045,1.677,1.6475,1.6461,1.6748,1.7462,1.7874,1.7692,1.8097,1.8383,1.8177,1.8682,1.9201,1.9702,2.0911,2.2045,2.2902,2.4029,2.5062,2.6091,2.798,2.9588,3.0737,3.2423,3.3556,3.4085,3.4008,3.4115,3.4375,3.374,3.3479,3.3526,3.3148,3.2077,3.0705,3.0892,3.0859,3.0578,2.976,3.009,3.076,2.9796,2.8234,2.6496,1.645,0.0,0.0,0.0,0.0,0.0,0.0,0.0,0.0,0.0,0.0,0.0,0.0,0.0,0.0,0.0,0.0,0.0,0.0,0.0,0.0,0.9902,0.9134,0.8626,0.8496,0.8076,0.7921,0.0,0.0,0.0,0.0,0.0,0.0,0.0,0.0,0.0,0.0,0.0,0.0,1.6022,0.0,2.0737,2.2031,2.3378,2.4183,2.4809,2.5587,2.6147,2.6073,2.4045,2.3408,2.3318,2.1772,2.0794,0.0,0.0,0.0,0.0,0.0,0.0,0.0,0.0,0.0,1.467,0.0,0.0,0.0,1.7174,1.7584,1.7599,1.692,0.0,0.0,0.0,0.0,0.0,0.0,1.4928,0.0,1.6047,1.6464,1.6638,1.641,1.7004,1.74,1.7576,1.8411,1.9297,2.0116,2.1218,2.2483,2.4098,2.5639,2.7138,2.8655,3.0628,3.1908,3.2506,3.2636,3.3042,3.3551,3.2495,3.2106,3.2226,3.1785,3.0836,2.9704,3.0901,3.06,2.9301,2.8932,2.9611,3.0475,2.7897,2.64,2.5635,1.6566,1.621,0.0,0.0,0.0,0.0,0.0,0.0,0.0,0.0,0.0,0.0,0.0,0.0,0.0,0.0,0.0,0.0,1.4752,0.0,0.0,1.051,1.0051,0.9849,0.9874,0.892,0.8594,0.0,0.0,0.0,0.0,0.0,0.0,0.0,1.0182,0.0,0.0,0.0,1.3834,0.0,1.6971,1.8556,0.0,2.1953,2.321,2.4158,2.5414,2.6108,2.6278,0.0,2.4169,2.3796,0.0,2.1103,2.1363,1.8585,0.0,0.0,0.0,0.0,0.0,0.0,1.378,0.0,0.0,0.0,1.3739,1.4512,0.0,1.5116,0.0,0.0,0.0,0.0,0.0,0.0,1.2907,1.3016,1.3441,1.4345,1.4317,1.4336,1.4611,1.5295,1.5547,1.5135,1.6216,1.7123,1.7597,1.9335,2.0989,2.2405,2.4785,2.6451,2.7439,2.9072,3.0037,3.0375,3.0836,3.0964,3.0845,3.0544,3.0301,3.0105,2.9892,2.9587,2.9239,2.9612,2.9402,2.8817,2.8839,2.8419,2.7637,2.6383,2.583,2.5538,1.6833,1.6392,0.0,0.0,0.0,0.0,0.0,0.0,0.0,0.0,0.0,0.0,0.0,0.0,0.0,0.0,0.0,1.602,0.0,0.0,0.0,0.0,1.0519,1.0255,1.0337,0.9716,0.9279,0.9086,0.8546,0.0,0.0,0.0,0.0,0.0,0.9765,0.0,1.1587,0.0,1.287,0.0,0.0,0.0,0.0,2.0704,2.2631,2.3953,2.5065,2.5822,2.6143,0.0,2.4013,0.0,0.0,0.0,0.0,1.956,0.0,0.0,0.0,0.0,0.0,0.0,0.0,0.0,1.2166,0.0,1.2935,0.0,0.0,0.0,0.0,0.0,0.0,0.0,1.2721,0.0,0.0,0.0,1.2265,0.0,0.0,0.0,1.3243,1.348,1.3487,1.3307,1.3863,1.4604,1.5446,1.7136,1.8889,2.0698,2.2958,2.4711,2.6101,2.7591,2.8524,2.8929,2.9309,2.9561,2.9605,2.938,2.9307,2.9359,2.9051,2.8607,2.8254,2.7651,2.7461,2.7305,2.6446,2.6187,2.6207,2.5235,2.4843,2.4548,1.7086,0.0,0.0,0.0,0.0,0.0,0.0,0.0,0.0,0.0,0.0,0.0,1.8535,1.9404,0.0,0.0,1.8291,1.7244,0.0,0.0,1.2384,1.199,1.1249,1.0831,1.0873,1.0345,0.9867,0.9381,0.0,0.0,0.0,0.0,0.0,0.0,0.0,1.0662,1.1508,0.0,1.2655,1.3631,1.4038,1.5213,1.6963,1.9846,2.1878,2.3328,2.4298,2.5037,2.5407,2.4226,2.3326,0.0,2.2136,0.0,1.9586,0.0,0.0,0.0,1.7238,0.0,0.0,0.0,0.0,0.0,0.0,0.0,0.0,0.0,0.0,0.0,0.0,0.0,0.0,0.0,0.0,1.2699,0.0,1.1621,0.0,0.0,0.0,0.0,0.0,1.2214,1.2137,1.2068,1.226,1.2851,1.3818,1.5407,1.7226,1.9286,2.1395,2.3243,2.4792,2.6205,2.7043,2.736,2.7657,2.7941,2.816,2.807,2.8103,2.8307,2.8202,2.7895,2.7393,2.689,2.6733,2.6512,2.4035,2.3078,2.2858,2.2186,2.212,2.2102,1.7282,1.671,0.0,0.0,0.0,0.0,0.0,0.0,0.0,0.0,0.0,0.0,0.0,0.0,0.0,0.0,0.0,1.9843,1.8795,0.0,1.3326,1.3705,1.2539,1.1836,1.1752,1.0784,1.023,1.0079,0.8776,0.0,0.0,0.0,0.0,0.0,0.0,1.0721,1.1323,1.2874,1.408,1.4942,1.5312,1.6482,1.8208,0.0,2.0869,2.184,2.2847,0.0,0.0,2.2869,2.2117,0.0,0.0,0.0,0.0,0.0,0.0,0.0,0.0,0.0,0.0,1.4671,0.0,0.0,0.0,0.0,1.2418,0.0,0.0,0.0,0.0,0.0,0.0,0.0,0.0,0.0,0.0,0.0,0.0,0.0,0.0,0.0,0.0,1.2003,1.2129,1.1669,1.2006,1.2465,1.3086,1.4628,1.6391,1.8313,2.0616,2.2363,2.3547,2.478,2.544,2.5589,2.5803,2.5904,2.5951,2.612,2.6268,2.6348,2.7066,2.7117,2.6944,2.82,2.8175,2.6791,2.2217,1.8682,1.6069,1.6069,1.6718,1.7413,0.0,0.0,0.0,0.0,0.0,0.0,0.0,1.4104,0.0,0.0,1.5819,0.0,0.0,1.9806,2.1291,0.0,0.0,2.1198,1.9722,1.7258,0.0,1.5285,1.3636,1.2733,0.0,1.149,1.0695,1.0235,0.9352,0.0,0.0,0.0,0.0,0.0,0.0,1.0633,0.0,0.0,0.0,0.0,0.0,1.5581,1.5984,0.0,1.9079,1.9725,2.0781,2.1273,0.0,2.144,2.0827,2.0041,1.9816,1.8883,1.7916,1.772,1.7277,0.0,0.0,0.0,1.3702,1.4155,0.0,0.0,0.0,0.0,0.0,0.0,0.0,0.0,0.0,0.0,0.0,0.0,0.0,0.0,0.0,0.0,0.0,0.0,0.0,0.0,0.0,0.0,1.1226,1.1198,1.1736,1.2195,1.2452,1.4477,1.6444,1.8052,1.9844,2.1531,2.2926,2.3663,2.4068,2.414,2.4294,2.4491,2.4666,2.4592,2.4869,2.5326,2.5612,2.5724,2.5626,2.5868,2.5795,2.5033,2.1274,1.8334,1.6306,1.5998,1.562,1.525,1.7639,0.0,0.0,0.0,0.0,0.0,0.0,0.0,0.0,0.0,1.572,0.0,1.7918,0.0,2.1944,0.0,2.3569,2.3062,2.0589,1.9107,0.0,1.6203,1.4838,1.381,0.0,1.2162,1.1148,1.0244,0.9637,0.9039,0.0,0.0,0.0,0.0,0.0,1.0274,1.0996,1.2504,1.3289,0.0,0.0,1.5163,0.0,0.0,1.6782,1.7388,0.0,1.8679,1.9021,1.9414,1.9137,1.8638,1.8852,1.7987,1.6916,1.6826,1.6166,1.541,1.5366,1.4077,0.0,1.334,1.2611,0.0,1.2977,0.0,1.4255,0.0,0.0,0.0,0.0,0.0,0.0,0.0,0.0,0.0,0.0,1.2769,0.0,0.0,0.0,0.0,0.0,1.1297,1.1447,1.223,1.2462,1.2813,0.0,1.5287,1.6836,1.7942,1.9645,2.1193,2.2673,2.2946,2.3217,2.3398,2.3069,2.3015,2.3155,2.3174,2.3334,2.3675,2.3935,2.4273,2.4488,2.38,2.2921,2.1658,1.9131,1.7404,1.63,1.6173,1.5077,1.3728,1.7489,0.0,0.0,0.0,1.5085,0.0,0.0,0.0,1.38,0.0,1.5265,1.668,1.8773,2.1027,2.2663,2.3507,2.5494,2.5247,2.1724,2.0876,0.0,0.0,1.6088,1.5057,1.3516,1.268,1.158,1.0205,0.9734,0.9047,0.0,0.0,0.0,0.0,0.9211,0.0,0.9164,1.1402,1.281,1.3579,1.4474,1.512,1.5477,1.3998,1.3953,1.4856,1.5258,1.5915,1.6669,1.7,1.7139,1.7212,1.7414,1.7044,1.6445,1.6041,1.5115,1.4386,1.4572,1.3567,1.2441,1.2363,1.2158,0.0,0.0,0.0,1.5429,0.0,0.0,0.0,0.0,0.0,0.0,0.0,0.0,0.0,0.0,0.0,1.2839,0.0,1.1834,1.1929,1.2129,1.2073,1.2739,1.4562,1.4022,1.4242,0.0,1.6786,1.7586,1.8022,1.9931,2.1419,2.2593,2.2469,2.2672,2.3147,2.2209,2.1634,2.1446,2.1696,2.166,2.156,2.1977,2.2764,2.3567,2.2236,1.9894,1.7138,1.6204,1.5724,1.5798,1.6292,1.4854,1.2597,1.6917,1.6013,1.5222,0.0,1.4766,1.4373,0.0,0.0,0.0,0.0,1.6468,1.8618,2.1547,2.2594,2.3574,2.469,2.5257,0.0,0.0,0.0,0.0,1.9751,1.775,1.6061,1.4825,1.2827,1.172,1.1601,0.9919,0.9088,0.8999,0.0,0.0,0.0,0.0,0.0,0.9241,1.0313,1.1822,1.3683,1.5557,1.5141,1.3252,0.0,1.1097,1.1633,1.2968,1.3326,1.3402,1.483,1.5095,1.4983,1.5567,1.5278,1.472,1.4223,1.3633,1.3056,1.2787,1.2059,1.1522,1.2016,1.199,1.208,0.0,0.0,0.0,0.0,0.0,0.0,0.0,0.0,0.0,0.0,0.0,0.0,0.0,0.0,0.0,1.3467,1.3189,1.2913,1.2597,1.3203,1.3792,1.4216,1.5116,0.0,0.0,0.0,1.8327,1.8868,2.0034,2.0947,2.1548,2.1375,2.1381,2.1718,2.1104,2.0929,2.1031,2.0576,2.0315,2.0105,1.9661,2.0191,2.1363,2.0846,1.8888,1.6204,1.592,1.5175,1.4397,1.4082,1.3333,1.2302,1.6757,1.5427,0.0,1.3719,0.0,0.0,1.38,1.3674,0.0,1.4601,1.6477,0.0,2.0452,2.215,2.3362,2.4019,2.4643,0.0,2.5046,0.0,0.0,2.074,1.8884,1.7239,1.5847,1.3806,0.0,1.0641,0.9614,0.0,0.8602,0.0,0.0,0.0,0.0,0.7399,0.7568,0.898,1.0762,1.2792,1.4379,1.4034,0.0,0.9416,0.8667,0.9155,0.9924,1.0804,1.167,1.2724,1.3089,1.332,1.3955,1.388,1.3464,1.313,1.2711,1.2254,1.203,1.1558,1.1209,1.1843,1.2078,1.2495,1.3916,1.5098,1.6537,0.0,1.9308,1.9993,0.0,0.0,0.0,0.0,0.0,0.0,0.0,0.0,0.0,0.0,1.4072,1.4046,1.3717,1.4043,1.4358,1.4494,1.5986,0.0,0.0,0.0,1.9344,1.9513,2.0381,2.1005,2.1285,2.0841,2.0695,2.0855,2.0242,1.9984,1.9913,1.9362,1.8843,1.846,1.7767,1.7828,1.8322,1.8243,1.6847,1.495,1.475,1.4007,1.3021,1.2172,1.15,1.0877,1.6375,0.0,0.0,0.0,0.0,0.0,0.0,1.3344,0.0,1.4061,0.0,1.7605,1.8163,2.0841,2.2624,2.2707,0.0,2.4191,2.3169,2.3904,2.3342,2.1077,1.9827,1.8319,1.6504,1.4924,1.252,0.0,0.0,0.0,0.0,0.0,0.0,0.0,0.0,0.0,0.0,0.7806,0.9673,1.1311,1.1919,1.2081,1.1538,0.7892,0.6909,0.7483,0.713,0.8581,1.0573,1.0765,1.1235,1.1881,1.2602,1.2729,1.2667,1.2717,1.2312,1.1905,1.2009,1.1744,1.1554,1.2,1.2459,1.3331,1.5016,1.6457,1.8083,2.0238,2.0941,2.1536,0.0,0.0,0.0,0.0,0.0,0.0,0.0,0.0,0.0,0.0,0.0,0.0,1.5141,1.5008,1.5043,1.5406,1.6735,0.0,0.0,0.0,2.0213,1.9948,2.0754,2.1236,2.1274,2.0549,2.0159,2.0246,1.9456,1.8874,1.8506,1.8035,1.7415,1.6788,1.6339,1.5771,1.5144,1.5061,1.4361,1.3413,1.3105,1.2513,1.1587,1.0475,0.9617,0.8871,1.4185,0.0,0.0,0.0,0.0,1.1995,1.2859,1.3731,1.4528,1.5137,1.6892,1.8631,2.0205,2.1069,2.1995,2.309,2.3579,0.0,0.0,0.0,0.0,2.3647,2.1332,1.8877,1.63,1.4605,1.2972,0.0,0.0,0.0,0.0,0.0,0.0,0.0,0.0,0.0,0.6921,0.7709,0.0,0.933,0.9904,0.9414,0.8285,0.7502,0.7336,0.7405,0.6748,0.7338,0.8581,0.9422,0.9907,1.0346,1.1697,1.2169,1.23,1.2599,1.2701,1.261,1.2349,1.2478,1.2744,1.2988,1.3725,1.4733,1.5774,1.7212,1.8736,2.0222,2.1542,2.2464,2.2672,0.0,0.0,0.0,0.0,0.0,0.0,0.0,0.0,0.0,0.0,1.6656,1.5962,1.6976,1.7513,1.7044,0.0,0.0,0.0,0.0,1.9727,0.0,2.0877,0.0,0.0,0.0,1.9254,1.9203,1.8078,1.7653,1.7717,1.7079,1.6436,1.5884,1.5279,1.4496,1.3568,1.33,1.247,1.1431,1.1747,1.1081,0.9874,0.9252,0.8204,0.7207,1.3515,0.0,0.0,0.0,0.0,0.0,0.0,1.2279,1.3386,1.4212,1.586,1.7356,1.833,1.9608,2.0498,2.0858,2.0929,2.1406,2.2512,2.3715,2.3933,2.291,2.1341,1.9863,1.8557,1.5446,1.2715,1.0475,0.0,0.0,0.0,0.0,0.0,0.0,0.0,0.6035,0.0,0.0,0.0,0.8804,0.9061,0.7854,0.5887,0.6201,0.6187,0.5892,0.5383,0.566,0.6561,0.7769,0.8582,0.9311,1.0665,1.1408,1.1854,1.2736,1.2823,1.288,1.3351,1.3592,1.3811,1.4453,1.5396,1.6374,1.7281,1.8552,2.0028,2.1849,2.2579,2.2906,2.297,2.2574,0.0,0.0,0.0,0.0,0.0,0.0,1.8098,0.0,0.0,0.0,0.0,0.0,0.0,0.0,0.0,0.0,0.0,0.0,1.9834,0.0,0.0,0.0,2.0248,0.0,1.8887,1.8411,1.7576,1.7007,1.6713,1.617,1.5551,1.4904,1.4177,1.3386,1.2542,1.1715,1.0879,1.0152,1.0113,0.9446,0.8353,0.7839,0.6858,0.5911,0.0,1.1994,0.0,0.0,0.9784,0.9525,0.9289,1.02,1.1419,1.292,1.4654,1.5821,1.6115,1.7806,1.8703,1.8274,1.8027,1.823,1.9006,2.0173,2.0767,2.0482,1.997,1.9678,1.9546,1.5988,1.2669,0.0,0.0,0.0,0.0,0.0,0.0,0.0,0.0,0.0,0.0,0.0,0.6581,0.8293,0.6355,0.464,0.3275,0.3151,0.3213,0.3244,0.2655,0.2898,0.3747,0.5278,0.6898,0.8482,0.9847,1.0804,1.1695,1.3043,1.3349,1.3441,1.4609,1.4923,1.5278,1.6322,1.7318,1.8339,1.9334,2.0435,2.1778,2.3649,2.3871,2.3716,2.3746,2.3728,0.0,0.0,0.0,0.0,0.0,0.0,0.0,0.0,0.0,0.0,1.847,0.0,0.0,0.0,0.0,0.0,1.7746,0.0,0.0,0.0,0.0,2.0059,1.9782,0.0,1.87,1.7925,1.7305,1.6569,1.5875,1.5349,1.4779,1.3981,1.3277,1.245,1.142,1.0358,0.9648,0.9145,0.862,0.7951,0.7051,0.6365,0.5618,0.4891,0.0,0.0,0.0,0.0,0.0,0.7309,0.71,0.7969,0.9599,1.2456,1.419,1.5407,1.594,1.6455,1.6789,1.681,1.6472,1.5921,1.5088,1.6148,1.6846,1.6786,1.6555,1.6233,1.5704,1.5026,1.3616,0.0,0.0,0.8165,0.0,0.0,0.0,0.0,0.0,0.0,0.0,0.6045,0.6304,0.6528,-0.1597,-0.2917,-0.0326,-0.2934,-0.2705,-0.1065,-0.2223,-0.1987,-0.0857,0.1118,0.4331,0.7879,0.9582,1.1037,1.2269,1.3717,1.4425,1.4966,1.5963,1.671,1.7431,1.8599,1.9743,2.0837,2.2102,2.3235,2.4237,2.4786,2.5286,2.5562,2.5326,2.4733,2.417,0.0,0.0,0.0,0.0,0.0,2.0557,2.0736,0.0,0.0,2.0473,1.9248,0.0,0.0,1.8107,0.0,0.0,0.0,0.0,1.8623,1.916,1.9421,1.9484,1.9065,1.8482,1.7695,1.6666,1.5948,1.542,1.4749,1.4081,1.3482,1.2667,1.1385,0.9769,0.957,0.9,0.8164,0.76,0.6816,0.5993,0.5162,0.4653,0.4106,0.0,0.0,0.0,0.0,0.0,0.0,0.0,0.5829,0.6702,0.8414,1.1029,1.3005,1.3663,1.4309,1.4681,1.4545,1.3912,1.3571,1.3691,1.399,1.4464,1.51,1.4473,1.4005,1.381,1.3819,1.269,0.0,0.0,0.0,0.0,0.0,0.0,0.0,0.0,0.6653,0.7141,0.8165,0.2153,-0.7486,-0.2126,-0.4414,-1.1468,-1.5307,-1.4896,-1.2453,-1.2669,-1.1985,-1.0478,-0.7356,-0.1083,0.5807,0.7954,0.9892,1.1632,1.3243,1.4362,1.5251,1.6835,1.7914,1.9033,2.0318,2.1674,2.2942,2.4011,2.4935,2.5768,2.6368,2.6786,2.6835,2.6235,2.5296,2.453,2.4219,0.0,0.0,0.0,0.0,0.0,2.3219,0.0,2.2362,2.1809,2.0687,0.0,0.0,0.0,0.0,0.0,0.0,0.0,1.8159,0.0,1.8675,1.892,1.8754,1.8324,1.7706,1.6664,1.5769,1.4912,1.4271,1.3369,1.2177,1.1141,1.0067,0.8966,0.8273,0.7658,0.7126,0.6651,0.587,0.4993,0.4719,0.4157,0.3217,0.9532,0.0,0.749,0.0,0.5071,0.3995,0.3279,0.3504,0.3916,0.4535,0.6989,0.9268,1.0664,1.1537,1.1974,1.1844,1.1327,1.1203,1.1783,1.1715,1.2025,1.2728,1.2238,0.0,1.1942,1.2449,1.1729,0.9744,0.9306,0.0,0.0,0.0,0.0,0.0,0.6993,0.7107,0.7622,0.9001,0.1234,-1.1397,-0.4874,-1.0289,-2.2583,-2.4723,-2.3472,-2.0629,-2.0773,-2.0189,-1.897,-1.5944,-0.9346,-0.1401,0.43,0.7825,1.0125,1.2284,1.3724,1.514,1.7116,1.8633,2.0079,2.1584,2.3152,2.4533,2.5402,2.6263,2.714,2.7992,2.816,2.7941,2.7402,2.6307,2.537,2.5149,0.0,0.0,0.0,2.4848,0.0,2.513,2.4483,2.3742,2.3159,2.1908,0.0,0.0,0.0,0.0,0.0,0.0,0.0,0.0,0.0,0.0,1.848,1.8542,1.8277,1.7649,1.6729,1.5694,1.4624,1.3554,1.2437,1.1174,0.995,0.9045,0.8369,0.7409,0.6704,0.6332,0.597,0.5243,0.4309,0.4472,0.353,0.2118,0.8207,0.6773,0.5621,0.5292,0.3365,0.1379,0.0073,0.0725,0.152,0.1735,0.2448,0.4137,0.7321,0.8164,0.8488,0.8642,0.8833,0.8833,0.8648,0.8904,0.9005,0.0,0.0,0.971,0.9731,1.0989,1.113,1.0063,0.0,0.0,0.7085,0.0,0.564,0.628,0.7395,0.8203,0.8698,0.7891,0.5457,0.1099,-1.2351,-2.3562,-3.1996,-2.8876,-2.5618,-2.294,-2.4329,-2.4858,-2.4764,-2.379,-2.0959,-1.5476,-0.1851,0.473,0.7944,1.0668,1.2751,1.4677,1.67,1.8712,2.0492,2.229,2.3957,2.5434,2.64,2.7453,2.8528,2.9504,2.9201,2.8874,2.9229,2.7919,2.6832,2.7144,0.0,0.0,0.0,2.5641,0.0,2.619,2.4782,2.3998,2.4701,2.2704,0.0,0.0,0.0,0.0,0.0,0.0,0.0,1.7008,1.7845,0.0,1.822,1.8497,1.8253,1.7465,1.667,1.5765,1.466,1.2487,1.1294,1.0738,0.9523,0.8581,0.7825,0.7175,0.6457,0.5741,0.5656,0.5012,0.4079,0.4157,0.2741,0.0784,0.7676,0.6582,0.503,0.2951,0.1217,-0.0074,-0.082,-0.1043,-0.1041,-0.0817,-0.0146,0.0718,0.1544,0.4668,0.6313,0.0,0.5577,0.5971,0.0,0.6634,0.5939,0.4224,0.4735,0.5543,0.6584,0.7374,0.8633,1.0354,0.0,0.0,0.0,0.4508,0.3995,0.0456,0.0069,0.2248,0.6379,0.8893,0.8932,0.4528,-2.7787,-3.502,-2.6044,-2.2394,-2.1946,-2.3511,-2.5767,-2.8011,-2.9875,-2.997,-2.8503,-2.5244,-1.7314,-0.7325,0.2362,0.6396,0.9782,1.2681,1.5175,1.7639,2.0003,2.1765,2.3321,2.4777,2.584,2.7129,2.8487,2.9974,3.0,2.9867,3.0132,2.9127,2.8076,2.7704,2.7018,0.0,2.6509,0.0,2.6451,2.6753,2.5844,2.5365,2.5773,2.4421,0.0,0.0,0.0,0.0,0.0,0.0,0.0,0.0,1.7361,0.0,1.7879,1.7745,1.741,1.6958,1.6257,1.5095,1.3484,1.1866,1.0637,0.9845,0.8619,0.7758,0.7126,0.6143,0.5648,0.5407,0.498,0.4479,0.3843,0.3452,0.243,0.094,0.6474,0.5491,0.393,0.177,0.0221,-0.0913,-0.1609,-0.2297,-0.2665,-0.2633,-0.2006,-0.1543,-0.1747,0.0634,0.0,0.2137,0.2146,0.2568,0.3423,0.3441,0.2699,0.1087,-0.1329,-0.2183,-0.1267,0.0497,0.0,0.3805,0.1627,-0.0253,-0.1878,-0.0908,-0.2899,-0.7276,-0.7064,-0.3392,0.3367,1.463,2.1677,2.2309,-1.0899,-1.8297,-0.9168,-0.6736,-1.0962,-1.8832,-2.321,-2.7703,-3.2057,-3.5643,-3.6203,-3.4737,-3.0649,-2.1091,-0.9756,-0.1206,0.4799,0.9416,1.259,1.5463,1.795,1.9734,2.1359,2.2993,2.4691,2.6118,2.7592,2.9211,2.9808,3.0273,3.0855,3.0196,2.9294,2.8768,2.8397,2.7897,2.7174,0.0,2.7219,0.0,0.0,0.0,0.0,2.5391,2.4804,0.0,0.0,0.0,0.0,0.0,0.0,1.7219,1.745,1.756,1.7545,1.7312,1.697,1.6445,1.5236,1.3977,1.2673,1.1123,1.0012,0.926,0.8007,0.7116,0.6514,0.5512,0.5035,0.4936,0.4528,0.4097,0.3606,0.3217,0.2353,0.1176,0.4797,0.3728,0.2612,0.0,0.0076,0.0,-0.2352,-0.3051,-0.3554,-0.3894,-0.3227,-0.2765,-0.284,-0.3337,-0.2995,-0.1312,0.0,0.0,-0.0398,-0.0321,-0.0703,-0.1457,-0.8438,-1.2224,-1.195,-0.881,-0.7881,-0.927,-1.395,-1.2599,-0.5755,-1.1121,-1.4934,-1.725,-1.4545,-0.93,-0.0794,2.3768,4.0745,4.9519,3.0475,1.9919,1.5533,1.5607,0.5608,-0.944,-1.6912,-2.4033,-3.1312,-4.0111,-4.3403,-4.3458,-4.1357,-3.5504,-2.6502,-1.1468,-0.183,0.486,0.9125,1.233,1.4845,1.6617,1.8362,2.0302,2.2713,2.4422,2.5832,2.747,2.876,2.9978,3.1279,3.0958,3.038,3.0144,2.9699,2.9032,2.8023,2.7872,2.7666,0.0,0.0,0.0,2.481,2.5744,2.5528,0.0,0.0,0.0,0.0,0.0,1.819,1.7641,1.794,1.781,1.7278,1.7175,1.6677,1.5853,1.3836,1.2626,1.2144,1.0409,0.9338,0.8863,0.7681,0.6769,0.5933,0.5064,0.4595,0.4455,0.4115,0.3839,0.3441,0.3294,0.2589,0.141,0.0,0.0,0.2607,0.0665,-0.0764,-0.194,-0.2882,-0.3699,-0.4122,-0.3891,-0.3302,-0.3058,-0.3405,-0.3036,-0.309,-0.3868,-0.3716,-0.3544,-0.3666,-0.2454,-0.4561,-1.0882,-1.5873,-1.6242,-1.1422,-1.5659,-2.1512,-2.8825,-3.2731,-3.3098,-3.0201,-3.272,-3.3538,-3.261,-2.6593,-1.9519,-0.9683,2.7102,4.588,5.0441,4.4303,3.7123,2.9933,2.8308,1.7635,0.2323,-0.7357,-1.6304,-2.541,-3.78,-4.4205,-4.6903,-4.678,-4.3457,-3.645,-2.0393,-0.9717,-0.1919,0.3737,0.8908,1.3188,1.521,1.6448,1.7465,1.8876,2.0474,2.2346,2.5082,2.6772,2.8214,2.9678,3.0011,2.9983,2.9867,2.8985,2.8194,2.7955,2.7506,2.7169,0.0,2.7365,2.7129,2.5981,2.5885,2.5082,0.0,0.0,0.0,1.9851,1.937,1.8727,1.7922,1.7713,1.7534,1.7256,1.655,1.5653,1.4444,1.3078,1.2127,1.1466,0.9866,0.8734,0.7925,0.6864,0.5927,0.5218,0.4499,0.4111,0.3907,0.3473,0.3337,0.329,0.2649,0.2431,0.2033,0.2819,0.264,0.2317,0.1189,-0.0151,-0.1454,-0.2673,-0.3521,-0.3572,-0.2464,-0.2385,-0.2432,-0.2501,-0.2447,-0.2853,-0.4077,-0.4333,-0.524,-0.7261,-0.565,-0.9581,-2.0702,-1.4025,-1.1743,-1.5369,-2.1152,-2.7641,-3.487,-3.8668,-4.0123,-3.9392,-4.0816,-4.0643,-3.8989,-3.5332,-2.8913,-1.7985,2.4693,4.4939,4.7426,3.6438,3.1259,2.9689,2.5624,1.7975,0.8181,-0.1407,-1.0858,-2.083,-3.3858,-4.2233,-4.7593,-4.9939,-4.8864,-4.4607,-3.3832,-2.2677,-1.2935,-0.872,-0.2907,0.3067,0.7496,1.0539,1.28,1.4356,1.6714,1.9348,2.2097,2.4595,2.6713,2.814,2.9,2.9416,2.9107,2.8304,2.7483,2.6742,2.6716,2.6667,2.6303,2.7252,2.7396,2.6062,2.594,2.5109,2.3103,2.191,0.0,1.9917,1.9315,1.8684,1.8002,1.7889,1.7531,1.6909,1.5816,1.468,1.3563,1.2367,1.1437,1.0626,0.9262,0.8107,0.719,0.6272,0.5369,0.4552,0.3887,0.3568,0.3514,0.2924,0.2862,0.2961,0.2334,0.2042,0.1723,0.2714,0.2169,0.1905,0.2005,0.1048,-0.0302,-0.176,-0.2665,-0.2478,-0.0539,-0.1,-0.1383,-0.1092,-0.1644,-0.2051,-0.2132,-0.3324,-0.5786,-0.9819,-0.4389,-0.6503,-1.892,-0.2704,-0.0539,-1.5873,-2.3522,-2.9602,-3.4321,-3.8544,-4.0713,-4.0918,-4.2137,-4.2126,-4.1131,-4.1403,-3.6415,-2.5048,1.7029,3.7701,4.0427,2.0024,1.5873,2.1364,1.6848,1.3655,1.0505,0.2018,-0.7157,-1.7164,-2.9697,-3.9133,-4.644,-5.1078,-5.203,-5.0699,-4.6935,-3.6782,-2.595,-2.2083,-1.5369,-0.7869,-0.1345,0.3349,0.7041,0.9479,1.2831,1.6178,1.9055,2.2342,2.5148,2.6568,2.775,2.8436,2.7982,2.7357,2.6493,2.5362,0.0,2.596,2.5532,2.7099,2.7498,2.5741,2.5906,2.5259,2.3171,2.1819,2.0805,2.0144,1.9247,1.8433,1.7741,1.7946,1.7489,1.6353,1.5059,1.3897,1.2866,1.1764,1.0766,0.9832,0.8667,0.7587,0.6605,0.5881,0.5023,0.4042,0.3367,0.3108,0.3116,0.2447,0.2384,0.2568,0.2178,0.1808,0.1335,0.2357,0.1616,0.1314,0.139,0.1213,0.0987,0.0629,-0.0616,-0.1017,0.0335,0.013,-0.0191,-0.0318,-0.0554,0.0348,0.2897,-0.0165,-0.3881,-0.7718,1.5119,2.7669,2.5089,2.5243,1.8672,0.4405,-1.724,-3.0641,-3.5271,-4.05,-4.3089,-4.3212,-4.4145,-4.469,-4.4825,-4.3931,-3.8648,-2.8472,0.1062,1.904,2.6321,1.3307,0.9299,1.1521,1.4826,1.4437,1.1156,0.3115,-0.5157,-1.43,-2.7607,-3.6988,-4.3978,-4.923,-5.2058,-5.2944,-5.0391,-4.5728,-3.8554,-2.5338,-1.447,-0.5992,-0.2282,-0.0881,0.049,0.4267,0.7774,1.1628,1.6489,2.0099,2.2966,2.4675,2.5559,2.6172,2.6548,2.5029,2.421,2.536,0.0,2.4259,2.5719,2.7017,2.73,2.6031,2.5818,2.4893,2.2749,2.1704,2.0733,1.9759,1.9504,1.8631,1.7031,1.7092,1.6576,1.5264,1.4488,1.3467,1.226,1.1453,1.0388,0.9192,0.8409,0.7456,0.64,0.5752,0.4767,0.3585,0.3063,0.2781,0.2612,0.2149,0.2101,0.2214,0.201,0.2123,0.2038,0.2268,0.1576,0.1352,0.2183,0.2671,0.3141,0.3845,0.2744,0.2011,0.2547,0.1929,0.131,0.0999,0.1545,0.2254,0.2902,0.9635,1.3595,1.2837,2.7213,3.5698,3.5495,3.3322,2.0075,-0.5582,-1.6579,-2.6938,-3.6938,-4.13,-4.4274,-4.5873,-4.6555,-4.6957,-4.702,-4.5003,-3.874,-2.8395,-0.8916,0.5569,1.4937,0.8871,0.6654,0.7192,0.9908,0.9894,0.7629,0.2271,-0.4173,-1.173,-2.2519,-3.1289,-3.8877,-4.5299,-4.8899,-5.0479,-4.9159,-4.4761,-3.8221,-2.8464,-1.9885,-1.2939,-0.9782,-0.7419,-0.4961,-0.1551,0.3459,0.8476,1.2542,1.8018,2.2449,2.3669,2.4547,2.4977,2.474,2.3326,0.0,2.3028,2.241,2.2474,2.3979,2.5601,2.6351,2.58,2.5738,2.4999,2.3051,2.1942,2.0873,1.9772,1.8992,1.8054,1.6855,1.6242,1.5289,1.3997,1.3575,1.2722,1.138,1.0709,0.9825,0.8634,0.7939,0.7026,0.5943,0.5153,0.4359,0.3502,0.2771,0.2087,0.1523,0.133,0.1278,0.142,0.1551,0.1402,0.1077,0.216,0.181,0.1796,0.255,0.427,0.5911,0.7199,0.621,0.5093,0.4631,0.317,0.2204,0.2265,0.2988,0.4333,0.6342,1.9512,2.8739,3.12,3.4167,3.5862,3.5974,3.2422,1.6215,-1.4187,-1.6721,-2.4547,-3.8578,-4.2154,-4.5224,-4.7767,-4.8375,-4.8476,-4.8093,-4.6043,-4.0096,-3.0656,-1.7081,-0.4813,0.5531,0.5533,0.507,0.4588,0.5723,0.5574,0.4398,0.1654,-0.3207,-0.9712,-1.7843,-2.5869,-3.3702,-4.0529,-4.4421,-4.6299,-4.5977,-4.1427,-3.5472,-3.0828,-2.5697,-2.0907,-1.7696,-1.4338,-1.0967,-0.7929,-0.1556,0.4766,0.8553,1.5594,2.1498,2.2754,2.3519,2.3722,2.2988,0.0,2.1166,2.1045,2.0712,2.0936,2.216,2.3878,2.5029,2.5125,2.527,2.4776,2.3385,2.2143,2.1069,2.0024,1.8594,1.7243,1.6134,1.5172,1.4143,1.2986,1.2663,1.1881,1.0583,0.9914,0.9036,0.7907,0.723,0.6362,0.5301,0.4509,0.3816,0.3264,0.2502,0.1618,0.0639,0.067,0.0606,0.0608,0.0856,0.0699,0.0305,0.1925,0.2553,0.2695,0.1496,0.5609,0.935,1.0174,0.9081,0.7526,0.5557,0.2939,0.167,0.2939,0.2417,0.6999,1.9599,2.5713,3.0556,3.4568,3.5101,3.5449,3.5899,2.5175,1.2233,-0.2708,-1.5232,-2.7522,-3.9678,-4.3727,-4.6496,-4.7997,-4.8797,-4.869,-4.7832,-4.7885,-4.513,-3.9499,-2.4766,-1.1836,-0.0987,0.259,0.332,0.2418,0.4554,0.4828,0.4028,0.273,-0.1866,-0.8552,-1.5643,-2.2803,-2.9818,-3.5368,-3.9157,-4.1529,-4.1615,-3.9039,-3.5324,-3.1693,-2.8657,-2.5777,-2.2505,-2.0599,-1.8599,-1.5272,-0.8358,-0.0907,0.5157,1.2517,1.8723,2.1569,2.1917,2.1693,2.1622,0.0,0.0,2.1083,2.0229,1.997,2.1252,2.2421,2.3315,2.3848,2.4061,2.3831,2.3182,2.2087,2.1171,2.0507,1.8787,1.6633,1.4003,1.3922,1.3477,1.2572,1.1985,1.1081,0.9859,0.9176,0.8137,0.6802,0.6117,0.5377,0.4638,0.3931,0.3257,0.2581,0.2311,0.1565,0.0583,0.0899,0.0681,0.0076,0.0078,0.0549,0.1015,0.2133,0.2503,0.3326,0.4807,0.8559,1.1615,1.2282,1.0148,0.7591,0.5027,0.3023,0.4388,1.1149,1.0056,1.2662,2.2245,2.8185,3.2183,3.3975,3.2715,3.2629,3.4217,2.836,1.3648,-1.063,-1.2058,-2.2618,-4.327,-4.5406,-4.7371,-4.9125,-4.9353,-4.9379,-4.9151,-4.7185,-4.6069,-4.4788,-3.3441,-2.1635,-1.0012,-0.35,0.0247,0.2086,0.2889,0.2549,0.1551,0.0768,-0.3118,-0.8826,-1.5093,-2.0979,-2.654,-3.1823,-3.4844,-3.6654,-3.7524,-3.7013,-3.5643,-3.3301,-3.0171,-2.7002,-2.4541,-2.2914,-2.117,-1.8301,-1.2114,-0.6283,-0.3881,0.4806,1.2221,1.3034,1.5603,1.7836,1.8654,0.0,1.8106,1.8838,1.807,1.7831,1.8947,2.04,2.161,2.2254,2.3133,2.3423,2.2848,2.198,2.1134,2.0254,1.7922,1.5504,1.3097,1.2501,1.189,1.1201,1.0585,0.9739,0.8662,0.7951,0.7025,0.5934,0.5331,0.4663,0.3942,0.3509,0.313,0.2874,0.2421,0.1424,0.0219,0.0375,0.0229,0.0077,0.0539,0.0837,0.0897,0.2025,0.2461,0.3782,0.6647,1.0009,1.264,1.3708,1.0955,0.7787,0.503,0.3959,0.8392,2.1158,1.9807,1.96,2.3736,2.8163,3.0518,3.0082,2.7784,2.7933,3.1217,2.8713,1.386,-1.4785,-1.0644,-1.9822,-4.3689,-4.6018,-4.7954,-4.9549,-4.9573,-4.95,-4.9251,-4.6566,-4.6055,-4.679,-3.9989,-3.1036,-2.0659,-1.2703,-0.5863,-0.0337,0.022,-0.1112,-0.3159,-0.3214,-0.5825,-1.0088,-1.5569,-2.0475,-2.5074,-2.9877,-3.2587,-3.4195,-3.485,-3.5414,-3.5495,-3.402,-3.0993,-2.792,-2.6449,-2.5012,-2.3417,-2.1316,-1.6022,-1.1349,-1.0507,-0.2316,0.4982,0.5878,0.9574,1.3068,1.4775,1.5606,1.6296,1.6956,1.6526,1.6362,1.7055,1.8499,1.9755,2.0638,2.1808,2.2415,2.2196,2.1472,2.0472,1.9058,1.6753,1.4607,1.2604,1.1525,1.0612,0.986,0.9361,0.863,0.7611,0.6781,0.5877,0.4969,0.4373,0.3779,0.328,0.2882,0.2699,0.2692,0.234,0.1495,0.0438,0.0372,0.0378,0.0383,0.0904,0.111,0.1017,0.1631,0.2487,0.3892,0.602,0.925,1.2265,1.4285,1.1722,0.8522,0.5833,0.6207,1.3717,3.2156,3.0846,2.7706,2.5395,2.5679,2.5023,2.2766,2.0248,2.1341,2.6886,2.4255,1.1746,-1.1574,-1.1588,-2.0741,-3.9949,-4.5251,-4.8254,-4.9008,-4.9396,-4.8975,-4.7723,-4.6341,-4.5581,-4.5267,-4.3802,-3.9429,-3.2703,-2.5078,-1.5536,-0.5711,-0.3833,-0.609,-1.006,-0.9152,-1.0054,-1.2394,-1.6836,-2.1476,-2.5946,-2.9518,-3.259,-3.4679,-3.3861,-3.4273,-3.4736,-3.3511,-3.1151,-2.8959,-2.8567,-2.7351,-2.5968,-2.4813,-2.0575,-1.6078,-1.3447,-0.811,-0.2685,0.1315,0.4495,0.7392,1.0085,1.3086,1.5196,1.5722,1.5806,1.5923,1.5966,1.6678,1.7751,1.9177,1.9903,2.0536,2.1175,2.0487,1.9076,1.6805,1.5429,1.3974,1.2427,1.1022,0.9736,0.8618,0.8399,0.777,0.6769,0.5774,0.4751,0.3745,0.3121,0.2701,0.2534,0.2065,0.1783,0.1615,0.2009,0.185,0.131,0.1166,0.1092,0.1092,0.1165,0.131,0.1596,0.0477,0.1548,0.3157,0.5292,0.8275,1.0953,1.2757,1.2247,1.1915,1.2361,2.5253,3.3799,3.2258,3.214,3.0293,2.5614,2.3367,2.0004,1.4753,1.5138,1.6065,1.7338,2.0718,1.4797,-0.1781,-0.5658,-1.9339,-4.3592,-4.4479,-4.6334,-4.9152,-4.9722,-4.9176,-4.7664,-4.5814,-4.4516,-4.3731,-4.3717,-4.281,-4.1046,-3.6687,-3.0377,-2.3519,-2.278,-2.0883,-1.862,-1.8426,-1.7641,-1.7268,-2.0533,-2.3729,-2.7145,-3.228,-3.5014,-3.6215,-3.5502,-3.4747,-3.3573,-3.091,-2.692,-2.3886,-2.56,-2.4613,-2.2986,-2.2073,-2.0816,-2.0289,-2.1926,-1.7514,-1.2987,-1.1772,-0.6262,-0.0438,0.398,0.7513,1.0372,1.236,1.3446,1.3946,1.3671,1.5094,1.655,1.7536,1.8561,1.9541,2.0409,1.9414,1.8085,1.6554,1.4963,1.3358,1.1796,1.0476,0.9319,0.8343,0.7849,0.6888,0.5525,0.4717,0.3896,0.3072,0.2349,0.1866,0.1539,0.1319,0.1128,0.104,0.0748,0.0645,0.0652,0.0799,0.0939,0.1202,0.1218,0.145,0.1693,-0.0406,0.0269,0.1611,0.3756,0.6777,0.9729,1.2064,1.4309,1.878,2.7266,3.8737,4.3315,3.5988,3.1208,2.5989,1.9657,1.5428,1.2015,0.9458,1.1233,1.1961,1.1175,1.4192,1.1147,0.0992,-0.4707,-1.8051,-3.9418,-4.1811,-4.4668,-4.7851,-4.8802,-4.846,-4.7006,-4.4311,-4.2186,-4.0658,-4.1983,-4.3137,-4.4007,-4.3005,-3.9555,-3.4869,-3.3311,-3.0453,-2.7287,-2.756,-2.5406,-2.2747,-2.5218,-2.7997,-3.1139,-3.5119,-3.6577,-3.6534,-3.5134,-3.348,-3.1122,-2.6598,-2.147,-1.7236,-1.6456,-1.7768,-1.9333,-1.9744,-2.108,-2.321,-2.6729,-2.403,-2.0784,-1.9938,-1.3887,-0.7286,-0.1994,0.2554,0.6491,0.9403,1.1264,1.2432,1.2721,1.4153,1.557,1.6773,1.7842,1.8745,1.935,1.852,1.7396,1.6117,1.4528,1.3114,1.1882,1.0607,0.9415,0.8329,0.7586,0.6466,0.4955,0.3931,0.3147,0.26,0.1765,0.1189,0.0919,0.0905,0.0766,0.0566,0.0395,0.0642,0.1229,0.1508,0.1832,0.2128,0.1871,0.1742,0.1638,-0.1277,-0.1277,-0.0607,0.1635,0.5,0.8584,1.2283,1.7609,2.7549,4.5354,4.6599,4.4648,4.148,2.8894,1.7945,1.1169,0.4987,0.2777,0.5877,0.7893,0.8509,0.7308,0.6031,0.3164,-0.1511,-0.7134,-1.6728,-3.0363,-3.7759,-4.2847,-4.564,-4.6943,-4.7023,-4.5911,-4.22,-3.9069,-3.6773,-3.8635,-4.0475,-4.2358,-4.4109,-4.3216,-4.0438,-3.7166,-3.5641,-3.5287,-3.5573,-3.2538,-2.8685,-3.0445,-3.3417,-3.655,-3.7577,-3.7161,-3.5806,-3.3359,-3.0953,-2.7719,-2.1426,-1.556,-0.9749,-0.39,-0.8453,-1.5059,-1.7578,-2.1376,-2.5408,-2.8928,-2.8336,-2.6525,-2.4377,-1.9135,-1.3376,-0.7914,-0.1991,0.3135,0.6676,0.9199,1.118,1.2635,1.3637,1.4952,1.676,1.7698,1.8247,1.8322,1.7869,1.7028,1.5716,1.4379,1.3276,1.2526,1.1193,0.9848,0.8564,0.7571,0.633,0.4884,0.3378,0.2501,0.2129,0.1204,0.0778,0.0716,0.093,0.0755,0.0378,0.0609,0.1356,0.2409,0.2808,0.333,0.3752,0.3028,0.2355,0.1747,-0.2822,-0.2755,-0.2071,0.0075,0.3853,0.819,1.3052,2.1929,3.169,4.1747,4.4846,4.4518,4.0342,2.8668,1.9971,1.703,0.6649,0.0137,-0.0109,0.2143,0.3224,0.2585,0.1864,-0.0248,-0.4002,-0.6852,-1.5232,-2.9542,-3.3842,-3.8766,-4.4208,-4.585,-4.5792,-4.4008,-4.0709,-3.7485,-3.4283,-3.2467,-3.3593,-3.6661,-3.7094,-3.8411,-3.9943,-3.8246,-3.8096,-3.8499,-3.6265,-3.4859,-3.4185,-3.5056,-3.6358,-3.7542,-3.7184,-3.5969,-3.4251,-3.1992,-2.8755,-2.4677,-1.9148,-1.2083,-0.5127,-0.0224,-0.3637,-0.9487,-1.4289,-2.213,-2.9295,-3.2578,-3.2388,-3.095,-2.882,-2.4395,-1.9169,-1.3431,-0.7197,-0.1398,0.3316,0.7043,0.9817,1.1285,1.3201,1.513,1.6896,1.8302,1.918,1.9342,1.822,1.7281,1.6769,1.5492,1.4284,1.3211,1.1731,1.033,0.9078,0.7586,0.6195,0.4811,0.3312,0.1867,0.0466,0.0656,0.0787,0.098,0.2066,0.1949,0.0987,0.0649,0.0797,0.1335,0.285,0.3987,0.4795,0.4647,0.4324,0.3563,-0.3894,-0.3696,-0.3148,-0.1376,0.2351,0.699,1.262,2.2827,3.2626,4.0114,4.1165,3.985,3.625,2.5299,1.4056,0.3758,-0.4564,-0.8313,-0.6142,-0.2812,-0.1211,-0.1937,-0.2584,-0.4124,-0.652,-0.9389,-1.5727,-2.5615,-3.0909,-3.6241,-4.1595,-4.3823,-4.3975,-4.2122,-3.8427,-3.4788,-3.118,-2.7455,-2.7837,-3.1133,-3.3704,-3.6044,-3.7973,-3.8397,-3.9048,-3.9614,-3.8829,-3.8438,-3.83,-3.8142,-3.7562,-3.6663,-3.527,-3.2827,-3.0118,-2.817,-2.5003,-2.1219,-1.7022,-1.1568,-0.6239,-0.2832,-0.6393,-1.134,-1.3656,-2.263,-3.1634,-3.5745,-3.5487,-3.3916,-3.1871,-2.7969,-2.3323,-1.8078,-1.1895,-0.5841,-0.0416,0.4711,0.889,1.1436,1.3721,1.5862,1.7825,1.8949,1.9495,1.9336,1.8591,1.7807,1.7005,1.5347,1.3724,1.2222,0.9985,0.7944,0.6165,0.3596,0.2415,0.2618,0.2706,0.1999,0.0627,0.0673,0.0865,0.122,0.2475,0.1638,-0.0652,-0.1701,-0.0559,0.1847,0.2001,0.4275,0.7366,0.6724,0.5365,0.3672,-0.4885,-0.4434,-0.4097,-0.342,-0.0216,0.4148,0.9878,2.0535,3.0636,3.7865,3.6495,3.4032,3.1982,2.0009,0.4578,-1.4136,-1.7957,-1.696,-1.1372,-0.7108,-0.5094,-0.5698,-0.6478,-0.7579,-0.9123,-1.2859,-1.7169,-2.1776,-2.8717,-3.4464,-3.8869,-4.131,-4.1691,-4.0091,-3.5855,-3.182,-2.7934,-2.3765,-2.3162,-2.5388,-3.0283,-3.2996,-3.4353,-3.6362,-3.7577,-3.8515,-4.0679,-4.1356,-4.1071,-3.9984,-3.7757,-3.5027,-3.251,-2.8762,-2.493,-2.3213,-2.0683,-1.8002,-1.5839,-1.3237,-1.0712,-0.8914,-1.2961,-1.718,-1.6535,-2.4626,-3.3612,-3.8355,-3.7914,-3.6085,-3.4156,-3.0704,-2.6693,-2.2264,-1.653,-1.0561,-0.4571,0.1827,0.7501,1.1614,1.4616,1.7126,1.9042,1.9332,1.9326,1.9089,1.877,1.8098,1.6898,1.4963,1.2898,1.0708,0.7784,0.5034,0.2517,-0.0838,-0.1865,-0.057,0.0856,0.1417,0.1142,0.0202,-0.0038,0.0316,0.0916,-0.0607,-0.3645,-0.4701,-0.2476,0.1509,0.0727,0.4005,0.9137,0.8666,0.6504,0.3855,-0.642,-0.4957,-0.5024,-0.7256,-0.5733,-0.2545,0.2116,1.342,2.3993,3.1277,3.1596,3.1187,3.1228,1.3224,-0.4839,-1.9627,-1.9957,-1.7782,-1.4061,-1.0368,-0.8054,-0.754,-0.7979,-0.9204,-1.13,-1.4845,-1.8652,-2.2708,-2.7854,-3.2786,-3.7538,-3.8946,-3.8982,-3.7682,-3.3721,-2.9473,-2.5157,-2.2232,-2.0154,-1.8997,-2.1642,-2.4564,-2.7467,-2.8685,-3.0796,-3.3632,-3.7757,-4.0331,-4.1567,-4.0102,-3.732,-3.3688,-2.9113,-2.4438,-2.0225,-1.7997,-1.6661,-1.6203,-1.7234,-1.7523,-1.7396,-1.706,-2.0715,-2.4869,-2.6556,-3.1544,-3.6729,-3.9971,-3.9573,-3.7964,-3.5778,-3.3035,-2.9922,-2.6283,-2.1699,-1.6254,-0.9432,-0.233,0.4194,0.9784,1.5394,1.9131,1.9958,1.9043,1.877,1.9701,1.8321,1.7301,1.6989,1.5496,1.3231,1.012,0.7381,0.4441,0.1276,-0.1025,-0.2711,-0.3776,-0.3886,-0.2477,0.0088,-0.2658,-0.3898,-0.3987,-0.5498,-0.6816,-0.7747,-0.6289,-0.51,-0.3875,-0.0735,0.2721,0.6339,0.9616,0.9267,0.6719,-1.0376,-0.8104,-0.8516,-1.453,-1.4819,-1.2292,-0.6602,0.4278,1.5362,2.5236,2.6193,2.4789,2.1798,0.611,-0.7882,-1.6877,-1.8083,-1.7108,-1.4327,-1.144,-0.9545,-0.8796,-0.9659,-1.1157,-1.3477,-1.6572,-1.9934,-2.3413,-2.7766,-3.1693,-3.5161,-3.6924,-3.6769,-3.4867,-3.1476,-2.7417,-2.3012,-2.0214,-1.8253,-1.7021,-1.7183,-1.9443,-2.2843,-2.4027,-2.69,-3.1128,-3.7268,-3.9175,-3.8319,-3.5345,-3.3014,-3.0342,-2.4626,-1.9866,-1.6018,-1.4317,-1.4429,-1.6176,-2.0985,-2.4434,-2.7274,-2.9862,-3.1797,-3.3716,-3.6247,-3.8334,-4.0189,-4.1755,-4.1265,-3.9924,-3.7811,-3.5455,-3.2694,-2.9232,-2.5389,-2.0892,-1.5391,-0.5913,0.4216,1.443,1.9008,2.1189,2.0795,2.0099,1.9571,1.9362,1.8574,1.776,1.6995,1.4866,1.2108,0.8682,0.4766,0.0709,-0.3435,-0.7024,-0.8664,-0.8449,-1.0797,-0.9101,-0.394,-0.5042,-0.5568,-0.5635,-0.6307,-0.7631,-0.9253,-0.8547,-0.6764,-0.4337,-0.3192,0.0306,0.503,0.7796,0.6641,0.3555]}]]